<?xml version="1.0" encoding="UTF-8" standalone="no" ?>
<gpx xmlns="http://www.topografix.com/GPX/1/1" xmlns:xsi="http://www.w3.org/2001/XMLSchema-instance" xsi:schemaLocation="http://www.topografix.com/GPX/1/1 http://www.topografix.com/GPX/1/1/gpx.xsd" version="1.1" creator="VisuGPX - https://www.visugpx.com">
  <metadata>
    <name>Sortie du 11-05-2015 Tête de BOURSIER (pivoines)</name>
    <desc><![CDATA[Distance: 4,5Km
Dénivelé: 430m
Durée: 3H 15]]></desc>
  </metadata>
  <trk>
    <name><![CDATA[Tracé actuel: 11 MAI 2015 12:57]]></name>
    <trkseg>
      <trkpt lat="44.36496" lon="5.98461">
        <ele>843.21</ele>
        <time>2015-05-11T11:58:14Z</time>
      </trkpt>
      <trkpt lat="44.36494" lon="5.98456">
        <ele>842.73</ele>
        <time>2015-05-11T11:58:18Z</time>
      </trkpt>
      <trkpt lat="44.36496" lon="5.98449">
        <ele>843.21</ele>
        <time>2015-05-11T11:58:22Z</time>
      </trkpt>
      <trkpt lat="44.36502" lon="5.98447">
        <ele>844.18</ele>
        <time>2015-05-11T11:58:29Z</time>
      </trkpt>
      <trkpt lat="44.36513" lon="5.98437">
        <ele>845.14</ele>
        <time>2015-05-11T11:58:41Z</time>
      </trkpt>
      <trkpt lat="44.36519" lon="5.98435">
        <ele>850.9</ele>
        <time>2015-05-11T11:58:52Z</time>
      </trkpt>
      <trkpt lat="44.36519" lon="5.98436">
        <ele>848.5</ele>
        <time>2015-05-11T11:58:53Z</time>
      </trkpt>
      <trkpt lat="44.36518" lon="5.98437">
        <ele>827.83</ele>
        <time>2015-05-11T11:58:54Z</time>
      </trkpt>
      <trkpt lat="44.36518" lon="5.98437">
        <ele>838.89</ele>
        <time>2015-05-11T11:58:55Z</time>
      </trkpt>
      <trkpt lat="44.36518" lon="5.98437">
        <ele>848.98</ele>
        <time>2015-05-11T11:58:56Z</time>
      </trkpt>
      <trkpt lat="44.36518" lon="5.98437">
        <ele>845.14</ele>
        <time>2015-05-11T11:58:57Z</time>
      </trkpt>
      <trkpt lat="44.36518" lon="5.98437">
        <ele>851.38</ele>
        <time>2015-05-11T11:58:58Z</time>
      </trkpt>
      <trkpt lat="44.36518" lon="5.98437">
        <ele>843.21</ele>
        <time>2015-05-11T11:58:59Z</time>
      </trkpt>
      <trkpt lat="44.36518" lon="5.98437">
        <ele>848.98</ele>
        <time>2015-05-11T11:59:00Z</time>
      </trkpt>
      <trkpt lat="44.36519" lon="5.98439">
        <ele>845.14</ele>
        <time>2015-05-11T11:59:04Z</time>
      </trkpt>
      <trkpt lat="44.36519" lon="5.98439">
        <ele>848.5</ele>
        <time>2015-05-11T11:59:05Z</time>
      </trkpt>
      <trkpt lat="44.36518" lon="5.98443">
        <ele>852.35</ele>
        <time>2015-05-11T11:59:11Z</time>
      </trkpt>
      <trkpt lat="44.36518" lon="5.98443">
        <ele>851.38</ele>
        <time>2015-05-11T11:59:12Z</time>
      </trkpt>
      <trkpt lat="44.36518" lon="5.98445">
        <ele>847.06</ele>
        <time>2015-05-11T11:59:14Z</time>
      </trkpt>
      <trkpt lat="44.36517" lon="5.98446">
        <ele>847.54</ele>
        <time>2015-05-11T11:59:15Z</time>
      </trkpt>
      <trkpt lat="44.36517" lon="5.98447">
        <ele>853.79</ele>
        <time>2015-05-11T11:59:17Z</time>
      </trkpt>
      <trkpt lat="44.36516" lon="5.98448">
        <ele>849.46</ele>
        <time>2015-05-11T11:59:18Z</time>
      </trkpt>
      <trkpt lat="44.36516" lon="5.98448">
        <ele>853.31</ele>
        <time>2015-05-11T11:59:19Z</time>
      </trkpt>
      <trkpt lat="44.36516" lon="5.98449">
        <ele>847.06</ele>
        <time>2015-05-11T11:59:20Z</time>
      </trkpt>
      <trkpt lat="44.36516" lon="5.98449">
        <ele>851.38</ele>
        <time>2015-05-11T11:59:21Z</time>
      </trkpt>
      <trkpt lat="44.36516" lon="5.98451">
        <ele>857.63</ele>
        <time>2015-05-11T11:59:40Z</time>
      </trkpt>
      <trkpt lat="44.36516" lon="5.98451">
        <ele>852.35</ele>
        <time>2015-05-11T11:59:41Z</time>
      </trkpt>
      <trkpt lat="44.36516" lon="5.98451">
        <ele>852.35</ele>
        <time>2015-05-11T11:59:45Z</time>
      </trkpt>
      <trkpt lat="44.36517" lon="5.98453">
        <ele>852.83</ele>
        <time>2015-05-11T11:59:51Z</time>
      </trkpt>
      <trkpt lat="44.36518" lon="5.98457">
        <ele>849.94</ele>
        <time>2015-05-11T11:59:53Z</time>
      </trkpt>
      <trkpt lat="44.36518" lon="5.9846">
        <ele>854.27</ele>
        <time>2015-05-11T11:59:56Z</time>
      </trkpt>
      <trkpt lat="44.36517" lon="5.98461">
        <ele>853.79</ele>
        <time>2015-05-11T11:59:57Z</time>
      </trkpt>
      <trkpt lat="44.36517" lon="5.98465">
        <ele>858.59</ele>
        <time>2015-05-11T11:59:59Z</time>
      </trkpt>
      <trkpt lat="44.36517" lon="5.98466">
        <ele>851.87</ele>
        <time>2015-05-11T12:00:00Z</time>
      </trkpt>
      <trkpt lat="44.36518" lon="5.98469">
        <ele>854.27</ele>
        <time>2015-05-11T12:00:03Z</time>
      </trkpt>
      <trkpt lat="44.36519" lon="5.98471">
        <ele>858.59</ele>
        <time>2015-05-11T12:00:04Z</time>
      </trkpt>
      <trkpt lat="44.3652" lon="5.98472">
        <ele>855.23</ele>
        <time>2015-05-11T12:00:05Z</time>
      </trkpt>
      <trkpt lat="44.3652" lon="5.98473">
        <ele>850.9</ele>
        <time>2015-05-11T12:00:06Z</time>
      </trkpt>
      <trkpt lat="44.36521" lon="5.98474">
        <ele>851.38</ele>
        <time>2015-05-11T12:00:07Z</time>
      </trkpt>
      <trkpt lat="44.36521" lon="5.98474">
        <ele>856.67</ele>
        <time>2015-05-11T12:00:08Z</time>
      </trkpt>
      <trkpt lat="44.36522" lon="5.98475">
        <ele>859.56</ele>
        <time>2015-05-11T12:00:09Z</time>
      </trkpt>
      <trkpt lat="44.36522" lon="5.98475">
        <ele>851.87</ele>
        <time>2015-05-11T12:00:10Z</time>
      </trkpt>
      <trkpt lat="44.36523" lon="5.98475">
        <ele>855.23</ele>
        <time>2015-05-11T12:00:11Z</time>
      </trkpt>
      <trkpt lat="44.36524" lon="5.98476">
        <ele>855.71</ele>
        <time>2015-05-11T12:00:13Z</time>
      </trkpt>
      <trkpt lat="44.36525" lon="5.98476">
        <ele>854.75</ele>
        <time>2015-05-11T12:00:14Z</time>
      </trkpt>
      <trkpt lat="44.36527" lon="5.98477">
        <ele>856.67</ele>
        <time>2015-05-11T12:00:17Z</time>
      </trkpt>
      <trkpt lat="44.3653" lon="5.98478">
        <ele>850.9</ele>
        <time>2015-05-11T12:00:20Z</time>
      </trkpt>
      <trkpt lat="44.36531" lon="5.98479">
        <ele>854.27</ele>
        <time>2015-05-11T12:00:21Z</time>
      </trkpt>
      <trkpt lat="44.36534" lon="5.9848">
        <ele>858.59</ele>
        <time>2015-05-11T12:00:23Z</time>
      </trkpt>
      <trkpt lat="44.36535" lon="5.98481">
        <ele>857.15</ele>
        <time>2015-05-11T12:00:24Z</time>
      </trkpt>
      <trkpt lat="44.36543" lon="5.98483">
        <ele>856.67</ele>
        <time>2015-05-11T12:00:36Z</time>
      </trkpt>
      <trkpt lat="44.36544" lon="5.98485">
        <ele>861</ele>
        <time>2015-05-11T12:00:39Z</time>
      </trkpt>
      <trkpt lat="44.36544" lon="5.98485">
        <ele>856.67</ele>
        <time>2015-05-11T12:00:40Z</time>
      </trkpt>
      <trkpt lat="44.36547" lon="5.98488">
        <ele>861</ele>
        <time>2015-05-11T12:00:44Z</time>
      </trkpt>
      <trkpt lat="44.36548" lon="5.98488">
        <ele>864.36</ele>
        <time>2015-05-11T12:00:45Z</time>
      </trkpt>
      <trkpt lat="44.36549" lon="5.98489">
        <ele>855.23</ele>
        <time>2015-05-11T12:00:46Z</time>
      </trkpt>
      <trkpt lat="44.36549" lon="5.98489">
        <ele>856.67</ele>
        <time>2015-05-11T12:00:47Z</time>
      </trkpt>
      <trkpt lat="44.36549" lon="5.9849">
        <ele>856.67</ele>
        <time>2015-05-11T12:00:48Z</time>
      </trkpt>
      <trkpt lat="44.36551" lon="5.98493">
        <ele>865.32</ele>
        <time>2015-05-11T12:00:50Z</time>
      </trkpt>
      <trkpt lat="44.36552" lon="5.98494">
        <ele>864.84</ele>
        <time>2015-05-11T12:00:51Z</time>
      </trkpt>
      <trkpt lat="44.36553" lon="5.98495">
        <ele>853.31</ele>
        <time>2015-05-11T12:00:52Z</time>
      </trkpt>
      <trkpt lat="44.36553" lon="5.98495">
        <ele>858.59</ele>
        <time>2015-05-11T12:00:53Z</time>
      </trkpt>
      <trkpt lat="44.36555" lon="5.98497">
        <ele>861</ele>
        <time>2015-05-11T12:00:55Z</time>
      </trkpt>
      <trkpt lat="44.36559" lon="5.98501">
        <ele>858.59</ele>
        <time>2015-05-11T12:01:00Z</time>
      </trkpt>
      <trkpt lat="44.36563" lon="5.98503">
        <ele>865.8</ele>
        <time>2015-05-11T12:01:03Z</time>
      </trkpt>
      <trkpt lat="44.36563" lon="5.98504">
        <ele>862.92</ele>
        <time>2015-05-11T12:01:04Z</time>
      </trkpt>
      <trkpt lat="44.36564" lon="5.98505">
        <ele>859.08</ele>
        <time>2015-05-11T12:01:05Z</time>
      </trkpt>
      <trkpt lat="44.36566" lon="5.98508">
        <ele>865.32</ele>
        <time>2015-05-11T12:01:07Z</time>
      </trkpt>
      <trkpt lat="44.36568" lon="5.98511">
        <ele>860.04</ele>
        <time>2015-05-11T12:01:10Z</time>
      </trkpt>
      <trkpt lat="44.36569" lon="5.98512">
        <ele>861</ele>
        <time>2015-05-11T12:01:11Z</time>
      </trkpt>
      <trkpt lat="44.3657" lon="5.98515">
        <ele>866.77</ele>
        <time>2015-05-11T12:01:13Z</time>
      </trkpt>
      <trkpt lat="44.36571" lon="5.98516">
        <ele>855.71</ele>
        <time>2015-05-11T12:01:14Z</time>
      </trkpt>
      <trkpt lat="44.36572" lon="5.98518">
        <ele>861.48</ele>
        <time>2015-05-11T12:01:15Z</time>
      </trkpt>
      <trkpt lat="44.36573" lon="5.9852">
        <ele>865.32</ele>
        <time>2015-05-11T12:01:16Z</time>
      </trkpt>
      <trkpt lat="44.36574" lon="5.98522">
        <ele>866.77</ele>
        <time>2015-05-11T12:01:18Z</time>
      </trkpt>
      <trkpt lat="44.36575" lon="5.98523">
        <ele>862.44</ele>
        <time>2015-05-11T12:01:19Z</time>
      </trkpt>
      <trkpt lat="44.36576" lon="5.98524">
        <ele>860.52</ele>
        <time>2015-05-11T12:01:20Z</time>
      </trkpt>
      <trkpt lat="44.36579" lon="5.98523">
        <ele>854.27</ele>
        <time>2015-05-11T12:01:22Z</time>
      </trkpt>
      <trkpt lat="44.36579" lon="5.98523">
        <ele>860.04</ele>
        <time>2015-05-11T12:01:23Z</time>
      </trkpt>
      <trkpt lat="44.3658" lon="5.98524">
        <ele>867.25</ele>
        <time>2015-05-11T12:01:24Z</time>
      </trkpt>
      <trkpt lat="44.36581" lon="5.98524">
        <ele>860.04</ele>
        <time>2015-05-11T12:01:27Z</time>
      </trkpt>
      <trkpt lat="44.36583" lon="5.98526">
        <ele>867.73</ele>
        <time>2015-05-11T12:01:30Z</time>
      </trkpt>
      <trkpt lat="44.36584" lon="5.98527">
        <ele>859.08</ele>
        <time>2015-05-11T12:01:31Z</time>
      </trkpt>
      <trkpt lat="44.36584" lon="5.98528">
        <ele>861</ele>
        <time>2015-05-11T12:01:32Z</time>
      </trkpt>
      <trkpt lat="44.36585" lon="5.98529">
        <ele>862.44</ele>
        <time>2015-05-11T12:01:33Z</time>
      </trkpt>
      <trkpt lat="44.36587" lon="5.9853">
        <ele>867.25</ele>
        <time>2015-05-11T12:01:35Z</time>
      </trkpt>
      <trkpt lat="44.36588" lon="5.98531">
        <ele>871.09</ele>
        <time>2015-05-11T12:01:36Z</time>
      </trkpt>
      <trkpt lat="44.36588" lon="5.98532">
        <ele>867.73</ele>
        <time>2015-05-11T12:01:37Z</time>
      </trkpt>
      <trkpt lat="44.3659" lon="5.98534">
        <ele>861</ele>
        <time>2015-05-11T12:01:39Z</time>
      </trkpt>
      <trkpt lat="44.36591" lon="5.98535">
        <ele>864.84</ele>
        <time>2015-05-11T12:01:40Z</time>
      </trkpt>
      <trkpt lat="44.36591" lon="5.98536">
        <ele>865.8</ele>
        <time>2015-05-11T12:01:41Z</time>
      </trkpt>
      <trkpt lat="44.36592" lon="5.98536">
        <ele>872.05</ele>
        <time>2015-05-11T12:01:42Z</time>
      </trkpt>
      <trkpt lat="44.36592" lon="5.98537">
        <ele>868.21</ele>
        <time>2015-05-11T12:01:43Z</time>
      </trkpt>
      <trkpt lat="44.36595" lon="5.98538">
        <ele>862.92</ele>
        <time>2015-05-11T12:01:46Z</time>
      </trkpt>
      <trkpt lat="44.36596" lon="5.9854">
        <ele>862.92</ele>
        <time>2015-05-11T12:01:47Z</time>
      </trkpt>
      <trkpt lat="44.36597" lon="5.98541">
        <ele>860.04</ele>
        <time>2015-05-11T12:01:48Z</time>
      </trkpt>
      <trkpt lat="44.36598" lon="5.98542">
        <ele>865.32</ele>
        <time>2015-05-11T12:01:49Z</time>
      </trkpt>
      <trkpt lat="44.36599" lon="5.98543">
        <ele>868.69</ele>
        <time>2015-05-11T12:01:51Z</time>
      </trkpt>
      <trkpt lat="44.366" lon="5.98544">
        <ele>866.29</ele>
        <time>2015-05-11T12:01:52Z</time>
      </trkpt>
      <trkpt lat="44.36601" lon="5.98545">
        <ele>862.92</ele>
        <time>2015-05-11T12:01:53Z</time>
      </trkpt>
      <trkpt lat="44.36604" lon="5.98548">
        <ele>870.13</ele>
        <time>2015-05-11T12:01:56Z</time>
      </trkpt>
      <trkpt lat="44.36605" lon="5.98549">
        <ele>870.13</ele>
        <time>2015-05-11T12:01:57Z</time>
      </trkpt>
      <trkpt lat="44.36606" lon="5.9855">
        <ele>863.88</ele>
        <time>2015-05-11T12:01:58Z</time>
      </trkpt>
      <trkpt lat="44.36607" lon="5.98552">
        <ele>870.13</ele>
        <time>2015-05-11T12:02:00Z</time>
      </trkpt>
      <trkpt lat="44.3661" lon="5.98554">
        <ele>866.29</ele>
        <time>2015-05-11T12:02:03Z</time>
      </trkpt>
      <trkpt lat="44.36613" lon="5.98556">
        <ele>869.65</ele>
        <time>2015-05-11T12:02:06Z</time>
      </trkpt>
      <trkpt lat="44.36614" lon="5.98557">
        <ele>867.25</ele>
        <time>2015-05-11T12:02:08Z</time>
      </trkpt>
      <trkpt lat="44.36616" lon="5.98558">
        <ele>860.52</ele>
        <time>2015-05-11T12:02:10Z</time>
      </trkpt>
      <trkpt lat="44.36617" lon="5.98559">
        <ele>862.92</ele>
        <time>2015-05-11T12:02:11Z</time>
      </trkpt>
      <trkpt lat="44.36619" lon="5.98558">
        <ele>872.05</ele>
        <time>2015-05-11T12:02:13Z</time>
      </trkpt>
      <trkpt lat="44.3662" lon="5.98558">
        <ele>870.61</ele>
        <time>2015-05-11T12:02:14Z</time>
      </trkpt>
      <trkpt lat="44.3662" lon="5.98559">
        <ele>867.25</ele>
        <time>2015-05-11T12:02:15Z</time>
      </trkpt>
      <trkpt lat="44.36621" lon="5.98559">
        <ele>862.44</ele>
        <time>2015-05-11T12:02:16Z</time>
      </trkpt>
      <trkpt lat="44.36622" lon="5.98559">
        <ele>869.17</ele>
        <time>2015-05-11T12:02:17Z</time>
      </trkpt>
      <trkpt lat="44.36622" lon="5.98559">
        <ele>873.98</ele>
        <time>2015-05-11T12:02:18Z</time>
      </trkpt>
      <trkpt lat="44.36622" lon="5.9856">
        <ele>872.53</ele>
        <time>2015-05-11T12:02:19Z</time>
      </trkpt>
      <trkpt lat="44.36624" lon="5.98562">
        <ele>868.69</ele>
        <time>2015-05-11T12:02:21Z</time>
      </trkpt>
      <trkpt lat="44.36629" lon="5.98566">
        <ele>874.46</ele>
        <time>2015-05-11T12:02:27Z</time>
      </trkpt>
      <trkpt lat="44.3663" lon="5.98567">
        <ele>871.09</ele>
        <time>2015-05-11T12:02:28Z</time>
      </trkpt>
      <trkpt lat="44.36633" lon="5.98571">
        <ele>866.77</ele>
        <time>2015-05-11T12:02:33Z</time>
      </trkpt>
      <trkpt lat="44.36633" lon="5.98571">
        <ele>873.01</ele>
        <time>2015-05-11T12:02:34Z</time>
      </trkpt>
      <trkpt lat="44.36634" lon="5.98572">
        <ele>873.98</ele>
        <time>2015-05-11T12:02:35Z</time>
      </trkpt>
      <trkpt lat="44.36636" lon="5.98577">
        <ele>867.73</ele>
        <time>2015-05-11T12:02:38Z</time>
      </trkpt>
      <trkpt lat="44.36637" lon="5.98579">
        <ele>874.94</ele>
        <time>2015-05-11T12:02:41Z</time>
      </trkpt>
      <trkpt lat="44.36637" lon="5.9858">
        <ele>874.46</ele>
        <time>2015-05-11T12:02:42Z</time>
      </trkpt>
      <trkpt lat="44.36638" lon="5.9858">
        <ele>871.09</ele>
        <time>2015-05-11T12:02:43Z</time>
      </trkpt>
      <trkpt lat="44.36639" lon="5.9858">
        <ele>863.88</ele>
        <time>2015-05-11T12:02:44Z</time>
      </trkpt>
      <trkpt lat="44.3664" lon="5.98579">
        <ele>868.69</ele>
        <time>2015-05-11T12:02:45Z</time>
      </trkpt>
      <trkpt lat="44.36643" lon="5.98579">
        <ele>876.38</ele>
        <time>2015-05-11T12:02:48Z</time>
      </trkpt>
      <trkpt lat="44.36644" lon="5.98582">
        <ele>868.69</ele>
        <time>2015-05-11T12:02:50Z</time>
      </trkpt>
      <trkpt lat="44.36645" lon="5.98583">
        <ele>877.34</ele>
        <time>2015-05-11T12:02:52Z</time>
      </trkpt>
      <trkpt lat="44.36647" lon="5.98585">
        <ele>877.82</ele>
        <time>2015-05-11T12:02:54Z</time>
      </trkpt>
      <trkpt lat="44.3665" lon="5.98586">
        <ele>873.98</ele>
        <time>2015-05-11T12:02:56Z</time>
      </trkpt>
      <trkpt lat="44.3665" lon="5.98586">
        <ele>867.25</ele>
        <time>2015-05-11T12:02:57Z</time>
      </trkpt>
      <trkpt lat="44.3665" lon="5.98586">
        <ele>877.34</ele>
        <time>2015-05-11T12:02:58Z</time>
      </trkpt>
      <trkpt lat="44.36651" lon="5.98586">
        <ele>881.67</ele>
        <time>2015-05-11T12:02:59Z</time>
      </trkpt>
      <trkpt lat="44.36653" lon="5.98588">
        <ele>865.32</ele>
        <time>2015-05-11T12:03:02Z</time>
      </trkpt>
      <trkpt lat="44.36653" lon="5.98588">
        <ele>867.73</ele>
        <time>2015-05-11T12:03:03Z</time>
      </trkpt>
      <trkpt lat="44.36653" lon="5.98588">
        <ele>875.42</ele>
        <time>2015-05-11T12:03:04Z</time>
      </trkpt>
      <trkpt lat="44.36655" lon="5.9859">
        <ele>880.71</ele>
        <time>2015-05-11T12:03:05Z</time>
      </trkpt>
      <trkpt lat="44.36656" lon="5.98592">
        <ele>869.65</ele>
        <time>2015-05-11T12:03:07Z</time>
      </trkpt>
      <trkpt lat="44.36657" lon="5.98593">
        <ele>872.53</ele>
        <time>2015-05-11T12:03:08Z</time>
      </trkpt>
      <trkpt lat="44.36657" lon="5.98593">
        <ele>878.78</ele>
        <time>2015-05-11T12:03:09Z</time>
      </trkpt>
      <trkpt lat="44.3666" lon="5.98595">
        <ele>878.3</ele>
        <time>2015-05-11T12:03:14Z</time>
      </trkpt>
      <trkpt lat="44.36662" lon="5.98599">
        <ele>880.22</ele>
        <time>2015-05-11T12:03:17Z</time>
      </trkpt>
      <trkpt lat="44.36664" lon="5.98605">
        <ele>875.42</ele>
        <time>2015-05-11T12:03:21Z</time>
      </trkpt>
      <trkpt lat="44.36665" lon="5.98608">
        <ele>883.11</ele>
        <time>2015-05-11T12:03:24Z</time>
      </trkpt>
      <trkpt lat="44.36666" lon="5.9861">
        <ele>880.22</ele>
        <time>2015-05-11T12:03:25Z</time>
      </trkpt>
      <trkpt lat="44.36666" lon="5.98611">
        <ele>876.38</ele>
        <time>2015-05-11T12:03:26Z</time>
      </trkpt>
      <trkpt lat="44.36666" lon="5.98613">
        <ele>880.71</ele>
        <time>2015-05-11T12:03:27Z</time>
      </trkpt>
      <trkpt lat="44.36666" lon="5.98614">
        <ele>879.74</ele>
        <time>2015-05-11T12:03:28Z</time>
      </trkpt>
      <trkpt lat="44.36667" lon="5.98617">
        <ele>877.34</ele>
        <time>2015-05-11T12:03:30Z</time>
      </trkpt>
      <trkpt lat="44.36667" lon="5.98619">
        <ele>878.3</ele>
        <time>2015-05-11T12:03:31Z</time>
      </trkpt>
      <trkpt lat="44.36668" lon="5.98622">
        <ele>881.19</ele>
        <time>2015-05-11T12:03:33Z</time>
      </trkpt>
      <trkpt lat="44.36669" lon="5.98623">
        <ele>877.82</ele>
        <time>2015-05-11T12:03:34Z</time>
      </trkpt>
      <trkpt lat="44.3667" lon="5.98625">
        <ele>880.22</ele>
        <time>2015-05-11T12:03:36Z</time>
      </trkpt>
      <trkpt lat="44.36672" lon="5.98629">
        <ele>875.42</ele>
        <time>2015-05-11T12:03:39Z</time>
      </trkpt>
      <trkpt lat="44.36673" lon="5.9863">
        <ele>880.22</ele>
        <time>2015-05-11T12:03:40Z</time>
      </trkpt>
      <trkpt lat="44.36675" lon="5.98632">
        <ele>885.51</ele>
        <time>2015-05-11T12:03:42Z</time>
      </trkpt>
      <trkpt lat="44.36675" lon="5.98633">
        <ele>879.26</ele>
        <time>2015-05-11T12:03:43Z</time>
      </trkpt>
      <trkpt lat="44.36675" lon="5.98633">
        <ele>873.5</ele>
        <time>2015-05-11T12:03:44Z</time>
      </trkpt>
      <trkpt lat="44.36675" lon="5.98633">
        <ele>876.86</ele>
        <time>2015-05-11T12:03:45Z</time>
      </trkpt>
      <trkpt lat="44.36675" lon="5.98633">
        <ele>883.11</ele>
        <time>2015-05-11T12:03:46Z</time>
      </trkpt>
      <trkpt lat="44.36676" lon="5.98634">
        <ele>873.5</ele>
        <time>2015-05-11T12:03:47Z</time>
      </trkpt>
      <trkpt lat="44.36676" lon="5.98634">
        <ele>876.38</ele>
        <time>2015-05-11T12:03:48Z</time>
      </trkpt>
      <trkpt lat="44.36676" lon="5.98634">
        <ele>881.67</ele>
        <time>2015-05-11T12:03:49Z</time>
      </trkpt>
      <trkpt lat="44.36676" lon="5.98635">
        <ele>880.71</ele>
        <time>2015-05-11T12:03:50Z</time>
      </trkpt>
      <trkpt lat="44.36678" lon="5.98641">
        <ele>890.32</ele>
        <time>2015-05-11T12:03:55Z</time>
      </trkpt>
      <trkpt lat="44.36678" lon="5.98641">
        <ele>884.55</ele>
        <time>2015-05-11T12:03:56Z</time>
      </trkpt>
      <trkpt lat="44.36679" lon="5.98645">
        <ele>877.34</ele>
        <time>2015-05-11T12:03:59Z</time>
      </trkpt>
      <trkpt lat="44.36679" lon="5.98646">
        <ele>877.82</ele>
        <time>2015-05-11T12:04:00Z</time>
      </trkpt>
      <trkpt lat="44.3668" lon="5.98647">
        <ele>873.01</ele>
        <time>2015-05-11T12:04:02Z</time>
      </trkpt>
      <trkpt lat="44.3668" lon="5.98648">
        <ele>882.15</ele>
        <time>2015-05-11T12:04:03Z</time>
      </trkpt>
      <trkpt lat="44.3668" lon="5.9865">
        <ele>883.59</ele>
        <time>2015-05-11T12:04:05Z</time>
      </trkpt>
      <trkpt lat="44.3668" lon="5.98655">
        <ele>884.07</ele>
        <time>2015-05-11T12:04:08Z</time>
      </trkpt>
      <trkpt lat="44.3668" lon="5.98658">
        <ele>885.03</ele>
        <time>2015-05-11T12:04:10Z</time>
      </trkpt>
      <trkpt lat="44.3668" lon="5.98659">
        <ele>878.78</ele>
        <time>2015-05-11T12:04:11Z</time>
      </trkpt>
      <trkpt lat="44.3668" lon="5.9866">
        <ele>881.19</ele>
        <time>2015-05-11T12:04:12Z</time>
      </trkpt>
      <trkpt lat="44.36681" lon="5.98662">
        <ele>888.4</ele>
        <time>2015-05-11T12:04:13Z</time>
      </trkpt>
      <trkpt lat="44.36682" lon="5.98663">
        <ele>888.4</ele>
        <time>2015-05-11T12:04:14Z</time>
      </trkpt>
      <trkpt lat="44.36682" lon="5.98663">
        <ele>880.71</ele>
        <time>2015-05-11T12:04:15Z</time>
      </trkpt>
      <trkpt lat="44.36683" lon="5.98664">
        <ele>885.03</ele>
        <time>2015-05-11T12:04:16Z</time>
      </trkpt>
      <trkpt lat="44.36683" lon="5.98664">
        <ele>880.22</ele>
        <time>2015-05-11T12:04:18Z</time>
      </trkpt>
      <trkpt lat="44.36683" lon="5.98664">
        <ele>886.95</ele>
        <time>2015-05-11T12:04:19Z</time>
      </trkpt>
      <trkpt lat="44.36683" lon="5.98664">
        <ele>891.28</ele>
        <time>2015-05-11T12:04:21Z</time>
      </trkpt>
      <trkpt lat="44.36684" lon="5.98665">
        <ele>880.22</ele>
        <time>2015-05-11T12:04:22Z</time>
      </trkpt>
      <trkpt lat="44.36685" lon="5.98666">
        <ele>886.47</ele>
        <time>2015-05-11T12:04:23Z</time>
      </trkpt>
      <trkpt lat="44.36686" lon="5.98668">
        <ele>890.32</ele>
        <time>2015-05-11T12:04:24Z</time>
      </trkpt>
      <trkpt lat="44.36686" lon="5.98668">
        <ele>883.11</ele>
        <time>2015-05-11T12:04:25Z</time>
      </trkpt>
      <trkpt lat="44.36687" lon="5.98669">
        <ele>886.95</ele>
        <time>2015-05-11T12:04:26Z</time>
      </trkpt>
      <trkpt lat="44.36689" lon="5.98676">
        <ele>881.67</ele>
        <time>2015-05-11T12:04:32Z</time>
      </trkpt>
      <trkpt lat="44.36689" lon="5.98677">
        <ele>888.88</ele>
        <time>2015-05-11T12:04:33Z</time>
      </trkpt>
      <trkpt lat="44.36689" lon="5.98677">
        <ele>888.88</ele>
        <time>2015-05-11T12:04:34Z</time>
      </trkpt>
      <trkpt lat="44.3669" lon="5.98678">
        <ele>880.22</ele>
        <time>2015-05-11T12:04:37Z</time>
      </trkpt>
      <trkpt lat="44.3669" lon="5.98678">
        <ele>886.47</ele>
        <time>2015-05-11T12:04:38Z</time>
      </trkpt>
      <trkpt lat="44.36691" lon="5.98678">
        <ele>891.76</ele>
        <time>2015-05-11T12:04:40Z</time>
      </trkpt>
      <trkpt lat="44.36691" lon="5.98679">
        <ele>888.88</ele>
        <time>2015-05-11T12:04:42Z</time>
      </trkpt>
      <trkpt lat="44.36691" lon="5.9868">
        <ele>881.19</ele>
        <time>2015-05-11T12:04:43Z</time>
      </trkpt>
      <trkpt lat="44.36692" lon="5.9868">
        <ele>890.32</ele>
        <time>2015-05-11T12:04:44Z</time>
      </trkpt>
      <trkpt lat="44.36696" lon="5.98685">
        <ele>884.55</ele>
        <time>2015-05-11T12:04:52Z</time>
      </trkpt>
      <trkpt lat="44.36696" lon="5.98685">
        <ele>889.84</ele>
        <time>2015-05-11T12:04:53Z</time>
      </trkpt>
      <trkpt lat="44.36696" lon="5.98686">
        <ele>893.68</ele>
        <time>2015-05-11T12:04:55Z</time>
      </trkpt>
      <trkpt lat="44.36696" lon="5.98687">
        <ele>892.72</ele>
        <time>2015-05-11T12:04:57Z</time>
      </trkpt>
      <trkpt lat="44.36696" lon="5.98687">
        <ele>885.99</ele>
        <time>2015-05-11T12:04:58Z</time>
      </trkpt>
      <trkpt lat="44.36696" lon="5.98687">
        <ele>890.8</ele>
        <time>2015-05-11T12:04:59Z</time>
      </trkpt>
      <trkpt lat="44.36697" lon="5.98688">
        <ele>885.03</ele>
        <time>2015-05-11T12:05:02Z</time>
      </trkpt>
      <trkpt lat="44.36698" lon="5.98688">
        <ele>894.16</ele>
        <time>2015-05-11T12:05:03Z</time>
      </trkpt>
      <trkpt lat="44.36699" lon="5.98689">
        <ele>886.95</ele>
        <time>2015-05-11T12:05:04Z</time>
      </trkpt>
      <trkpt lat="44.36699" lon="5.98689">
        <ele>891.28</ele>
        <time>2015-05-11T12:05:06Z</time>
      </trkpt>
      <trkpt lat="44.36699" lon="5.98689">
        <ele>886.95</ele>
        <time>2015-05-11T12:05:07Z</time>
      </trkpt>
      <trkpt lat="44.367" lon="5.9869">
        <ele>892.72</ele>
        <time>2015-05-11T12:05:08Z</time>
      </trkpt>
      <trkpt lat="44.36701" lon="5.9869">
        <ele>886.95</ele>
        <time>2015-05-11T12:05:09Z</time>
      </trkpt>
      <trkpt lat="44.36702" lon="5.98691">
        <ele>890.8</ele>
        <time>2015-05-11T12:05:10Z</time>
      </trkpt>
      <trkpt lat="44.36703" lon="5.98691">
        <ele>882.15</ele>
        <time>2015-05-11T12:05:12Z</time>
      </trkpt>
      <trkpt lat="44.36703" lon="5.98691">
        <ele>894.16</ele>
        <time>2015-05-11T12:05:13Z</time>
      </trkpt>
      <trkpt lat="44.36703" lon="5.98691">
        <ele>886.47</ele>
        <time>2015-05-11T12:05:15Z</time>
      </trkpt>
      <trkpt lat="44.36703" lon="5.98691">
        <ele>893.2</ele>
        <time>2015-05-11T12:05:16Z</time>
      </trkpt>
      <trkpt lat="44.36705" lon="5.98691">
        <ele>899.93</ele>
        <time>2015-05-11T12:05:18Z</time>
      </trkpt>
      <trkpt lat="44.36706" lon="5.98691">
        <ele>892.24</ele>
        <time>2015-05-11T12:05:19Z</time>
      </trkpt>
      <trkpt lat="44.36708" lon="5.98693">
        <ele>896.09</ele>
        <time>2015-05-11T12:05:23Z</time>
      </trkpt>
      <trkpt lat="44.36708" lon="5.98693">
        <ele>890.8</ele>
        <time>2015-05-11T12:05:24Z</time>
      </trkpt>
      <trkpt lat="44.36709" lon="5.98693">
        <ele>892.72</ele>
        <time>2015-05-11T12:05:25Z</time>
      </trkpt>
      <trkpt lat="44.36712" lon="5.98695">
        <ele>880.22</ele>
        <time>2015-05-11T12:05:29Z</time>
      </trkpt>
      <trkpt lat="44.36712" lon="5.98695">
        <ele>896.09</ele>
        <time>2015-05-11T12:05:30Z</time>
      </trkpt>
      <trkpt lat="44.36713" lon="5.98696">
        <ele>891.76</ele>
        <time>2015-05-11T12:05:32Z</time>
      </trkpt>
      <trkpt lat="44.36714" lon="5.98697">
        <ele>896.09</ele>
        <time>2015-05-11T12:05:33Z</time>
      </trkpt>
      <trkpt lat="44.36716" lon="5.98699">
        <ele>889.36</ele>
        <time>2015-05-11T12:05:38Z</time>
      </trkpt>
      <trkpt lat="44.36716" lon="5.98699">
        <ele>898.97</ele>
        <time>2015-05-11T12:05:39Z</time>
      </trkpt>
      <trkpt lat="44.36717" lon="5.987">
        <ele>890.8</ele>
        <time>2015-05-11T12:05:41Z</time>
      </trkpt>
      <trkpt lat="44.36718" lon="5.98701">
        <ele>886.47</ele>
        <time>2015-05-11T12:05:42Z</time>
      </trkpt>
      <trkpt lat="44.36718" lon="5.98701">
        <ele>895.61</ele>
        <time>2015-05-11T12:05:43Z</time>
      </trkpt>
      <trkpt lat="44.36718" lon="5.98702">
        <ele>892.24</ele>
        <time>2015-05-11T12:05:45Z</time>
      </trkpt>
      <trkpt lat="44.36719" lon="5.98703">
        <ele>896.09</ele>
        <time>2015-05-11T12:05:48Z</time>
      </trkpt>
      <trkpt lat="44.36719" lon="5.98703">
        <ele>892.72</ele>
        <time>2015-05-11T12:05:49Z</time>
      </trkpt>
      <trkpt lat="44.36719" lon="5.98703">
        <ele>896.57</ele>
        <time>2015-05-11T12:05:50Z</time>
      </trkpt>
      <trkpt lat="44.36719" lon="5.98703">
        <ele>899.45</ele>
        <time>2015-05-11T12:05:51Z</time>
      </trkpt>
      <trkpt lat="44.3672" lon="5.98704">
        <ele>892.72</ele>
        <time>2015-05-11T12:05:52Z</time>
      </trkpt>
      <trkpt lat="44.36721" lon="5.98705">
        <ele>897.05</ele>
        <time>2015-05-11T12:05:53Z</time>
      </trkpt>
      <trkpt lat="44.36721" lon="5.98705">
        <ele>889.36</ele>
        <time>2015-05-11T12:05:54Z</time>
      </trkpt>
      <trkpt lat="44.36722" lon="5.98706">
        <ele>900.41</ele>
        <time>2015-05-11T12:05:55Z</time>
      </trkpt>
      <trkpt lat="44.36723" lon="5.98707">
        <ele>897.05</ele>
        <time>2015-05-11T12:05:57Z</time>
      </trkpt>
      <trkpt lat="44.36723" lon="5.98707">
        <ele>897.53</ele>
        <time>2015-05-11T12:05:58Z</time>
      </trkpt>
      <trkpt lat="44.36723" lon="5.98707">
        <ele>891.28</ele>
        <time>2015-05-11T12:05:59Z</time>
      </trkpt>
      <trkpt lat="44.36723" lon="5.98707">
        <ele>898.97</ele>
        <time>2015-05-11T12:06:00Z</time>
      </trkpt>
      <trkpt lat="44.36725" lon="5.98708">
        <ele>902.33</ele>
        <time>2015-05-11T12:06:02Z</time>
      </trkpt>
      <trkpt lat="44.36725" lon="5.98709">
        <ele>890.8</ele>
        <time>2015-05-11T12:06:03Z</time>
      </trkpt>
      <trkpt lat="44.36726" lon="5.9871">
        <ele>898.01</ele>
        <time>2015-05-11T12:06:04Z</time>
      </trkpt>
      <trkpt lat="44.36727" lon="5.9871">
        <ele>894.64</ele>
        <time>2015-05-11T12:06:05Z</time>
      </trkpt>
      <trkpt lat="44.36727" lon="5.98711">
        <ele>899.45</ele>
        <time>2015-05-11T12:06:07Z</time>
      </trkpt>
      <trkpt lat="44.36728" lon="5.98711">
        <ele>898.97</ele>
        <time>2015-05-11T12:06:08Z</time>
      </trkpt>
      <trkpt lat="44.36728" lon="5.98712">
        <ele>903.3</ele>
        <time>2015-05-11T12:06:10Z</time>
      </trkpt>
      <trkpt lat="44.36728" lon="5.98712">
        <ele>894.64</ele>
        <time>2015-05-11T12:06:11Z</time>
      </trkpt>
      <trkpt lat="44.36728" lon="5.98712">
        <ele>899.93</ele>
        <time>2015-05-11T12:06:12Z</time>
      </trkpt>
      <trkpt lat="44.36729" lon="5.98713">
        <ele>889.84</ele>
        <time>2015-05-11T12:06:14Z</time>
      </trkpt>
      <trkpt lat="44.36729" lon="5.98713">
        <ele>902.33</ele>
        <time>2015-05-11T12:06:15Z</time>
      </trkpt>
      <trkpt lat="44.36729" lon="5.98713">
        <ele>890.32</ele>
        <time>2015-05-11T12:06:16Z</time>
      </trkpt>
      <trkpt lat="44.36729" lon="5.98712">
        <ele>898.97</ele>
        <time>2015-05-11T12:06:17Z</time>
      </trkpt>
      <trkpt lat="44.36729" lon="5.98712">
        <ele>902.82</ele>
        <time>2015-05-11T12:06:18Z</time>
      </trkpt>
      <trkpt lat="44.3673" lon="5.98712">
        <ele>897.05</ele>
        <time>2015-05-11T12:06:19Z</time>
      </trkpt>
      <trkpt lat="44.3673" lon="5.98712">
        <ele>900.41</ele>
        <time>2015-05-11T12:06:20Z</time>
      </trkpt>
      <trkpt lat="44.36732" lon="5.98709">
        <ele>894.16</ele>
        <time>2015-05-11T12:06:28Z</time>
      </trkpt>
      <trkpt lat="44.36732" lon="5.98709">
        <ele>902.82</ele>
        <time>2015-05-11T12:06:29Z</time>
      </trkpt>
      <trkpt lat="44.36733" lon="5.98708">
        <ele>898.49</ele>
        <time>2015-05-11T12:06:30Z</time>
      </trkpt>
      <trkpt lat="44.36733" lon="5.98708">
        <ele>905.22</ele>
        <time>2015-05-11T12:06:32Z</time>
      </trkpt>
      <trkpt lat="44.36733" lon="5.98708">
        <ele>896.57</ele>
        <time>2015-05-11T12:06:33Z</time>
      </trkpt>
      <trkpt lat="44.36733" lon="5.98708">
        <ele>901.37</ele>
        <time>2015-05-11T12:06:34Z</time>
      </trkpt>
      <trkpt lat="44.36733" lon="5.98708">
        <ele>897.05</ele>
        <time>2015-05-11T12:06:35Z</time>
      </trkpt>
      <trkpt lat="44.36733" lon="5.98707">
        <ele>902.33</ele>
        <time>2015-05-11T12:06:36Z</time>
      </trkpt>
      <trkpt lat="44.36733" lon="5.98707">
        <ele>910.99</ele>
        <time>2015-05-11T12:06:37Z</time>
      </trkpt>
      <trkpt lat="44.36734" lon="5.98706">
        <ele>905.22</ele>
        <time>2015-05-11T12:06:38Z</time>
      </trkpt>
      <trkpt lat="44.36735" lon="5.98704">
        <ele>900.41</ele>
        <time>2015-05-11T12:06:40Z</time>
      </trkpt>
      <trkpt lat="44.36736" lon="5.98704">
        <ele>903.78</ele>
        <time>2015-05-11T12:06:41Z</time>
      </trkpt>
      <trkpt lat="44.36736" lon="5.98704">
        <ele>898.01</ele>
        <time>2015-05-11T12:06:42Z</time>
      </trkpt>
      <trkpt lat="44.36736" lon="5.98704">
        <ele>907.14</ele>
        <time>2015-05-11T12:06:43Z</time>
      </trkpt>
      <trkpt lat="44.36737" lon="5.98703">
        <ele>897.05</ele>
        <time>2015-05-11T12:06:44Z</time>
      </trkpt>
      <trkpt lat="44.36737" lon="5.98703">
        <ele>907.62</ele>
        <time>2015-05-11T12:06:45Z</time>
      </trkpt>
      <trkpt lat="44.36737" lon="5.98703">
        <ele>911.47</ele>
        <time>2015-05-11T12:06:46Z</time>
      </trkpt>
      <trkpt lat="44.36737" lon="5.98703">
        <ele>902.33</ele>
        <time>2015-05-11T12:06:47Z</time>
      </trkpt>
      <trkpt lat="44.36737" lon="5.98703">
        <ele>905.22</ele>
        <time>2015-05-11T12:06:48Z</time>
      </trkpt>
      <trkpt lat="44.36737" lon="5.98703">
        <ele>899.93</ele>
        <time>2015-05-11T12:06:49Z</time>
      </trkpt>
      <trkpt lat="44.36737" lon="5.98703">
        <ele>907.62</ele>
        <time>2015-05-11T12:06:50Z</time>
      </trkpt>
      <trkpt lat="44.36737" lon="5.98703">
        <ele>902.33</ele>
        <time>2015-05-11T12:06:51Z</time>
      </trkpt>
      <trkpt lat="44.36738" lon="5.98703">
        <ele>906.18</ele>
        <time>2015-05-11T12:06:52Z</time>
      </trkpt>
      <trkpt lat="44.36738" lon="5.98703">
        <ele>898.97</ele>
        <time>2015-05-11T12:06:55Z</time>
      </trkpt>
      <trkpt lat="44.36738" lon="5.98703">
        <ele>905.22</ele>
        <time>2015-05-11T12:06:56Z</time>
      </trkpt>
      <trkpt lat="44.36738" lon="5.98702">
        <ele>901.85</ele>
        <time>2015-05-11T12:06:58Z</time>
      </trkpt>
      <trkpt lat="44.36739" lon="5.98701">
        <ele>905.22</ele>
        <time>2015-05-11T12:07:01Z</time>
      </trkpt>
      <trkpt lat="44.36739" lon="5.98701">
        <ele>910.03</ele>
        <time>2015-05-11T12:07:03Z</time>
      </trkpt>
      <trkpt lat="44.36739" lon="5.98701">
        <ele>904.26</ele>
        <time>2015-05-11T12:07:04Z</time>
      </trkpt>
      <trkpt lat="44.36739" lon="5.98699">
        <ele>909.06</ele>
        <time>2015-05-11T12:07:08Z</time>
      </trkpt>
      <trkpt lat="44.36739" lon="5.98699">
        <ele>908.1</ele>
        <time>2015-05-11T12:07:09Z</time>
      </trkpt>
      <trkpt lat="44.36738" lon="5.98698">
        <ele>903.3</ele>
        <time>2015-05-11T12:07:14Z</time>
      </trkpt>
      <trkpt lat="44.36738" lon="5.98697">
        <ele>908.1</ele>
        <time>2015-05-11T12:07:15Z</time>
      </trkpt>
      <trkpt lat="44.36738" lon="5.98697">
        <ele>904.74</ele>
        <time>2015-05-11T12:07:16Z</time>
      </trkpt>
      <trkpt lat="44.36739" lon="5.98697">
        <ele>908.1</ele>
        <time>2015-05-11T12:07:17Z</time>
      </trkpt>
      <trkpt lat="44.36739" lon="5.98696">
        <ele>904.74</ele>
        <time>2015-05-11T12:07:18Z</time>
      </trkpt>
      <trkpt lat="44.3674" lon="5.98696">
        <ele>907.62</ele>
        <time>2015-05-11T12:07:19Z</time>
      </trkpt>
      <trkpt lat="44.3674" lon="5.98696">
        <ele>902.82</ele>
        <time>2015-05-11T12:07:21Z</time>
      </trkpt>
      <trkpt lat="44.3674" lon="5.98695">
        <ele>910.99</ele>
        <time>2015-05-11T12:07:22Z</time>
      </trkpt>
      <trkpt lat="44.3674" lon="5.98695">
        <ele>904.26</ele>
        <time>2015-05-11T12:07:25Z</time>
      </trkpt>
      <trkpt lat="44.3674" lon="5.98695">
        <ele>909.54</ele>
        <time>2015-05-11T12:07:26Z</time>
      </trkpt>
      <trkpt lat="44.36742" lon="5.98691">
        <ele>905.7</ele>
        <time>2015-05-11T12:07:38Z</time>
      </trkpt>
      <trkpt lat="44.36743" lon="5.9869">
        <ele>912.91</ele>
        <time>2015-05-11T12:07:39Z</time>
      </trkpt>
      <trkpt lat="44.36744" lon="5.98689">
        <ele>908.1</ele>
        <time>2015-05-11T12:07:40Z</time>
      </trkpt>
      <trkpt lat="44.36745" lon="5.98688">
        <ele>914.83</ele>
        <time>2015-05-11T12:07:41Z</time>
      </trkpt>
      <trkpt lat="44.36745" lon="5.98687">
        <ele>906.66</ele>
        <time>2015-05-11T12:07:42Z</time>
      </trkpt>
      <trkpt lat="44.36746" lon="5.98686">
        <ele>912.91</ele>
        <time>2015-05-11T12:07:43Z</time>
      </trkpt>
      <trkpt lat="44.36746" lon="5.98684">
        <ele>908.58</ele>
        <time>2015-05-11T12:07:44Z</time>
      </trkpt>
      <trkpt lat="44.36746" lon="5.98683">
        <ele>912.43</ele>
        <time>2015-05-11T12:07:45Z</time>
      </trkpt>
      <trkpt lat="44.36746" lon="5.98682">
        <ele>915.31</ele>
        <time>2015-05-11T12:07:50Z</time>
      </trkpt>
      <trkpt lat="44.36746" lon="5.98681">
        <ele>910.99</ele>
        <time>2015-05-11T12:07:52Z</time>
      </trkpt>
      <trkpt lat="44.36746" lon="5.98681">
        <ele>911.95</ele>
        <time>2015-05-11T12:07:53Z</time>
      </trkpt>
      <trkpt lat="44.36745" lon="5.9868">
        <ele>901.85</ele>
        <time>2015-05-11T12:07:54Z</time>
      </trkpt>
      <trkpt lat="44.36745" lon="5.98679">
        <ele>915.79</ele>
        <time>2015-05-11T12:07:55Z</time>
      </trkpt>
      <trkpt lat="44.36745" lon="5.98678">
        <ele>914.83</ele>
        <time>2015-05-11T12:07:56Z</time>
      </trkpt>
      <trkpt lat="44.36745" lon="5.98678">
        <ele>909.54</ele>
        <time>2015-05-11T12:07:57Z</time>
      </trkpt>
      <trkpt lat="44.36745" lon="5.98678">
        <ele>910.99</ele>
        <time>2015-05-11T12:07:58Z</time>
      </trkpt>
      <trkpt lat="44.36745" lon="5.98678">
        <ele>902.82</ele>
        <time>2015-05-11T12:08:00Z</time>
      </trkpt>
      <trkpt lat="44.36745" lon="5.98678">
        <ele>918.2</ele>
        <time>2015-05-11T12:08:01Z</time>
      </trkpt>
      <trkpt lat="44.36745" lon="5.98678">
        <ele>913.87</ele>
        <time>2015-05-11T12:08:02Z</time>
      </trkpt>
      <trkpt lat="44.36745" lon="5.98675">
        <ele>909.54</ele>
        <time>2015-05-11T12:08:06Z</time>
      </trkpt>
      <trkpt lat="44.36745" lon="5.98675">
        <ele>916.75</ele>
        <time>2015-05-11T12:08:07Z</time>
      </trkpt>
      <trkpt lat="44.36744" lon="5.98675">
        <ele>904.74</ele>
        <time>2015-05-11T12:08:08Z</time>
      </trkpt>
      <trkpt lat="44.36743" lon="5.98674">
        <ele>917.24</ele>
        <time>2015-05-11T12:08:09Z</time>
      </trkpt>
      <trkpt lat="44.36743" lon="5.98674">
        <ele>914.35</ele>
        <time>2015-05-11T12:08:10Z</time>
      </trkpt>
      <trkpt lat="44.36742" lon="5.98673">
        <ele>909.06</ele>
        <time>2015-05-11T12:08:12Z</time>
      </trkpt>
      <trkpt lat="44.36741" lon="5.98673">
        <ele>918.68</ele>
        <time>2015-05-11T12:08:13Z</time>
      </trkpt>
      <trkpt lat="44.36741" lon="5.98673">
        <ele>909.06</ele>
        <time>2015-05-11T12:08:14Z</time>
      </trkpt>
      <trkpt lat="44.36741" lon="5.98672">
        <ele>913.39</ele>
        <time>2015-05-11T12:08:15Z</time>
      </trkpt>
      <trkpt lat="44.36738" lon="5.9867">
        <ele>918.68</ele>
        <time>2015-05-11T12:08:20Z</time>
      </trkpt>
      <trkpt lat="44.36738" lon="5.98669">
        <ele>910.51</ele>
        <time>2015-05-11T12:08:21Z</time>
      </trkpt>
      <trkpt lat="44.36738" lon="5.98668">
        <ele>916.27</ele>
        <time>2015-05-11T12:08:22Z</time>
      </trkpt>
      <trkpt lat="44.36738" lon="5.98667">
        <ele>910.03</ele>
        <time>2015-05-11T12:08:23Z</time>
      </trkpt>
      <trkpt lat="44.36738" lon="5.98667">
        <ele>916.27</ele>
        <time>2015-05-11T12:08:24Z</time>
      </trkpt>
      <trkpt lat="44.36738" lon="5.98662">
        <ele>911.47</ele>
        <time>2015-05-11T12:08:29Z</time>
      </trkpt>
      <trkpt lat="44.36738" lon="5.98662">
        <ele>916.75</ele>
        <time>2015-05-11T12:08:30Z</time>
      </trkpt>
      <trkpt lat="44.36739" lon="5.98659">
        <ele>920.6</ele>
        <time>2015-05-11T12:08:38Z</time>
      </trkpt>
      <trkpt lat="44.36739" lon="5.98659">
        <ele>911.47</ele>
        <time>2015-05-11T12:08:39Z</time>
      </trkpt>
      <trkpt lat="44.36739" lon="5.98659">
        <ele>920.6</ele>
        <time>2015-05-11T12:08:40Z</time>
      </trkpt>
      <trkpt lat="44.3674" lon="5.98658">
        <ele>907.14</ele>
        <time>2015-05-11T12:08:41Z</time>
      </trkpt>
      <trkpt lat="44.3674" lon="5.98658">
        <ele>916.75</ele>
        <time>2015-05-11T12:08:42Z</time>
      </trkpt>
      <trkpt lat="44.36741" lon="5.98658">
        <ele>908.58</ele>
        <time>2015-05-11T12:08:44Z</time>
      </trkpt>
      <trkpt lat="44.36741" lon="5.98658">
        <ele>919.16</ele>
        <time>2015-05-11T12:08:45Z</time>
      </trkpt>
      <trkpt lat="44.36742" lon="5.98658">
        <ele>913.39</ele>
        <time>2015-05-11T12:08:46Z</time>
      </trkpt>
      <trkpt lat="44.36742" lon="5.98658">
        <ele>919.64</ele>
        <time>2015-05-11T12:08:47Z</time>
      </trkpt>
      <trkpt lat="44.36742" lon="5.98658">
        <ele>924.93</ele>
        <time>2015-05-11T12:08:48Z</time>
      </trkpt>
      <trkpt lat="44.36742" lon="5.98658">
        <ele>914.83</ele>
        <time>2015-05-11T12:08:49Z</time>
      </trkpt>
      <trkpt lat="44.36742" lon="5.98658">
        <ele>919.64</ele>
        <time>2015-05-11T12:08:50Z</time>
      </trkpt>
      <trkpt lat="44.36742" lon="5.98658">
        <ele>915.31</ele>
        <time>2015-05-11T12:08:51Z</time>
      </trkpt>
      <trkpt lat="44.36742" lon="5.98658">
        <ele>918.2</ele>
        <time>2015-05-11T12:08:52Z</time>
      </trkpt>
      <trkpt lat="44.36742" lon="5.98658">
        <ele>922.52</ele>
        <time>2015-05-11T12:08:53Z</time>
      </trkpt>
      <trkpt lat="44.36742" lon="5.98658">
        <ele>917.24</ele>
        <time>2015-05-11T12:08:54Z</time>
      </trkpt>
      <trkpt lat="44.36742" lon="5.98657">
        <ele>921.56</ele>
        <time>2015-05-11T12:09:04Z</time>
      </trkpt>
      <trkpt lat="44.36742" lon="5.98654">
        <ele>918.2</ele>
        <time>2015-05-11T12:09:06Z</time>
      </trkpt>
      <trkpt lat="44.36743" lon="5.98651">
        <ele>922.04</ele>
        <time>2015-05-11T12:09:09Z</time>
      </trkpt>
      <trkpt lat="44.36743" lon="5.98651">
        <ele>916.75</ele>
        <time>2015-05-11T12:09:10Z</time>
      </trkpt>
      <trkpt lat="44.36743" lon="5.98651">
        <ele>921.08</ele>
        <time>2015-05-11T12:09:11Z</time>
      </trkpt>
      <trkpt lat="44.36743" lon="5.98651">
        <ele>911.95</ele>
        <time>2015-05-11T12:09:13Z</time>
      </trkpt>
      <trkpt lat="44.36743" lon="5.98651">
        <ele>922.52</ele>
        <time>2015-05-11T12:09:14Z</time>
      </trkpt>
      <trkpt lat="44.36744" lon="5.98651">
        <ele>922.04</ele>
        <time>2015-05-11T12:09:15Z</time>
      </trkpt>
      <trkpt lat="44.36745" lon="5.9865">
        <ele>920.6</ele>
        <time>2015-05-11T12:09:18Z</time>
      </trkpt>
      <trkpt lat="44.36745" lon="5.98649">
        <ele>923.48</ele>
        <time>2015-05-11T12:09:23Z</time>
      </trkpt>
      <trkpt lat="44.36745" lon="5.98649">
        <ele>918.68</ele>
        <time>2015-05-11T12:09:25Z</time>
      </trkpt>
      <trkpt lat="44.36745" lon="5.98649">
        <ele>922.52</ele>
        <time>2015-05-11T12:09:27Z</time>
      </trkpt>
      <trkpt lat="44.36745" lon="5.98649">
        <ele>910.51</ele>
        <time>2015-05-11T12:09:31Z</time>
      </trkpt>
      <trkpt lat="44.36745" lon="5.98648">
        <ele>927.81</ele>
        <time>2015-05-11T12:09:32Z</time>
      </trkpt>
      <trkpt lat="44.36745" lon="5.98648">
        <ele>923</ele>
        <time>2015-05-11T12:09:33Z</time>
      </trkpt>
      <trkpt lat="44.36748" lon="5.98646">
        <ele>925.89</ele>
        <time>2015-05-11T12:09:36Z</time>
      </trkpt>
      <trkpt lat="44.36748" lon="5.98646">
        <ele>916.27</ele>
        <time>2015-05-11T12:09:37Z</time>
      </trkpt>
      <trkpt lat="44.36748" lon="5.98646">
        <ele>922.04</ele>
        <time>2015-05-11T12:09:38Z</time>
      </trkpt>
      <trkpt lat="44.3675" lon="5.98644">
        <ele>928.77</ele>
        <time>2015-05-11T12:09:39Z</time>
      </trkpt>
      <trkpt lat="44.3675" lon="5.98641">
        <ele>922.04</ele>
        <time>2015-05-11T12:09:40Z</time>
      </trkpt>
      <trkpt lat="44.36752" lon="5.9864">
        <ele>925.89</ele>
        <time>2015-05-11T12:09:41Z</time>
      </trkpt>
      <trkpt lat="44.36753" lon="5.98639">
        <ele>924.45</ele>
        <time>2015-05-11T12:09:44Z</time>
      </trkpt>
      <trkpt lat="44.36755" lon="5.98638">
        <ele>927.33</ele>
        <time>2015-05-11T12:09:49Z</time>
      </trkpt>
      <trkpt lat="44.36756" lon="5.98637">
        <ele>920.12</ele>
        <time>2015-05-11T12:09:51Z</time>
      </trkpt>
      <trkpt lat="44.36756" lon="5.98637">
        <ele>928.29</ele>
        <time>2015-05-11T12:09:52Z</time>
      </trkpt>
      <trkpt lat="44.36756" lon="5.98637">
        <ele>910.03</ele>
        <time>2015-05-11T12:09:53Z</time>
      </trkpt>
      <trkpt lat="44.36756" lon="5.98637">
        <ele>930.21</ele>
        <time>2015-05-11T12:09:54Z</time>
      </trkpt>
      <trkpt lat="44.36756" lon="5.98637">
        <ele>929.73</ele>
        <time>2015-05-11T12:09:55Z</time>
      </trkpt>
      <trkpt lat="44.36756" lon="5.98637">
        <ele>926.37</ele>
        <time>2015-05-11T12:09:56Z</time>
      </trkpt>
      <trkpt lat="44.36756" lon="5.98637">
        <ele>926.85</ele>
        <time>2015-05-11T12:09:57Z</time>
      </trkpt>
      <trkpt lat="44.36755" lon="5.98636">
        <ele>932.14</ele>
        <time>2015-05-11T12:10:00Z</time>
      </trkpt>
      <trkpt lat="44.36755" lon="5.98636">
        <ele>928.29</ele>
        <time>2015-05-11T12:10:01Z</time>
      </trkpt>
      <trkpt lat="44.36755" lon="5.98634">
        <ele>920.12</ele>
        <time>2015-05-11T12:10:02Z</time>
      </trkpt>
      <trkpt lat="44.36756" lon="5.98632">
        <ele>927.81</ele>
        <time>2015-05-11T12:10:03Z</time>
      </trkpt>
      <trkpt lat="44.36756" lon="5.98627">
        <ele>916.75</ele>
        <time>2015-05-11T12:10:07Z</time>
      </trkpt>
      <trkpt lat="44.36756" lon="5.98627">
        <ele>928.29</ele>
        <time>2015-05-11T12:10:08Z</time>
      </trkpt>
      <trkpt lat="44.36757" lon="5.98626">
        <ele>921.08</ele>
        <time>2015-05-11T12:10:09Z</time>
      </trkpt>
      <trkpt lat="44.36757" lon="5.98625">
        <ele>925.89</ele>
        <time>2015-05-11T12:10:10Z</time>
      </trkpt>
      <trkpt lat="44.36757" lon="5.98625">
        <ele>930.69</ele>
        <time>2015-05-11T12:10:11Z</time>
      </trkpt>
      <trkpt lat="44.36758" lon="5.98622">
        <ele>922.04</ele>
        <time>2015-05-11T12:10:13Z</time>
      </trkpt>
      <trkpt lat="44.36758" lon="5.98621">
        <ele>929.73</ele>
        <time>2015-05-11T12:10:14Z</time>
      </trkpt>
      <trkpt lat="44.36759" lon="5.9862">
        <ele>924.93</ele>
        <time>2015-05-11T12:10:15Z</time>
      </trkpt>
      <trkpt lat="44.36759" lon="5.9862">
        <ele>929.73</ele>
        <time>2015-05-11T12:10:16Z</time>
      </trkpt>
      <trkpt lat="44.36759" lon="5.98619">
        <ele>923.48</ele>
        <time>2015-05-11T12:10:18Z</time>
      </trkpt>
      <trkpt lat="44.3676" lon="5.98619">
        <ele>925.89</ele>
        <time>2015-05-11T12:10:19Z</time>
      </trkpt>
      <trkpt lat="44.36761" lon="5.98619">
        <ele>929.73</ele>
        <time>2015-05-11T12:10:20Z</time>
      </trkpt>
      <trkpt lat="44.36766" lon="5.98615">
        <ele>922.52</ele>
        <time>2015-05-11T12:10:28Z</time>
      </trkpt>
      <trkpt lat="44.36767" lon="5.98615">
        <ele>927.33</ele>
        <time>2015-05-11T12:10:29Z</time>
      </trkpt>
      <trkpt lat="44.36768" lon="5.98616">
        <ele>926.85</ele>
        <time>2015-05-11T12:10:31Z</time>
      </trkpt>
      <trkpt lat="44.36768" lon="5.98616">
        <ele>930.69</ele>
        <time>2015-05-11T12:10:32Z</time>
      </trkpt>
      <trkpt lat="44.36772" lon="5.98615">
        <ele>934.54</ele>
        <time>2015-05-11T12:10:37Z</time>
      </trkpt>
      <trkpt lat="44.36773" lon="5.98615">
        <ele>924.93</ele>
        <time>2015-05-11T12:10:38Z</time>
      </trkpt>
      <trkpt lat="44.36774" lon="5.98615">
        <ele>930.21</ele>
        <time>2015-05-11T12:10:39Z</time>
      </trkpt>
      <trkpt lat="44.36775" lon="5.98615">
        <ele>933.58</ele>
        <time>2015-05-11T12:10:40Z</time>
      </trkpt>
      <trkpt lat="44.36775" lon="5.98615">
        <ele>932.62</ele>
        <time>2015-05-11T12:10:41Z</time>
      </trkpt>
      <trkpt lat="44.36777" lon="5.98614">
        <ele>931.17</ele>
        <time>2015-05-11T12:10:43Z</time>
      </trkpt>
      <trkpt lat="44.36781" lon="5.9861">
        <ele>932.14</ele>
        <time>2015-05-11T12:10:52Z</time>
      </trkpt>
      <trkpt lat="44.36784" lon="5.98611">
        <ele>932.62</ele>
        <time>2015-05-11T12:11:05Z</time>
      </trkpt>
      <trkpt lat="44.36785" lon="5.9861">
        <ele>932.62</ele>
        <time>2015-05-11T12:11:10Z</time>
      </trkpt>
      <trkpt lat="44.36786" lon="5.98609">
        <ele>935.98</ele>
        <time>2015-05-11T12:11:13Z</time>
      </trkpt>
      <trkpt lat="44.36787" lon="5.98609">
        <ele>927.33</ele>
        <time>2015-05-11T12:11:15Z</time>
      </trkpt>
      <trkpt lat="44.36788" lon="5.98608">
        <ele>934.54</ele>
        <time>2015-05-11T12:11:16Z</time>
      </trkpt>
      <trkpt lat="44.36789" lon="5.98608">
        <ele>933.58</ele>
        <time>2015-05-11T12:11:20Z</time>
      </trkpt>
      <trkpt lat="44.3679" lon="5.98608">
        <ele>928.29</ele>
        <time>2015-05-11T12:11:21Z</time>
      </trkpt>
      <trkpt lat="44.3679" lon="5.98608">
        <ele>934.06</ele>
        <time>2015-05-11T12:11:22Z</time>
      </trkpt>
      <trkpt lat="44.36792" lon="5.98607">
        <ele>939.83</ele>
        <time>2015-05-11T12:11:25Z</time>
      </trkpt>
      <trkpt lat="44.36792" lon="5.98606">
        <ele>930.69</ele>
        <time>2015-05-11T12:11:26Z</time>
      </trkpt>
      <trkpt lat="44.36793" lon="5.98605">
        <ele>936.46</ele>
        <time>2015-05-11T12:11:27Z</time>
      </trkpt>
      <trkpt lat="44.36793" lon="5.98605">
        <ele>932.14</ele>
        <time>2015-05-11T12:11:28Z</time>
      </trkpt>
      <trkpt lat="44.36793" lon="5.98604">
        <ele>936.46</ele>
        <time>2015-05-11T12:11:30Z</time>
      </trkpt>
      <trkpt lat="44.36795" lon="5.98602">
        <ele>931.65</ele>
        <time>2015-05-11T12:11:35Z</time>
      </trkpt>
      <trkpt lat="44.36796" lon="5.98601">
        <ele>937.42</ele>
        <time>2015-05-11T12:11:36Z</time>
      </trkpt>
      <trkpt lat="44.36797" lon="5.98598">
        <ele>935.5</ele>
        <time>2015-05-11T12:11:41Z</time>
      </trkpt>
      <trkpt lat="44.36798" lon="5.98596">
        <ele>936.46</ele>
        <time>2015-05-11T12:11:43Z</time>
      </trkpt>
      <trkpt lat="44.36799" lon="5.98595">
        <ele>940.79</ele>
        <time>2015-05-11T12:11:47Z</time>
      </trkpt>
      <trkpt lat="44.368" lon="5.98595">
        <ele>935.5</ele>
        <time>2015-05-11T12:11:48Z</time>
      </trkpt>
      <trkpt lat="44.368" lon="5.98595">
        <ele>942.71</ele>
        <time>2015-05-11T12:11:49Z</time>
      </trkpt>
      <trkpt lat="44.368" lon="5.98595">
        <ele>934.06</ele>
        <time>2015-05-11T12:11:50Z</time>
      </trkpt>
      <trkpt lat="44.368" lon="5.98595">
        <ele>939.83</ele>
        <time>2015-05-11T12:11:51Z</time>
      </trkpt>
      <trkpt lat="44.36801" lon="5.98594">
        <ele>936.46</ele>
        <time>2015-05-11T12:11:52Z</time>
      </trkpt>
      <trkpt lat="44.36801" lon="5.98594">
        <ele>943.19</ele>
        <time>2015-05-11T12:11:54Z</time>
      </trkpt>
      <trkpt lat="44.36801" lon="5.98594">
        <ele>940.31</ele>
        <time>2015-05-11T12:11:55Z</time>
      </trkpt>
      <trkpt lat="44.36801" lon="5.98593">
        <ele>933.1</ele>
        <time>2015-05-11T12:11:56Z</time>
      </trkpt>
      <trkpt lat="44.36801" lon="5.98593">
        <ele>938.38</ele>
        <time>2015-05-11T12:11:57Z</time>
      </trkpt>
      <trkpt lat="44.36802" lon="5.98593">
        <ele>943.19</ele>
        <time>2015-05-11T12:11:58Z</time>
      </trkpt>
      <trkpt lat="44.36802" lon="5.98593">
        <ele>938.38</ele>
        <time>2015-05-11T12:11:59Z</time>
      </trkpt>
      <trkpt lat="44.36802" lon="5.98593">
        <ele>941.75</ele>
        <time>2015-05-11T12:12:02Z</time>
      </trkpt>
      <trkpt lat="44.36802" lon="5.98593">
        <ele>929.73</ele>
        <time>2015-05-11T12:12:08Z</time>
      </trkpt>
      <trkpt lat="44.36803" lon="5.98593">
        <ele>942.23</ele>
        <time>2015-05-11T12:12:09Z</time>
      </trkpt>
      <trkpt lat="44.36803" lon="5.98593">
        <ele>934.06</ele>
        <time>2015-05-11T12:12:10Z</time>
      </trkpt>
      <trkpt lat="44.36803" lon="5.98593">
        <ele>943.67</ele>
        <time>2015-05-11T12:12:11Z</time>
      </trkpt>
      <trkpt lat="44.36803" lon="5.98593">
        <ele>938.86</ele>
        <time>2015-05-11T12:12:12Z</time>
      </trkpt>
      <trkpt lat="44.36803" lon="5.98593">
        <ele>942.71</ele>
        <time>2015-05-11T12:12:13Z</time>
      </trkpt>
      <trkpt lat="44.36803" lon="5.98593">
        <ele>938.86</ele>
        <time>2015-05-11T12:12:14Z</time>
      </trkpt>
      <trkpt lat="44.36803" lon="5.98593">
        <ele>943.19</ele>
        <time>2015-05-11T12:12:15Z</time>
      </trkpt>
      <trkpt lat="44.36804" lon="5.98592">
        <ele>933.58</ele>
        <time>2015-05-11T12:12:16Z</time>
      </trkpt>
      <trkpt lat="44.36804" lon="5.98591">
        <ele>941.27</ele>
        <time>2015-05-11T12:12:17Z</time>
      </trkpt>
      <trkpt lat="44.36805" lon="5.9859">
        <ele>947.04</ele>
        <time>2015-05-11T12:12:18Z</time>
      </trkpt>
      <trkpt lat="44.36805" lon="5.98589">
        <ele>939.83</ele>
        <time>2015-05-11T12:12:19Z</time>
      </trkpt>
      <trkpt lat="44.36807" lon="5.98587">
        <ele>944.15</ele>
        <time>2015-05-11T12:12:22Z</time>
      </trkpt>
      <trkpt lat="44.36807" lon="5.98586">
        <ele>942.71</ele>
        <time>2015-05-11T12:12:23Z</time>
      </trkpt>
      <trkpt lat="44.36808" lon="5.98585">
        <ele>947.04</ele>
        <time>2015-05-11T12:12:25Z</time>
      </trkpt>
      <trkpt lat="44.36808" lon="5.98584">
        <ele>931.65</ele>
        <time>2015-05-11T12:12:26Z</time>
      </trkpt>
      <trkpt lat="44.36808" lon="5.98584">
        <ele>944.15</ele>
        <time>2015-05-11T12:12:27Z</time>
      </trkpt>
      <trkpt lat="44.36808" lon="5.98583">
        <ele>937.9</ele>
        <time>2015-05-11T12:12:29Z</time>
      </trkpt>
      <trkpt lat="44.36808" lon="5.98582">
        <ele>945.59</ele>
        <time>2015-05-11T12:12:30Z</time>
      </trkpt>
      <trkpt lat="44.36808" lon="5.98581">
        <ele>936.94</ele>
        <time>2015-05-11T12:12:32Z</time>
      </trkpt>
      <trkpt lat="44.36807" lon="5.98581">
        <ele>945.59</ele>
        <time>2015-05-11T12:12:33Z</time>
      </trkpt>
      <trkpt lat="44.36807" lon="5.9858">
        <ele>941.75</ele>
        <time>2015-05-11T12:12:34Z</time>
      </trkpt>
      <trkpt lat="44.36808" lon="5.98577">
        <ele>944.63</ele>
        <time>2015-05-11T12:12:43Z</time>
      </trkpt>
      <trkpt lat="44.36809" lon="5.98576">
        <ele>942.71</ele>
        <time>2015-05-11T12:12:53Z</time>
      </trkpt>
      <trkpt lat="44.3681" lon="5.98573">
        <ele>944.15</ele>
        <time>2015-05-11T12:12:55Z</time>
      </trkpt>
      <trkpt lat="44.36811" lon="5.98573">
        <ele>935.98</ele>
        <time>2015-05-11T12:13:10Z</time>
      </trkpt>
      <trkpt lat="44.36811" lon="5.98572">
        <ele>945.59</ele>
        <time>2015-05-11T12:13:11Z</time>
      </trkpt>
      <trkpt lat="44.36812" lon="5.9857">
        <ele>940.31</ele>
        <time>2015-05-11T12:13:14Z</time>
      </trkpt>
      <trkpt lat="44.36812" lon="5.9857">
        <ele>945.59</ele>
        <time>2015-05-11T12:13:15Z</time>
      </trkpt>
      <trkpt lat="44.36812" lon="5.9857">
        <ele>939.83</ele>
        <time>2015-05-11T12:13:23Z</time>
      </trkpt>
      <trkpt lat="44.36813" lon="5.9857">
        <ele>948</ele>
        <time>2015-05-11T12:13:24Z</time>
      </trkpt>
      <trkpt lat="44.36813" lon="5.98569">
        <ele>944.15</ele>
        <time>2015-05-11T12:13:31Z</time>
      </trkpt>
      <trkpt lat="44.36813" lon="5.98569">
        <ele>947.52</ele>
        <time>2015-05-11T12:13:32Z</time>
      </trkpt>
      <trkpt lat="44.36815" lon="5.98569">
        <ele>943.67</ele>
        <time>2015-05-11T12:13:36Z</time>
      </trkpt>
      <trkpt lat="44.36815" lon="5.98569">
        <ele>945.11</ele>
        <time>2015-05-11T12:13:37Z</time>
      </trkpt>
      <trkpt lat="44.36816" lon="5.9857">
        <ele>949.44</ele>
        <time>2015-05-11T12:13:40Z</time>
      </trkpt>
      <trkpt lat="44.36816" lon="5.98571">
        <ele>935.5</ele>
        <time>2015-05-11T12:13:41Z</time>
      </trkpt>
      <trkpt lat="44.36816" lon="5.98571">
        <ele>949.44</ele>
        <time>2015-05-11T12:13:42Z</time>
      </trkpt>
      <trkpt lat="44.36817" lon="5.98571">
        <ele>944.63</ele>
        <time>2015-05-11T12:13:43Z</time>
      </trkpt>
      <trkpt lat="44.36818" lon="5.98571">
        <ele>955.69</ele>
        <time>2015-05-11T12:13:46Z</time>
      </trkpt>
      <trkpt lat="44.36819" lon="5.98571">
        <ele>944.63</ele>
        <time>2015-05-11T12:13:47Z</time>
      </trkpt>
      <trkpt lat="44.3682" lon="5.98572">
        <ele>948.96</ele>
        <time>2015-05-11T12:13:48Z</time>
      </trkpt>
      <trkpt lat="44.36822" lon="5.98573">
        <ele>944.63</ele>
        <time>2015-05-11T12:13:51Z</time>
      </trkpt>
      <trkpt lat="44.36823" lon="5.98574">
        <ele>947.52</ele>
        <time>2015-05-11T12:13:52Z</time>
      </trkpt>
      <trkpt lat="44.36824" lon="5.98575">
        <ele>953.77</ele>
        <time>2015-05-11T12:13:53Z</time>
      </trkpt>
      <trkpt lat="44.36824" lon="5.98575">
        <ele>940.79</ele>
        <time>2015-05-11T12:13:54Z</time>
      </trkpt>
      <trkpt lat="44.36824" lon="5.98575">
        <ele>948</ele>
        <time>2015-05-11T12:13:55Z</time>
      </trkpt>
      <trkpt lat="44.36825" lon="5.98576">
        <ele>950.88</ele>
        <time>2015-05-11T12:13:56Z</time>
      </trkpt>
      <trkpt lat="44.36827" lon="5.98577">
        <ele>954.73</ele>
        <time>2015-05-11T12:13:59Z</time>
      </trkpt>
      <trkpt lat="44.36827" lon="5.98577">
        <ele>943.67</ele>
        <time>2015-05-11T12:14:00Z</time>
      </trkpt>
      <trkpt lat="44.36828" lon="5.98577">
        <ele>952.8</ele>
        <time>2015-05-11T12:14:01Z</time>
      </trkpt>
      <trkpt lat="44.3683" lon="5.98578">
        <ele>955.69</ele>
        <time>2015-05-11T12:14:05Z</time>
      </trkpt>
      <trkpt lat="44.36831" lon="5.98579">
        <ele>955.69</ele>
        <time>2015-05-11T12:14:06Z</time>
      </trkpt>
      <trkpt lat="44.36831" lon="5.98579">
        <ele>945.11</ele>
        <time>2015-05-11T12:14:07Z</time>
      </trkpt>
      <trkpt lat="44.36831" lon="5.98579">
        <ele>954.25</ele>
        <time>2015-05-11T12:14:08Z</time>
      </trkpt>
      <trkpt lat="44.36832" lon="5.98579">
        <ele>943.19</ele>
        <time>2015-05-11T12:14:09Z</time>
      </trkpt>
      <trkpt lat="44.36832" lon="5.98579">
        <ele>954.25</ele>
        <time>2015-05-11T12:14:10Z</time>
      </trkpt>
      <trkpt lat="44.36833" lon="5.98581">
        <ele>943.19</ele>
        <time>2015-05-11T12:14:13Z</time>
      </trkpt>
      <trkpt lat="44.36833" lon="5.98581">
        <ele>955.21</ele>
        <time>2015-05-11T12:14:14Z</time>
      </trkpt>
      <trkpt lat="44.36833" lon="5.98582">
        <ele>948.48</ele>
        <time>2015-05-11T12:14:15Z</time>
      </trkpt>
      <trkpt lat="44.36834" lon="5.98582">
        <ele>956.17</ele>
        <time>2015-05-11T12:14:17Z</time>
      </trkpt>
      <trkpt lat="44.36834" lon="5.98583">
        <ele>953.77</ele>
        <time>2015-05-11T12:14:18Z</time>
      </trkpt>
      <trkpt lat="44.36835" lon="5.98585">
        <ele>937.42</ele>
        <time>2015-05-11T12:14:21Z</time>
      </trkpt>
      <trkpt lat="44.36835" lon="5.98585">
        <ele>959.05</ele>
        <time>2015-05-11T12:14:22Z</time>
      </trkpt>
      <trkpt lat="44.36836" lon="5.98586">
        <ele>955.21</ele>
        <time>2015-05-11T12:14:23Z</time>
      </trkpt>
      <trkpt lat="44.36836" lon="5.98586">
        <ele>947.52</ele>
        <time>2015-05-11T12:14:24Z</time>
      </trkpt>
      <trkpt lat="44.36836" lon="5.98586">
        <ele>958.57</ele>
        <time>2015-05-11T12:14:25Z</time>
      </trkpt>
      <trkpt lat="44.36837" lon="5.98587">
        <ele>950.88</ele>
        <time>2015-05-11T12:14:28Z</time>
      </trkpt>
      <trkpt lat="44.36837" lon="5.98587">
        <ele>954.25</ele>
        <time>2015-05-11T12:14:29Z</time>
      </trkpt>
      <trkpt lat="44.36838" lon="5.98585">
        <ele>945.11</ele>
        <time>2015-05-11T12:14:35Z</time>
      </trkpt>
      <trkpt lat="44.36838" lon="5.98585">
        <ele>959.05</ele>
        <time>2015-05-11T12:14:36Z</time>
      </trkpt>
      <trkpt lat="44.36839" lon="5.98584">
        <ele>954.73</ele>
        <time>2015-05-11T12:14:37Z</time>
      </trkpt>
      <trkpt lat="44.3684" lon="5.98583">
        <ele>960.98</ele>
        <time>2015-05-11T12:14:40Z</time>
      </trkpt>
      <trkpt lat="44.3684" lon="5.98582">
        <ele>953.28</ele>
        <time>2015-05-11T12:14:41Z</time>
      </trkpt>
      <trkpt lat="44.36841" lon="5.98581">
        <ele>960.01</ele>
        <time>2015-05-11T12:14:42Z</time>
      </trkpt>
      <trkpt lat="44.36842" lon="5.98581">
        <ele>950.88</ele>
        <time>2015-05-11T12:14:43Z</time>
      </trkpt>
      <trkpt lat="44.36843" lon="5.9858">
        <ele>959.53</ele>
        <time>2015-05-11T12:14:44Z</time>
      </trkpt>
      <trkpt lat="44.36844" lon="5.98579">
        <ele>955.69</ele>
        <time>2015-05-11T12:14:46Z</time>
      </trkpt>
      <trkpt lat="44.36844" lon="5.98578">
        <ele>955.69</ele>
        <time>2015-05-11T12:14:47Z</time>
      </trkpt>
      <trkpt lat="44.36843" lon="5.98577">
        <ele>961.46</ele>
        <time>2015-05-11T12:14:48Z</time>
      </trkpt>
      <trkpt lat="44.36844" lon="5.98577">
        <ele>956.65</ele>
        <time>2015-05-11T12:14:49Z</time>
      </trkpt>
      <trkpt lat="44.36848" lon="5.98575">
        <ele>960.49</ele>
        <time>2015-05-11T12:15:20Z</time>
      </trkpt>
      <trkpt lat="44.36849" lon="5.98574">
        <ele>958.57</ele>
        <time>2015-05-11T12:15:21Z</time>
      </trkpt>
      <trkpt lat="44.36849" lon="5.98574">
        <ele>952.8</ele>
        <time>2015-05-11T12:15:23Z</time>
      </trkpt>
      <trkpt lat="44.36849" lon="5.98574">
        <ele>959.05</ele>
        <time>2015-05-11T12:15:24Z</time>
      </trkpt>
      <trkpt lat="44.36851" lon="5.98574">
        <ele>964.82</ele>
        <time>2015-05-11T12:15:26Z</time>
      </trkpt>
      <trkpt lat="44.36852" lon="5.98574">
        <ele>962.9</ele>
        <time>2015-05-11T12:15:27Z</time>
      </trkpt>
      <trkpt lat="44.36852" lon="5.98574">
        <ele>953.28</ele>
        <time>2015-05-11T12:15:28Z</time>
      </trkpt>
      <trkpt lat="44.36852" lon="5.98574">
        <ele>960.01</ele>
        <time>2015-05-11T12:15:29Z</time>
      </trkpt>
      <trkpt lat="44.36853" lon="5.98574">
        <ele>954.73</ele>
        <time>2015-05-11T12:15:36Z</time>
      </trkpt>
      <trkpt lat="44.36853" lon="5.98573">
        <ele>960.01</ele>
        <time>2015-05-11T12:15:37Z</time>
      </trkpt>
      <trkpt lat="44.36854" lon="5.98573">
        <ele>953.77</ele>
        <time>2015-05-11T12:15:38Z</time>
      </trkpt>
      <trkpt lat="44.36854" lon="5.98573">
        <ele>962.9</ele>
        <time>2015-05-11T12:15:39Z</time>
      </trkpt>
      <trkpt lat="44.36854" lon="5.98572">
        <ele>967.22</ele>
        <time>2015-05-11T12:15:40Z</time>
      </trkpt>
      <trkpt lat="44.36854" lon="5.98572">
        <ele>955.69</ele>
        <time>2015-05-11T12:15:41Z</time>
      </trkpt>
      <trkpt lat="44.36855" lon="5.98572">
        <ele>962.42</ele>
        <time>2015-05-11T12:15:42Z</time>
      </trkpt>
      <trkpt lat="44.36856" lon="5.98571">
        <ele>951.36</ele>
        <time>2015-05-11T12:15:43Z</time>
      </trkpt>
      <trkpt lat="44.36857" lon="5.98571">
        <ele>960.49</ele>
        <time>2015-05-11T12:15:44Z</time>
      </trkpt>
      <trkpt lat="44.36859" lon="5.9857">
        <ele>967.7</ele>
        <time>2015-05-11T12:15:57Z</time>
      </trkpt>
      <trkpt lat="44.36859" lon="5.9857">
        <ele>955.21</ele>
        <time>2015-05-11T12:15:58Z</time>
      </trkpt>
      <trkpt lat="44.3686" lon="5.9857">
        <ele>962.9</ele>
        <time>2015-05-11T12:15:59Z</time>
      </trkpt>
      <trkpt lat="44.3686" lon="5.98568">
        <ele>958.09</ele>
        <time>2015-05-11T12:16:01Z</time>
      </trkpt>
      <trkpt lat="44.36861" lon="5.98567">
        <ele>963.38</ele>
        <time>2015-05-11T12:16:02Z</time>
      </trkpt>
      <trkpt lat="44.36861" lon="5.98566">
        <ele>966.26</ele>
        <time>2015-05-11T12:16:04Z</time>
      </trkpt>
      <trkpt lat="44.36861" lon="5.98566">
        <ele>954.25</ele>
        <time>2015-05-11T12:16:05Z</time>
      </trkpt>
      <trkpt lat="44.36862" lon="5.98566">
        <ele>964.82</ele>
        <time>2015-05-11T12:16:06Z</time>
      </trkpt>
      <trkpt lat="44.36864" lon="5.98566">
        <ele>970.59</ele>
        <time>2015-05-11T12:16:07Z</time>
      </trkpt>
      <trkpt lat="44.36864" lon="5.98566">
        <ele>956.65</ele>
        <time>2015-05-11T12:16:08Z</time>
      </trkpt>
      <trkpt lat="44.36865" lon="5.98565">
        <ele>965.3</ele>
        <time>2015-05-11T12:16:09Z</time>
      </trkpt>
      <trkpt lat="44.36866" lon="5.98564">
        <ele>960.49</ele>
        <time>2015-05-11T12:16:10Z</time>
      </trkpt>
      <trkpt lat="44.36866" lon="5.98564">
        <ele>964.34</ele>
        <time>2015-05-11T12:16:12Z</time>
      </trkpt>
      <trkpt lat="44.36867" lon="5.98564">
        <ele>969.15</ele>
        <time>2015-05-11T12:16:13Z</time>
      </trkpt>
      <trkpt lat="44.36867" lon="5.98565">
        <ele>961.46</ele>
        <time>2015-05-11T12:16:14Z</time>
      </trkpt>
      <trkpt lat="44.36869" lon="5.98566">
        <ele>965.78</ele>
        <time>2015-05-11T12:16:15Z</time>
      </trkpt>
      <trkpt lat="44.36869" lon="5.98566">
        <ele>956.65</ele>
        <time>2015-05-11T12:16:16Z</time>
      </trkpt>
      <trkpt lat="44.36869" lon="5.98566">
        <ele>967.22</ele>
        <time>2015-05-11T12:16:17Z</time>
      </trkpt>
      <trkpt lat="44.3687" lon="5.98567">
        <ele>970.59</ele>
        <time>2015-05-11T12:16:19Z</time>
      </trkpt>
      <trkpt lat="44.3687" lon="5.98567">
        <ele>956.65</ele>
        <time>2015-05-11T12:16:20Z</time>
      </trkpt>
      <trkpt lat="44.3687" lon="5.98567">
        <ele>969.15</ele>
        <time>2015-05-11T12:16:21Z</time>
      </trkpt>
      <trkpt lat="44.36871" lon="5.98568">
        <ele>960.98</ele>
        <time>2015-05-11T12:16:22Z</time>
      </trkpt>
      <trkpt lat="44.36871" lon="5.98569">
        <ele>966.26</ele>
        <time>2015-05-11T12:16:23Z</time>
      </trkpt>
      <trkpt lat="44.36872" lon="5.9857">
        <ele>970.11</ele>
        <time>2015-05-11T12:16:25Z</time>
      </trkpt>
      <trkpt lat="44.36872" lon="5.98571">
        <ele>963.38</ele>
        <time>2015-05-11T12:16:26Z</time>
      </trkpt>
      <trkpt lat="44.36872" lon="5.98573">
        <ele>970.59</ele>
        <time>2015-05-11T12:16:28Z</time>
      </trkpt>
      <trkpt lat="44.36873" lon="5.98573">
        <ele>965.78</ele>
        <time>2015-05-11T12:16:29Z</time>
      </trkpt>
      <trkpt lat="44.36873" lon="5.98574">
        <ele>969.15</ele>
        <time>2015-05-11T12:16:31Z</time>
      </trkpt>
      <trkpt lat="44.36872" lon="5.98575">
        <ele>960.01</ele>
        <time>2015-05-11T12:16:32Z</time>
      </trkpt>
      <trkpt lat="44.36872" lon="5.98576">
        <ele>971.07</ele>
        <time>2015-05-11T12:16:33Z</time>
      </trkpt>
      <trkpt lat="44.36872" lon="5.98576">
        <ele>961.94</ele>
        <time>2015-05-11T12:16:34Z</time>
      </trkpt>
      <trkpt lat="44.36872" lon="5.98577">
        <ele>967.22</ele>
        <time>2015-05-11T12:16:35Z</time>
      </trkpt>
      <trkpt lat="44.36872" lon="5.9858">
        <ele>959.05</ele>
        <time>2015-05-11T12:16:40Z</time>
      </trkpt>
      <trkpt lat="44.36872" lon="5.9858">
        <ele>965.78</ele>
        <time>2015-05-11T12:16:41Z</time>
      </trkpt>
      <trkpt lat="44.36873" lon="5.98582">
        <ele>970.11</ele>
        <time>2015-05-11T12:16:42Z</time>
      </trkpt>
      <trkpt lat="44.36873" lon="5.98583">
        <ele>969.15</ele>
        <time>2015-05-11T12:16:43Z</time>
      </trkpt>
      <trkpt lat="44.36873" lon="5.98585">
        <ele>980.2</ele>
        <time>2015-05-11T12:16:46Z</time>
      </trkpt>
      <trkpt lat="44.36874" lon="5.98585">
        <ele>970.11</ele>
        <time>2015-05-11T12:16:47Z</time>
      </trkpt>
      <trkpt lat="44.36874" lon="5.98586">
        <ele>977.8</ele>
        <time>2015-05-11T12:16:51Z</time>
      </trkpt>
      <trkpt lat="44.36875" lon="5.98586">
        <ele>964.34</ele>
        <time>2015-05-11T12:16:52Z</time>
      </trkpt>
      <trkpt lat="44.36875" lon="5.98586">
        <ele>970.59</ele>
        <time>2015-05-11T12:16:53Z</time>
      </trkpt>
      <trkpt lat="44.36875" lon="5.98587">
        <ele>967.7</ele>
        <time>2015-05-11T12:16:55Z</time>
      </trkpt>
      <trkpt lat="44.36876" lon="5.9859">
        <ele>960.98</ele>
        <time>2015-05-11T12:16:57Z</time>
      </trkpt>
      <trkpt lat="44.36876" lon="5.9859">
        <ele>964.34</ele>
        <time>2015-05-11T12:16:58Z</time>
      </trkpt>
      <trkpt lat="44.36876" lon="5.9859">
        <ele>972.03</ele>
        <time>2015-05-11T12:16:59Z</time>
      </trkpt>
      <trkpt lat="44.36877" lon="5.98594">
        <ele>961.46</ele>
        <time>2015-05-11T12:17:04Z</time>
      </trkpt>
      <trkpt lat="44.36878" lon="5.98595">
        <ele>966.74</ele>
        <time>2015-05-11T12:17:05Z</time>
      </trkpt>
      <trkpt lat="44.36878" lon="5.98596">
        <ele>971.07</ele>
        <time>2015-05-11T12:17:06Z</time>
      </trkpt>
      <trkpt lat="44.36878" lon="5.98597">
        <ele>977.32</ele>
        <time>2015-05-11T12:17:07Z</time>
      </trkpt>
      <trkpt lat="44.36879" lon="5.98598">
        <ele>966.26</ele>
        <time>2015-05-11T12:17:08Z</time>
      </trkpt>
      <trkpt lat="44.36879" lon="5.98598">
        <ele>972.99</ele>
        <time>2015-05-11T12:17:09Z</time>
      </trkpt>
      <trkpt lat="44.3688" lon="5.98601">
        <ele>973.95</ele>
        <time>2015-05-11T12:17:12Z</time>
      </trkpt>
      <trkpt lat="44.36881" lon="5.98604">
        <ele>969.63</ele>
        <time>2015-05-11T12:17:15Z</time>
      </trkpt>
      <trkpt lat="44.36881" lon="5.98604">
        <ele>973.95</ele>
        <time>2015-05-11T12:17:16Z</time>
      </trkpt>
      <trkpt lat="44.36881" lon="5.98606">
        <ele>969.63</ele>
        <time>2015-05-11T12:17:18Z</time>
      </trkpt>
      <trkpt lat="44.36881" lon="5.98607">
        <ele>974.43</ele>
        <time>2015-05-11T12:17:19Z</time>
      </trkpt>
      <trkpt lat="44.36883" lon="5.98609">
        <ele>978.28</ele>
        <time>2015-05-11T12:17:23Z</time>
      </trkpt>
      <trkpt lat="44.36883" lon="5.98609">
        <ele>976.36</ele>
        <time>2015-05-11T12:17:24Z</time>
      </trkpt>
      <trkpt lat="44.36884" lon="5.9861">
        <ele>979.72</ele>
        <time>2015-05-11T12:17:26Z</time>
      </trkpt>
      <trkpt lat="44.36885" lon="5.98611">
        <ele>971.07</ele>
        <time>2015-05-11T12:17:27Z</time>
      </trkpt>
      <trkpt lat="44.36885" lon="5.98612">
        <ele>971.55</ele>
        <time>2015-05-11T12:17:28Z</time>
      </trkpt>
      <trkpt lat="44.36886" lon="5.98613">
        <ele>979.24</ele>
        <time>2015-05-11T12:17:29Z</time>
      </trkpt>
      <trkpt lat="44.36886" lon="5.98614">
        <ele>971.07</ele>
        <time>2015-05-11T12:17:30Z</time>
      </trkpt>
      <trkpt lat="44.36886" lon="5.98614">
        <ele>977.32</ele>
        <time>2015-05-11T12:17:31Z</time>
      </trkpt>
      <trkpt lat="44.36888" lon="5.98615">
        <ele>967.7</ele>
        <time>2015-05-11T12:17:34Z</time>
      </trkpt>
      <trkpt lat="44.36888" lon="5.98616">
        <ele>975.88</ele>
        <time>2015-05-11T12:17:35Z</time>
      </trkpt>
      <trkpt lat="44.36888" lon="5.98617">
        <ele>969.63</ele>
        <time>2015-05-11T12:17:36Z</time>
      </trkpt>
      <trkpt lat="44.36889" lon="5.98618">
        <ele>974.91</ele>
        <time>2015-05-11T12:17:37Z</time>
      </trkpt>
      <trkpt lat="44.36889" lon="5.98619">
        <ele>986.45</ele>
        <time>2015-05-11T12:17:38Z</time>
      </trkpt>
      <trkpt lat="44.36889" lon="5.98619">
        <ele>977.8</ele>
        <time>2015-05-11T12:17:39Z</time>
      </trkpt>
      <trkpt lat="44.36889" lon="5.98621">
        <ele>965.78</ele>
        <time>2015-05-11T12:17:40Z</time>
      </trkpt>
      <trkpt lat="44.3689" lon="5.98622">
        <ele>975.88</ele>
        <time>2015-05-11T12:17:41Z</time>
      </trkpt>
      <trkpt lat="44.3689" lon="5.98623">
        <ele>979.24</ele>
        <time>2015-05-11T12:17:43Z</time>
      </trkpt>
      <trkpt lat="44.3689" lon="5.98623">
        <ele>970.59</ele>
        <time>2015-05-11T12:17:45Z</time>
      </trkpt>
      <trkpt lat="44.36891" lon="5.98623">
        <ele>978.76</ele>
        <time>2015-05-11T12:17:46Z</time>
      </trkpt>
      <trkpt lat="44.36891" lon="5.98623">
        <ele>974.91</ele>
        <time>2015-05-11T12:17:48Z</time>
      </trkpt>
      <trkpt lat="44.36891" lon="5.98623">
        <ele>980.2</ele>
        <time>2015-05-11T12:17:49Z</time>
      </trkpt>
      <trkpt lat="44.36892" lon="5.98622">
        <ele>974.43</ele>
        <time>2015-05-11T12:17:54Z</time>
      </trkpt>
      <trkpt lat="44.36892" lon="5.98622">
        <ele>979.24</ele>
        <time>2015-05-11T12:17:55Z</time>
      </trkpt>
      <trkpt lat="44.36892" lon="5.98622">
        <ele>980.2</ele>
        <time>2015-05-11T12:17:57Z</time>
      </trkpt>
      <trkpt lat="44.36892" lon="5.98621">
        <ele>976.36</ele>
        <time>2015-05-11T12:18:00Z</time>
      </trkpt>
      <trkpt lat="44.36892" lon="5.9862">
        <ele>979.72</ele>
        <time>2015-05-11T12:18:01Z</time>
      </trkpt>
      <trkpt lat="44.36892" lon="5.98619">
        <ele>968.18</ele>
        <time>2015-05-11T12:18:02Z</time>
      </trkpt>
      <trkpt lat="44.36892" lon="5.98619">
        <ele>982.12</ele>
        <time>2015-05-11T12:18:03Z</time>
      </trkpt>
      <trkpt lat="44.36893" lon="5.98618">
        <ele>987.89</ele>
        <time>2015-05-11T12:18:04Z</time>
      </trkpt>
      <trkpt lat="44.36893" lon="5.98616">
        <ele>982.12</ele>
        <time>2015-05-11T12:18:05Z</time>
      </trkpt>
      <trkpt lat="44.36894" lon="5.98614">
        <ele>977.32</ele>
        <time>2015-05-11T12:18:09Z</time>
      </trkpt>
      <trkpt lat="44.36894" lon="5.98614">
        <ele>982.6</ele>
        <time>2015-05-11T12:18:10Z</time>
      </trkpt>
      <trkpt lat="44.36894" lon="5.98614">
        <ele>954.73</ele>
        <time>2015-05-11T12:18:11Z</time>
      </trkpt>
      <trkpt lat="44.36894" lon="5.98614">
        <ele>989.33</ele>
        <time>2015-05-11T12:18:12Z</time>
      </trkpt>
      <trkpt lat="44.36894" lon="5.98614">
        <ele>985.97</ele>
        <time>2015-05-11T12:18:13Z</time>
      </trkpt>
      <trkpt lat="44.36894" lon="5.98614">
        <ele>982.6</ele>
        <time>2015-05-11T12:18:14Z</time>
      </trkpt>
      <trkpt lat="44.36895" lon="5.98611">
        <ele>977.8</ele>
        <time>2015-05-11T12:18:17Z</time>
      </trkpt>
      <trkpt lat="44.36895" lon="5.9861">
        <ele>982.6</ele>
        <time>2015-05-11T12:18:18Z</time>
      </trkpt>
      <trkpt lat="44.36896" lon="5.98609">
        <ele>985.97</ele>
        <time>2015-05-11T12:18:21Z</time>
      </trkpt>
      <trkpt lat="44.36896" lon="5.98609">
        <ele>980.68</ele>
        <time>2015-05-11T12:18:22Z</time>
      </trkpt>
      <trkpt lat="44.36897" lon="5.98607">
        <ele>986.45</ele>
        <time>2015-05-11T12:18:25Z</time>
      </trkpt>
      <trkpt lat="44.36897" lon="5.98607">
        <ele>983.09</ele>
        <time>2015-05-11T12:18:26Z</time>
      </trkpt>
      <trkpt lat="44.36898" lon="5.98606">
        <ele>985.97</ele>
        <time>2015-05-11T12:18:31Z</time>
      </trkpt>
      <trkpt lat="44.36898" lon="5.98606">
        <ele>982.12</ele>
        <time>2015-05-11T12:18:40Z</time>
      </trkpt>
      <trkpt lat="44.36898" lon="5.98605">
        <ele>975.88</ele>
        <time>2015-05-11T12:18:42Z</time>
      </trkpt>
      <trkpt lat="44.36898" lon="5.98605">
        <ele>985.97</ele>
        <time>2015-05-11T12:18:43Z</time>
      </trkpt>
      <trkpt lat="44.36899" lon="5.98604">
        <ele>991.26</ele>
        <time>2015-05-11T12:18:44Z</time>
      </trkpt>
      <trkpt lat="44.36899" lon="5.98604">
        <ele>979.72</ele>
        <time>2015-05-11T12:18:45Z</time>
      </trkpt>
      <trkpt lat="44.36899" lon="5.98603">
        <ele>985.49</ele>
        <time>2015-05-11T12:18:46Z</time>
      </trkpt>
      <trkpt lat="44.369" lon="5.98602">
        <ele>982.12</ele>
        <time>2015-05-11T12:18:47Z</time>
      </trkpt>
      <trkpt lat="44.36901" lon="5.98601">
        <ele>985.97</ele>
        <time>2015-05-11T12:18:48Z</time>
      </trkpt>
      <trkpt lat="44.36902" lon="5.98599">
        <ele>982.12</ele>
        <time>2015-05-11T12:18:50Z</time>
      </trkpt>
      <trkpt lat="44.36902" lon="5.98599">
        <ele>986.93</ele>
        <time>2015-05-11T12:18:51Z</time>
      </trkpt>
      <trkpt lat="44.36902" lon="5.98598">
        <ele>983.09</ele>
        <time>2015-05-11T12:18:53Z</time>
      </trkpt>
      <trkpt lat="44.36902" lon="5.98598">
        <ele>987.41</ele>
        <time>2015-05-11T12:18:54Z</time>
      </trkpt>
      <trkpt lat="44.36903" lon="5.98598">
        <ele>979.72</ele>
        <time>2015-05-11T12:19:14Z</time>
      </trkpt>
      <trkpt lat="44.36903" lon="5.98598">
        <ele>990.78</ele>
        <time>2015-05-11T12:19:15Z</time>
      </trkpt>
      <trkpt lat="44.36903" lon="5.98598">
        <ele>985.01</ele>
        <time>2015-05-11T12:19:16Z</time>
      </trkpt>
      <trkpt lat="44.36906" lon="5.98597">
        <ele>991.74</ele>
        <time>2015-05-11T12:19:22Z</time>
      </trkpt>
      <trkpt lat="44.36907" lon="5.98596">
        <ele>982.12</ele>
        <time>2015-05-11T12:19:23Z</time>
      </trkpt>
      <trkpt lat="44.36908" lon="5.98596">
        <ele>991.74</ele>
        <time>2015-05-11T12:19:24Z</time>
      </trkpt>
      <trkpt lat="44.3691" lon="5.98595">
        <ele>986.93</ele>
        <time>2015-05-11T12:19:27Z</time>
      </trkpt>
      <trkpt lat="44.36911" lon="5.98594">
        <ele>977.32</ele>
        <time>2015-05-11T12:19:28Z</time>
      </trkpt>
      <trkpt lat="44.36911" lon="5.98594">
        <ele>990.78</ele>
        <time>2015-05-11T12:19:29Z</time>
      </trkpt>
      <trkpt lat="44.36911" lon="5.98594">
        <ele>989.81</ele>
        <time>2015-05-11T12:19:30Z</time>
      </trkpt>
      <trkpt lat="44.36912" lon="5.98594">
        <ele>983.57</ele>
        <time>2015-05-11T12:19:54Z</time>
      </trkpt>
      <trkpt lat="44.36912" lon="5.98594">
        <ele>993.66</ele>
        <time>2015-05-11T12:19:55Z</time>
      </trkpt>
      <trkpt lat="44.36913" lon="5.98596">
        <ele>991.26</ele>
        <time>2015-05-11T12:19:58Z</time>
      </trkpt>
      <trkpt lat="44.36913" lon="5.98597">
        <ele>984.53</ele>
        <time>2015-05-11T12:20:01Z</time>
      </trkpt>
      <trkpt lat="44.36913" lon="5.98597">
        <ele>993.66</ele>
        <time>2015-05-11T12:20:02Z</time>
      </trkpt>
      <trkpt lat="44.36913" lon="5.98597">
        <ele>992.7</ele>
        <time>2015-05-11T12:20:03Z</time>
      </trkpt>
      <trkpt lat="44.36913" lon="5.98598">
        <ele>986.45</ele>
        <time>2015-05-11T12:20:04Z</time>
      </trkpt>
      <trkpt lat="44.36913" lon="5.98599">
        <ele>989.33</ele>
        <time>2015-05-11T12:20:05Z</time>
      </trkpt>
      <trkpt lat="44.36913" lon="5.986">
        <ele>979.24</ele>
        <time>2015-05-11T12:20:06Z</time>
      </trkpt>
      <trkpt lat="44.36913" lon="5.986">
        <ele>993.18</ele>
        <time>2015-05-11T12:20:07Z</time>
      </trkpt>
      <trkpt lat="44.36914" lon="5.98604">
        <ele>983.57</ele>
        <time>2015-05-11T12:20:14Z</time>
      </trkpt>
      <trkpt lat="44.36914" lon="5.98604">
        <ele>994.14</ele>
        <time>2015-05-11T12:20:15Z</time>
      </trkpt>
      <trkpt lat="44.36915" lon="5.98604">
        <ele>987.89</ele>
        <time>2015-05-11T12:20:16Z</time>
      </trkpt>
      <trkpt lat="44.36915" lon="5.98604">
        <ele>992.22</ele>
        <time>2015-05-11T12:20:17Z</time>
      </trkpt>
      <trkpt lat="44.36916" lon="5.98606">
        <ele>984.53</ele>
        <time>2015-05-11T12:20:21Z</time>
      </trkpt>
      <trkpt lat="44.36916" lon="5.98606">
        <ele>995.1</ele>
        <time>2015-05-11T12:20:22Z</time>
      </trkpt>
      <trkpt lat="44.36918" lon="5.9861">
        <ele>998.47</ele>
        <time>2015-05-11T12:20:28Z</time>
      </trkpt>
      <trkpt lat="44.36918" lon="5.9861">
        <ele>989.81</ele>
        <time>2015-05-11T12:20:29Z</time>
      </trkpt>
      <trkpt lat="44.36919" lon="5.9861">
        <ele>997.02</ele>
        <time>2015-05-11T12:20:30Z</time>
      </trkpt>
      <trkpt lat="44.36919" lon="5.98611">
        <ele>994.14</ele>
        <time>2015-05-11T12:20:35Z</time>
      </trkpt>
      <trkpt lat="44.36921" lon="5.98613">
        <ele>998.47</ele>
        <time>2015-05-11T12:20:54Z</time>
      </trkpt>
      <trkpt lat="44.36921" lon="5.98613">
        <ele>996.54</ele>
        <time>2015-05-11T12:20:55Z</time>
      </trkpt>
      <trkpt lat="44.36921" lon="5.98614">
        <ele>1000.39</ele>
        <time>2015-05-11T12:20:57Z</time>
      </trkpt>
      <trkpt lat="44.36922" lon="5.98615">
        <ele>993.18</ele>
        <time>2015-05-11T12:20:58Z</time>
      </trkpt>
      <trkpt lat="44.36922" lon="5.98616">
        <ele>997.51</ele>
        <time>2015-05-11T12:20:59Z</time>
      </trkpt>
      <trkpt lat="44.36923" lon="5.98617">
        <ele>991.26</ele>
        <time>2015-05-11T12:21:01Z</time>
      </trkpt>
      <trkpt lat="44.36923" lon="5.98617">
        <ele>997.02</ele>
        <time>2015-05-11T12:21:02Z</time>
      </trkpt>
      <trkpt lat="44.36924" lon="5.98619">
        <ele>1001.35</ele>
        <time>2015-05-11T12:21:04Z</time>
      </trkpt>
      <trkpt lat="44.36924" lon="5.98619">
        <ele>997.51</ele>
        <time>2015-05-11T12:21:05Z</time>
      </trkpt>
      <trkpt lat="44.36924" lon="5.9862">
        <ele>1001.83</ele>
        <time>2015-05-11T12:21:06Z</time>
      </trkpt>
      <trkpt lat="44.36924" lon="5.98621">
        <ele>994.14</ele>
        <time>2015-05-11T12:21:07Z</time>
      </trkpt>
      <trkpt lat="44.36925" lon="5.98621">
        <ele>995.58</ele>
        <time>2015-05-11T12:21:08Z</time>
      </trkpt>
      <trkpt lat="44.36926" lon="5.98622">
        <ele>999.43</ele>
        <time>2015-05-11T12:21:09Z</time>
      </trkpt>
      <trkpt lat="44.36926" lon="5.98622">
        <ele>994.62</ele>
        <time>2015-05-11T12:21:10Z</time>
      </trkpt>
      <trkpt lat="44.36926" lon="5.98623">
        <ele>997.99</ele>
        <time>2015-05-11T12:21:11Z</time>
      </trkpt>
      <trkpt lat="44.36926" lon="5.98623">
        <ele>990.3</ele>
        <time>2015-05-11T12:21:12Z</time>
      </trkpt>
      <trkpt lat="44.36926" lon="5.98623">
        <ele>998.47</ele>
        <time>2015-05-11T12:21:13Z</time>
      </trkpt>
      <trkpt lat="44.36927" lon="5.98625">
        <ele>990.78</ele>
        <time>2015-05-11T12:21:16Z</time>
      </trkpt>
      <trkpt lat="44.36928" lon="5.98625">
        <ele>1002.31</ele>
        <time>2015-05-11T12:21:17Z</time>
      </trkpt>
      <trkpt lat="44.36928" lon="5.98625">
        <ele>997.02</ele>
        <time>2015-05-11T12:21:19Z</time>
      </trkpt>
      <trkpt lat="44.36928" lon="5.98625">
        <ele>999.91</ele>
        <time>2015-05-11T12:21:23Z</time>
      </trkpt>
      <trkpt lat="44.36928" lon="5.98624">
        <ele>1006.16</ele>
        <time>2015-05-11T12:21:25Z</time>
      </trkpt>
      <trkpt lat="44.36928" lon="5.98623">
        <ele>996.06</ele>
        <time>2015-05-11T12:21:26Z</time>
      </trkpt>
      <trkpt lat="44.36928" lon="5.98622">
        <ele>1003.75</ele>
        <time>2015-05-11T12:21:27Z</time>
      </trkpt>
      <trkpt lat="44.36928" lon="5.98621">
        <ele>996.54</ele>
        <time>2015-05-11T12:21:28Z</time>
      </trkpt>
      <trkpt lat="44.36928" lon="5.9862">
        <ele>1002.79</ele>
        <time>2015-05-11T12:21:30Z</time>
      </trkpt>
      <trkpt lat="44.36928" lon="5.98619">
        <ele>1001.35</ele>
        <time>2015-05-11T12:21:31Z</time>
      </trkpt>
      <trkpt lat="44.36928" lon="5.98619">
        <ele>1000.39</ele>
        <time>2015-05-11T12:21:33Z</time>
      </trkpt>
      <trkpt lat="44.36928" lon="5.98619">
        <ele>989.33</ele>
        <time>2015-05-11T12:21:35Z</time>
      </trkpt>
      <trkpt lat="44.36928" lon="5.98619">
        <ele>1003.27</ele>
        <time>2015-05-11T12:21:36Z</time>
      </trkpt>
      <trkpt lat="44.36929" lon="5.98618">
        <ele>998.95</ele>
        <time>2015-05-11T12:21:37Z</time>
      </trkpt>
      <trkpt lat="44.36929" lon="5.98618">
        <ele>1006.16</ele>
        <time>2015-05-11T12:21:38Z</time>
      </trkpt>
      <trkpt lat="44.36929" lon="5.98617">
        <ele>1000.39</ele>
        <time>2015-05-11T12:21:39Z</time>
      </trkpt>
      <trkpt lat="44.3693" lon="5.98616">
        <ele>1008.08</ele>
        <time>2015-05-11T12:21:40Z</time>
      </trkpt>
      <trkpt lat="44.3693" lon="5.98616">
        <ele>1001.83</ele>
        <time>2015-05-11T12:21:41Z</time>
      </trkpt>
      <trkpt lat="44.36931" lon="5.98616">
        <ele>1005.68</ele>
        <time>2015-05-11T12:21:47Z</time>
      </trkpt>
      <trkpt lat="44.36931" lon="5.98615">
        <ele>997.02</ele>
        <time>2015-05-11T12:21:48Z</time>
      </trkpt>
      <trkpt lat="44.36931" lon="5.98615">
        <ele>1005.2</ele>
        <time>2015-05-11T12:21:49Z</time>
      </trkpt>
      <trkpt lat="44.36933" lon="5.98615">
        <ele>999.43</ele>
        <time>2015-05-11T12:21:54Z</time>
      </trkpt>
      <trkpt lat="44.36933" lon="5.98615">
        <ele>1000.87</ele>
        <time>2015-05-11T12:21:55Z</time>
      </trkpt>
      <trkpt lat="44.36933" lon="5.98615">
        <ele>1006.16</ele>
        <time>2015-05-11T12:21:56Z</time>
      </trkpt>
      <trkpt lat="44.36934" lon="5.98616">
        <ele>999.43</ele>
        <time>2015-05-11T12:21:57Z</time>
      </trkpt>
      <trkpt lat="44.36934" lon="5.98617">
        <ele>1005.2</ele>
        <time>2015-05-11T12:21:58Z</time>
      </trkpt>
      <trkpt lat="44.36935" lon="5.98619">
        <ele>1008.56</ele>
        <time>2015-05-11T12:22:00Z</time>
      </trkpt>
      <trkpt lat="44.36935" lon="5.98619">
        <ele>997.99</ele>
        <time>2015-05-11T12:22:01Z</time>
      </trkpt>
      <trkpt lat="44.36935" lon="5.9862">
        <ele>1011.93</ele>
        <time>2015-05-11T12:22:02Z</time>
      </trkpt>
      <trkpt lat="44.36935" lon="5.98621">
        <ele>1003.75</ele>
        <time>2015-05-11T12:22:03Z</time>
      </trkpt>
      <trkpt lat="44.36935" lon="5.98621">
        <ele>1008.08</ele>
        <time>2015-05-11T12:22:04Z</time>
      </trkpt>
      <trkpt lat="44.36936" lon="5.98622">
        <ele>1001.35</ele>
        <time>2015-05-11T12:22:06Z</time>
      </trkpt>
      <trkpt lat="44.36936" lon="5.98623">
        <ele>1011.44</ele>
        <time>2015-05-11T12:22:07Z</time>
      </trkpt>
      <trkpt lat="44.36937" lon="5.98623">
        <ele>1001.35</ele>
        <time>2015-05-11T12:22:08Z</time>
      </trkpt>
      <trkpt lat="44.36937" lon="5.98624">
        <ele>1009.52</ele>
        <time>2015-05-11T12:22:09Z</time>
      </trkpt>
      <trkpt lat="44.36938" lon="5.98625">
        <ele>1002.31</ele>
        <time>2015-05-11T12:22:12Z</time>
      </trkpt>
      <trkpt lat="44.36939" lon="5.98626">
        <ele>1010</ele>
        <time>2015-05-11T12:22:13Z</time>
      </trkpt>
      <trkpt lat="44.36939" lon="5.98627">
        <ele>1003.27</ele>
        <time>2015-05-11T12:22:14Z</time>
      </trkpt>
      <trkpt lat="44.3694" lon="5.98628">
        <ele>1008.08</ele>
        <time>2015-05-11T12:22:15Z</time>
      </trkpt>
      <trkpt lat="44.36943" lon="5.98631">
        <ele>1007.12</ele>
        <time>2015-05-11T12:22:20Z</time>
      </trkpt>
      <trkpt lat="44.36943" lon="5.98631">
        <ele>995.58</ele>
        <time>2015-05-11T12:22:21Z</time>
      </trkpt>
      <trkpt lat="44.36943" lon="5.98631">
        <ele>1010.96</ele>
        <time>2015-05-11T12:22:22Z</time>
      </trkpt>
      <trkpt lat="44.36944" lon="5.98631">
        <ele>1004.72</ele>
        <time>2015-05-11T12:22:23Z</time>
      </trkpt>
      <trkpt lat="44.36946" lon="5.98632">
        <ele>1009.04</ele>
        <time>2015-05-11T12:22:25Z</time>
      </trkpt>
      <trkpt lat="44.36946" lon="5.98633">
        <ele>1005.68</ele>
        <time>2015-05-11T12:22:26Z</time>
      </trkpt>
      <trkpt lat="44.36947" lon="5.98633">
        <ele>1009.04</ele>
        <time>2015-05-11T12:22:27Z</time>
      </trkpt>
      <trkpt lat="44.36948" lon="5.98633">
        <ele>1005.2</ele>
        <time>2015-05-11T12:22:29Z</time>
      </trkpt>
      <trkpt lat="44.36949" lon="5.98634">
        <ele>1008.56</ele>
        <time>2015-05-11T12:22:30Z</time>
      </trkpt>
      <trkpt lat="44.36951" lon="5.98635">
        <ele>1012.89</ele>
        <time>2015-05-11T12:22:33Z</time>
      </trkpt>
      <trkpt lat="44.36951" lon="5.98635">
        <ele>1003.75</ele>
        <time>2015-05-11T12:22:34Z</time>
      </trkpt>
      <trkpt lat="44.36951" lon="5.98635">
        <ele>1006.16</ele>
        <time>2015-05-11T12:22:35Z</time>
      </trkpt>
      <trkpt lat="44.36951" lon="5.98635">
        <ele>1010.48</ele>
        <time>2015-05-11T12:22:36Z</time>
      </trkpt>
      <trkpt lat="44.36952" lon="5.98636">
        <ele>1002.79</ele>
        <time>2015-05-11T12:22:38Z</time>
      </trkpt>
      <trkpt lat="44.36952" lon="5.98636">
        <ele>1007.6</ele>
        <time>2015-05-11T12:22:39Z</time>
      </trkpt>
      <trkpt lat="44.36952" lon="5.98637">
        <ele>1015.77</ele>
        <time>2015-05-11T12:22:40Z</time>
      </trkpt>
      <trkpt lat="44.36953" lon="5.98637">
        <ele>1011.93</ele>
        <time>2015-05-11T12:22:41Z</time>
      </trkpt>
      <trkpt lat="44.36954" lon="5.98638">
        <ele>1005.2</ele>
        <time>2015-05-11T12:22:44Z</time>
      </trkpt>
      <trkpt lat="44.36954" lon="5.98638">
        <ele>1011.93</ele>
        <time>2015-05-11T12:22:45Z</time>
      </trkpt>
      <trkpt lat="44.36955" lon="5.98639">
        <ele>1010.48</ele>
        <time>2015-05-11T12:22:47Z</time>
      </trkpt>
      <trkpt lat="44.36956" lon="5.98642">
        <ele>1009.04</ele>
        <time>2015-05-11T12:22:49Z</time>
      </trkpt>
      <trkpt lat="44.36956" lon="5.98643">
        <ele>1005.68</ele>
        <time>2015-05-11T12:22:50Z</time>
      </trkpt>
      <trkpt lat="44.36957" lon="5.98644">
        <ele>1011.93</ele>
        <time>2015-05-11T12:22:51Z</time>
      </trkpt>
      <trkpt lat="44.36957" lon="5.98644">
        <ele>1000.39</ele>
        <time>2015-05-11T12:22:52Z</time>
      </trkpt>
      <trkpt lat="44.36958" lon="5.98645">
        <ele>1013.37</ele>
        <time>2015-05-11T12:22:53Z</time>
      </trkpt>
      <trkpt lat="44.36958" lon="5.98646">
        <ele>1003.75</ele>
        <time>2015-05-11T12:22:55Z</time>
      </trkpt>
      <trkpt lat="44.36958" lon="5.98646">
        <ele>1009.52</ele>
        <time>2015-05-11T12:22:56Z</time>
      </trkpt>
      <trkpt lat="44.36959" lon="5.98646">
        <ele>1015.29</ele>
        <time>2015-05-11T12:22:57Z</time>
      </trkpt>
      <trkpt lat="44.36959" lon="5.98646">
        <ele>1005.2</ele>
        <time>2015-05-11T12:22:58Z</time>
      </trkpt>
      <trkpt lat="44.36959" lon="5.98646">
        <ele>1013.85</ele>
        <time>2015-05-11T12:22:59Z</time>
      </trkpt>
      <trkpt lat="44.36961" lon="5.98647">
        <ele>1006.16</ele>
        <time>2015-05-11T12:23:01Z</time>
      </trkpt>
      <trkpt lat="44.36961" lon="5.98647">
        <ele>1012.89</ele>
        <time>2015-05-11T12:23:02Z</time>
      </trkpt>
      <trkpt lat="44.36961" lon="5.98647">
        <ele>1009.52</ele>
        <time>2015-05-11T12:23:03Z</time>
      </trkpt>
      <trkpt lat="44.36962" lon="5.98646">
        <ele>1021.06</ele>
        <time>2015-05-11T12:23:05Z</time>
      </trkpt>
      <trkpt lat="44.36962" lon="5.98647">
        <ele>1006.64</ele>
        <time>2015-05-11T12:23:06Z</time>
      </trkpt>
      <trkpt lat="44.36962" lon="5.98647">
        <ele>1016.25</ele>
        <time>2015-05-11T12:23:07Z</time>
      </trkpt>
      <trkpt lat="44.36963" lon="5.98647">
        <ele>1003.75</ele>
        <time>2015-05-11T12:23:08Z</time>
      </trkpt>
      <trkpt lat="44.36963" lon="5.98647">
        <ele>1016.73</ele>
        <time>2015-05-11T12:23:09Z</time>
      </trkpt>
      <trkpt lat="44.36963" lon="5.98647">
        <ele>1011.44</ele>
        <time>2015-05-11T12:23:11Z</time>
      </trkpt>
      <trkpt lat="44.36963" lon="5.98648">
        <ele>1014.33</ele>
        <time>2015-05-11T12:23:12Z</time>
      </trkpt>
      <trkpt lat="44.36965" lon="5.98648">
        <ele>1018.65</ele>
        <time>2015-05-11T12:23:16Z</time>
      </trkpt>
      <trkpt lat="44.36965" lon="5.98648">
        <ele>1011.93</ele>
        <time>2015-05-11T12:23:17Z</time>
      </trkpt>
      <trkpt lat="44.36965" lon="5.98648">
        <ele>1015.29</ele>
        <time>2015-05-11T12:23:18Z</time>
      </trkpt>
      <trkpt lat="44.36968" lon="5.98648">
        <ele>1010.48</ele>
        <time>2015-05-11T12:23:23Z</time>
      </trkpt>
      <trkpt lat="44.36968" lon="5.98648">
        <ele>1016.25</ele>
        <time>2015-05-11T12:23:24Z</time>
      </trkpt>
      <trkpt lat="44.36968" lon="5.98649">
        <ele>1022.02</ele>
        <time>2015-05-11T12:23:25Z</time>
      </trkpt>
      <trkpt lat="44.36968" lon="5.98649">
        <ele>1019.13</ele>
        <time>2015-05-11T12:23:26Z</time>
      </trkpt>
      <trkpt lat="44.36969" lon="5.98649">
        <ele>1018.17</ele>
        <time>2015-05-11T12:23:28Z</time>
      </trkpt>
      <trkpt lat="44.3697" lon="5.98649">
        <ele>1014.81</ele>
        <time>2015-05-11T12:23:30Z</time>
      </trkpt>
      <trkpt lat="44.3697" lon="5.98649">
        <ele>1018.17</ele>
        <time>2015-05-11T12:23:31Z</time>
      </trkpt>
      <trkpt lat="44.3697" lon="5.98648">
        <ele>1012.89</ele>
        <time>2015-05-11T12:23:32Z</time>
      </trkpt>
      <trkpt lat="44.36971" lon="5.98647">
        <ele>1017.21</ele>
        <time>2015-05-11T12:23:33Z</time>
      </trkpt>
      <trkpt lat="44.36973" lon="5.98642">
        <ele>1022.02</ele>
        <time>2015-05-11T12:23:40Z</time>
      </trkpt>
      <trkpt lat="44.36973" lon="5.98642">
        <ele>1018.65</ele>
        <time>2015-05-11T12:23:42Z</time>
      </trkpt>
      <trkpt lat="44.36974" lon="5.98642">
        <ele>1021.06</ele>
        <time>2015-05-11T12:23:46Z</time>
      </trkpt>
      <trkpt lat="44.36975" lon="5.9864">
        <ele>1017.21</ele>
        <time>2015-05-11T12:23:49Z</time>
      </trkpt>
      <trkpt lat="44.36975" lon="5.9864">
        <ele>1011.44</ele>
        <time>2015-05-11T12:23:50Z</time>
      </trkpt>
      <trkpt lat="44.36976" lon="5.98639">
        <ele>1024.42</ele>
        <time>2015-05-11T12:23:51Z</time>
      </trkpt>
      <trkpt lat="44.36976" lon="5.98639">
        <ele>1022.98</ele>
        <time>2015-05-11T12:23:52Z</time>
      </trkpt>
      <trkpt lat="44.36977" lon="5.98639">
        <ele>1021.54</ele>
        <time>2015-05-11T12:23:54Z</time>
      </trkpt>
      <trkpt lat="44.36977" lon="5.98639">
        <ele>1011.93</ele>
        <time>2015-05-11T12:23:58Z</time>
      </trkpt>
      <trkpt lat="44.36977" lon="5.98639">
        <ele>1023.46</ele>
        <time>2015-05-11T12:24:00Z</time>
      </trkpt>
      <trkpt lat="44.36977" lon="5.98639">
        <ele>1022.02</ele>
        <time>2015-05-11T12:24:01Z</time>
      </trkpt>
      <trkpt lat="44.36977" lon="5.98639">
        <ele>1016.73</ele>
        <time>2015-05-11T12:24:11Z</time>
      </trkpt>
      <trkpt lat="44.36977" lon="5.98639">
        <ele>1021.54</ele>
        <time>2015-05-11T12:24:12Z</time>
      </trkpt>
      <trkpt lat="44.36977" lon="5.98639">
        <ele>1017.69</ele>
        <time>2015-05-11T12:24:15Z</time>
      </trkpt>
      <trkpt lat="44.36977" lon="5.98639">
        <ele>1021.54</ele>
        <time>2015-05-11T12:24:16Z</time>
      </trkpt>
      <trkpt lat="44.36977" lon="5.98639">
        <ele>1021.54</ele>
        <time>2015-05-11T12:24:31Z</time>
      </trkpt>
      <trkpt lat="44.36979" lon="5.98637">
        <ele>1022.02</ele>
        <time>2015-05-11T12:25:04Z</time>
      </trkpt>
      <trkpt lat="44.3698" lon="5.98637">
        <ele>1022.02</ele>
        <time>2015-05-11T12:25:40Z</time>
      </trkpt>
      <trkpt lat="44.3698" lon="5.98637">
        <ele>1024.9</ele>
        <time>2015-05-11T12:26:50Z</time>
      </trkpt>
      <trkpt lat="44.3698" lon="5.98637">
        <ele>1020.1</ele>
        <time>2015-05-11T12:27:00Z</time>
      </trkpt>
      <trkpt lat="44.3698" lon="5.98637">
        <ele>1022.98</ele>
        <time>2015-05-11T12:27:06Z</time>
      </trkpt>
      <trkpt lat="44.36981" lon="5.98636">
        <ele>1022.5</ele>
        <time>2015-05-11T12:28:03Z</time>
      </trkpt>
      <trkpt lat="44.36981" lon="5.98637">
        <ele>1022.5</ele>
        <time>2015-05-11T12:30:27Z</time>
      </trkpt>
      <trkpt lat="44.36984" lon="5.98635">
        <ele>1024.42</ele>
        <time>2015-05-11T12:32:12Z</time>
      </trkpt>
      <trkpt lat="44.36984" lon="5.98635">
        <ele>1023.46</ele>
        <time>2015-05-11T12:32:13Z</time>
      </trkpt>
      <trkpt lat="44.36986" lon="5.98632">
        <ele>1021.06</ele>
        <time>2015-05-11T12:32:15Z</time>
      </trkpt>
      <trkpt lat="44.36986" lon="5.98632">
        <ele>1024.42</ele>
        <time>2015-05-11T12:32:16Z</time>
      </trkpt>
      <trkpt lat="44.36989" lon="5.98629">
        <ele>1025.38</ele>
        <time>2015-05-11T12:32:22Z</time>
      </trkpt>
      <trkpt lat="44.36994" lon="5.98628">
        <ele>1026.34</ele>
        <time>2015-05-11T12:32:36Z</time>
      </trkpt>
      <trkpt lat="44.36995" lon="5.98626">
        <ele>1027.79</ele>
        <time>2015-05-11T12:32:38Z</time>
      </trkpt>
      <trkpt lat="44.36996" lon="5.98625">
        <ele>1026.83</ele>
        <time>2015-05-11T12:32:39Z</time>
      </trkpt>
      <trkpt lat="44.37003" lon="5.98624">
        <ele>1028.75</ele>
        <time>2015-05-11T12:32:52Z</time>
      </trkpt>
      <trkpt lat="44.37007" lon="5.98621">
        <ele>1031.15</ele>
        <time>2015-05-11T12:33:02Z</time>
      </trkpt>
      <trkpt lat="44.37014" lon="5.98618">
        <ele>1033.55</ele>
        <time>2015-05-11T12:33:15Z</time>
      </trkpt>
      <trkpt lat="44.37018" lon="5.98617">
        <ele>1033.55</ele>
        <time>2015-05-11T12:33:24Z</time>
      </trkpt>
      <trkpt lat="44.37023" lon="5.98614">
        <ele>1032.59</ele>
        <time>2015-05-11T12:33:35Z</time>
      </trkpt>
      <trkpt lat="44.37024" lon="5.98614">
        <ele>1036.44</ele>
        <time>2015-05-11T12:33:37Z</time>
      </trkpt>
      <trkpt lat="44.37024" lon="5.98614">
        <ele>1035.96</ele>
        <time>2015-05-11T12:33:38Z</time>
      </trkpt>
      <trkpt lat="44.37025" lon="5.98613">
        <ele>1035</ele>
        <time>2015-05-11T12:33:40Z</time>
      </trkpt>
      <trkpt lat="44.37031" lon="5.98609">
        <ele>1034.52</ele>
        <time>2015-05-11T12:33:52Z</time>
      </trkpt>
      <trkpt lat="44.37038" lon="5.9861">
        <ele>1039.32</ele>
        <time>2015-05-11T12:34:03Z</time>
      </trkpt>
      <trkpt lat="44.37041" lon="5.98614">
        <ele>1039.32</ele>
        <time>2015-05-11T12:34:14Z</time>
      </trkpt>
      <trkpt lat="44.37045" lon="5.98619">
        <ele>1039.32</ele>
        <time>2015-05-11T12:34:24Z</time>
      </trkpt>
      <trkpt lat="44.37046" lon="5.98621">
        <ele>1042.21</ele>
        <time>2015-05-11T12:34:30Z</time>
      </trkpt>
      <trkpt lat="44.37046" lon="5.98622">
        <ele>1038.84</ele>
        <time>2015-05-11T12:34:32Z</time>
      </trkpt>
      <trkpt lat="44.37047" lon="5.98623">
        <ele>1042.21</ele>
        <time>2015-05-11T12:34:33Z</time>
      </trkpt>
      <trkpt lat="44.3705" lon="5.98629">
        <ele>1043.17</ele>
        <time>2015-05-11T12:34:43Z</time>
      </trkpt>
      <trkpt lat="44.37053" lon="5.98629">
        <ele>1042.21</ele>
        <time>2015-05-11T12:34:51Z</time>
      </trkpt>
      <trkpt lat="44.37057" lon="5.98628">
        <ele>1046.05</ele>
        <time>2015-05-11T12:34:58Z</time>
      </trkpt>
      <trkpt lat="44.3706" lon="5.98628">
        <ele>1045.57</ele>
        <time>2015-05-11T12:35:02Z</time>
      </trkpt>
      <trkpt lat="44.37066" lon="5.9863">
        <ele>1047.49</ele>
        <time>2015-05-11T12:35:11Z</time>
      </trkpt>
      <trkpt lat="44.3707" lon="5.98633">
        <ele>1047.97</ele>
        <time>2015-05-11T12:35:18Z</time>
      </trkpt>
      <trkpt lat="44.37077" lon="5.98632">
        <ele>1049.42</ele>
        <time>2015-05-11T12:35:29Z</time>
      </trkpt>
      <trkpt lat="44.37081" lon="5.98632">
        <ele>1047.49</ele>
        <time>2015-05-11T12:35:42Z</time>
      </trkpt>
      <trkpt lat="44.37082" lon="5.98632">
        <ele>1050.38</ele>
        <time>2015-05-11T12:35:44Z</time>
      </trkpt>
      <trkpt lat="44.3709" lon="5.9863">
        <ele>1052.3</ele>
        <time>2015-05-11T12:35:54Z</time>
      </trkpt>
      <trkpt lat="44.37095" lon="5.98627">
        <ele>1053.26</ele>
        <time>2015-05-11T12:36:04Z</time>
      </trkpt>
      <trkpt lat="44.37095" lon="5.98627">
        <ele>1049.42</ele>
        <time>2015-05-11T12:36:05Z</time>
      </trkpt>
      <trkpt lat="44.37096" lon="5.98626">
        <ele>1052.78</ele>
        <time>2015-05-11T12:36:07Z</time>
      </trkpt>
      <trkpt lat="44.37101" lon="5.98624">
        <ele>1054.7</ele>
        <time>2015-05-11T12:36:14Z</time>
      </trkpt>
      <trkpt lat="44.37106" lon="5.98618">
        <ele>1053.26</ele>
        <time>2015-05-11T12:36:25Z</time>
      </trkpt>
      <trkpt lat="44.3711" lon="5.98614">
        <ele>1056.63</ele>
        <time>2015-05-11T12:36:32Z</time>
      </trkpt>
      <trkpt lat="44.37117" lon="5.98612">
        <ele>1058.07</ele>
        <time>2015-05-11T12:36:44Z</time>
      </trkpt>
      <trkpt lat="44.37119" lon="5.98611">
        <ele>1058.07</ele>
        <time>2015-05-11T12:36:59Z</time>
      </trkpt>
      <trkpt lat="44.3712" lon="5.98611">
        <ele>1059.03</ele>
        <time>2015-05-11T12:37:05Z</time>
      </trkpt>
      <trkpt lat="44.37126" lon="5.9861">
        <ele>1060.47</ele>
        <time>2015-05-11T12:37:19Z</time>
      </trkpt>
      <trkpt lat="44.37133" lon="5.98609">
        <ele>1061.43</ele>
        <time>2015-05-11T12:37:32Z</time>
      </trkpt>
      <trkpt lat="44.37133" lon="5.98609">
        <ele>1062.87</ele>
        <time>2015-05-11T12:37:35Z</time>
      </trkpt>
      <trkpt lat="44.37137" lon="5.98609">
        <ele>1063.84</ele>
        <time>2015-05-11T12:37:42Z</time>
      </trkpt>
      <trkpt lat="44.37139" lon="5.98609">
        <ele>1064.32</ele>
        <time>2015-05-11T12:37:49Z</time>
      </trkpt>
      <trkpt lat="44.37142" lon="5.9861">
        <ele>1067.2</ele>
        <time>2015-05-11T12:37:54Z</time>
      </trkpt>
      <trkpt lat="44.37143" lon="5.98609">
        <ele>1063.84</ele>
        <time>2015-05-11T12:37:57Z</time>
      </trkpt>
      <trkpt lat="44.37145" lon="5.98609">
        <ele>1068.16</ele>
        <time>2015-05-11T12:38:01Z</time>
      </trkpt>
      <trkpt lat="44.37149" lon="5.98608">
        <ele>1067.68</ele>
        <time>2015-05-11T12:38:14Z</time>
      </trkpt>
      <trkpt lat="44.37149" lon="5.98609">
        <ele>1064.8</ele>
        <time>2015-05-11T12:38:17Z</time>
      </trkpt>
      <trkpt lat="44.37149" lon="5.98609">
        <ele>1068.64</ele>
        <time>2015-05-11T12:38:18Z</time>
      </trkpt>
      <trkpt lat="44.37155" lon="5.98609">
        <ele>1067.2</ele>
        <time>2015-05-11T12:38:37Z</time>
      </trkpt>
      <trkpt lat="44.37155" lon="5.98609">
        <ele>1071.05</ele>
        <time>2015-05-11T12:38:38Z</time>
      </trkpt>
      <trkpt lat="44.37157" lon="5.98609">
        <ele>1072.49</ele>
        <time>2015-05-11T12:38:45Z</time>
      </trkpt>
      <trkpt lat="44.37161" lon="5.98608">
        <ele>1072.49</ele>
        <time>2015-05-11T12:38:55Z</time>
      </trkpt>
      <trkpt lat="44.37162" lon="5.98608">
        <ele>1067.2</ele>
        <time>2015-05-11T12:38:57Z</time>
      </trkpt>
      <trkpt lat="44.37162" lon="5.98608">
        <ele>1074.89</ele>
        <time>2015-05-11T12:38:58Z</time>
      </trkpt>
      <trkpt lat="44.37168" lon="5.98604">
        <ele>1073.93</ele>
        <time>2015-05-11T12:39:09Z</time>
      </trkpt>
      <trkpt lat="44.3717" lon="5.98603">
        <ele>1077.29</ele>
        <time>2015-05-11T12:39:13Z</time>
      </trkpt>
      <trkpt lat="44.37175" lon="5.98602">
        <ele>1074.89</ele>
        <time>2015-05-11T12:39:24Z</time>
      </trkpt>
      <trkpt lat="44.37175" lon="5.98602">
        <ele>1078.74</ele>
        <time>2015-05-11T12:39:31Z</time>
      </trkpt>
      <trkpt lat="44.37177" lon="5.98602">
        <ele>1074.41</ele>
        <time>2015-05-11T12:39:37Z</time>
      </trkpt>
      <trkpt lat="44.37177" lon="5.98602">
        <ele>1078.26</ele>
        <time>2015-05-11T12:39:38Z</time>
      </trkpt>
      <trkpt lat="44.37179" lon="5.98602">
        <ele>1077.78</ele>
        <time>2015-05-11T12:39:47Z</time>
      </trkpt>
      <trkpt lat="44.37181" lon="5.98604">
        <ele>1080.66</ele>
        <time>2015-05-11T12:39:58Z</time>
      </trkpt>
      <trkpt lat="44.37181" lon="5.98604">
        <ele>1077.29</ele>
        <time>2015-05-11T12:39:59Z</time>
      </trkpt>
      <trkpt lat="44.37182" lon="5.98602">
        <ele>1080.66</ele>
        <time>2015-05-11T12:40:02Z</time>
      </trkpt>
      <trkpt lat="44.37187" lon="5.98603">
        <ele>1082.58</ele>
        <time>2015-05-11T12:40:14Z</time>
      </trkpt>
      <trkpt lat="44.37187" lon="5.98602">
        <ele>1079.22</ele>
        <time>2015-05-11T12:40:15Z</time>
      </trkpt>
      <trkpt lat="44.37187" lon="5.98602">
        <ele>1082.58</ele>
        <time>2015-05-11T12:40:16Z</time>
      </trkpt>
      <trkpt lat="44.3719" lon="5.98604">
        <ele>1078.26</ele>
        <time>2015-05-11T12:40:22Z</time>
      </trkpt>
      <trkpt lat="44.3719" lon="5.98604">
        <ele>1084.5</ele>
        <time>2015-05-11T12:40:23Z</time>
      </trkpt>
      <trkpt lat="44.37192" lon="5.98606">
        <ele>1083.54</ele>
        <time>2015-05-11T12:40:42Z</time>
      </trkpt>
      <trkpt lat="44.37195" lon="5.98604">
        <ele>1086.91</ele>
        <time>2015-05-11T12:40:58Z</time>
      </trkpt>
      <trkpt lat="44.37196" lon="5.98605">
        <ele>1086.91</ele>
        <time>2015-05-11T12:40:59Z</time>
      </trkpt>
      <trkpt lat="44.37196" lon="5.98605">
        <ele>1085.47</ele>
        <time>2015-05-11T12:41:02Z</time>
      </trkpt>
      <trkpt lat="44.37197" lon="5.98607">
        <ele>1086.43</ele>
        <time>2015-05-11T12:41:22Z</time>
      </trkpt>
      <trkpt lat="44.37198" lon="5.98611">
        <ele>1089.31</ele>
        <time>2015-05-11T12:41:50Z</time>
      </trkpt>
      <trkpt lat="44.37198" lon="5.98612">
        <ele>1085.47</ele>
        <time>2015-05-11T12:41:51Z</time>
      </trkpt>
      <trkpt lat="44.37198" lon="5.98612">
        <ele>1088.83</ele>
        <time>2015-05-11T12:41:52Z</time>
      </trkpt>
      <trkpt lat="44.372" lon="5.98617">
        <ele>1091.71</ele>
        <time>2015-05-11T12:42:05Z</time>
      </trkpt>
      <trkpt lat="44.372" lon="5.98618">
        <ele>1087.39</ele>
        <time>2015-05-11T12:42:14Z</time>
      </trkpt>
      <trkpt lat="44.372" lon="5.98618">
        <ele>1093.16</ele>
        <time>2015-05-11T12:42:15Z</time>
      </trkpt>
      <trkpt lat="44.372" lon="5.98618">
        <ele>1092.2</ele>
        <time>2015-05-11T12:42:16Z</time>
      </trkpt>
      <trkpt lat="44.372" lon="5.98621">
        <ele>1096.52</ele>
        <time>2015-05-11T12:42:28Z</time>
      </trkpt>
      <trkpt lat="44.372" lon="5.98621">
        <ele>1095.56</ele>
        <time>2015-05-11T12:42:29Z</time>
      </trkpt>
      <trkpt lat="44.372" lon="5.98622">
        <ele>1087.87</ele>
        <time>2015-05-11T12:42:32Z</time>
      </trkpt>
      <trkpt lat="44.372" lon="5.98622">
        <ele>1094.6</ele>
        <time>2015-05-11T12:42:33Z</time>
      </trkpt>
      <trkpt lat="44.37201" lon="5.98623">
        <ele>1078.26</ele>
        <time>2015-05-11T12:42:35Z</time>
      </trkpt>
      <trkpt lat="44.37201" lon="5.98625">
        <ele>1100.85</ele>
        <time>2015-05-11T12:42:36Z</time>
      </trkpt>
      <trkpt lat="44.37201" lon="5.98625">
        <ele>1095.56</ele>
        <time>2015-05-11T12:42:37Z</time>
      </trkpt>
      <trkpt lat="44.37201" lon="5.98633">
        <ele>1094.6</ele>
        <time>2015-05-11T12:42:51Z</time>
      </trkpt>
      <trkpt lat="44.37201" lon="5.98635">
        <ele>1099.89</ele>
        <time>2015-05-11T12:42:53Z</time>
      </trkpt>
      <trkpt lat="44.37201" lon="5.98635">
        <ele>1098.44</ele>
        <time>2015-05-11T12:42:54Z</time>
      </trkpt>
      <trkpt lat="44.37201" lon="5.98637">
        <ele>1094.6</ele>
        <time>2015-05-11T12:43:03Z</time>
      </trkpt>
      <trkpt lat="44.37201" lon="5.98637">
        <ele>1098.92</ele>
        <time>2015-05-11T12:43:04Z</time>
      </trkpt>
      <trkpt lat="44.37203" lon="5.98639">
        <ele>1093.16</ele>
        <time>2015-05-11T12:43:12Z</time>
      </trkpt>
      <trkpt lat="44.37203" lon="5.98639">
        <ele>1101.81</ele>
        <time>2015-05-11T12:43:13Z</time>
      </trkpt>
      <trkpt lat="44.37203" lon="5.98639">
        <ele>1098.44</ele>
        <time>2015-05-11T12:43:39Z</time>
      </trkpt>
      <trkpt lat="44.37204" lon="5.98636">
        <ele>1099.4</ele>
        <time>2015-05-11T12:44:03Z</time>
      </trkpt>
      <trkpt lat="44.37204" lon="5.98636">
        <ele>1099.89</ele>
        <time>2015-05-11T12:44:26Z</time>
      </trkpt>
      <trkpt lat="44.37204" lon="5.98637">
        <ele>1094.6</ele>
        <time>2015-05-11T12:44:55Z</time>
      </trkpt>
      <trkpt lat="44.37205" lon="5.98638">
        <ele>1099.4</ele>
        <time>2015-05-11T12:44:56Z</time>
      </trkpt>
      <trkpt lat="44.37205" lon="5.9864">
        <ele>1102.77</ele>
        <time>2015-05-11T12:44:58Z</time>
      </trkpt>
      <trkpt lat="44.37205" lon="5.98641">
        <ele>1102.29</ele>
        <time>2015-05-11T12:45:22Z</time>
      </trkpt>
      <trkpt lat="44.37207" lon="5.98642">
        <ele>1102.77</ele>
        <time>2015-05-11T12:46:10Z</time>
      </trkpt>
      <trkpt lat="44.3721" lon="5.98643">
        <ele>1104.69</ele>
        <time>2015-05-11T12:46:17Z</time>
      </trkpt>
      <trkpt lat="44.37212" lon="5.9864">
        <ele>1106.61</ele>
        <time>2015-05-11T12:46:32Z</time>
      </trkpt>
      <trkpt lat="44.37214" lon="5.98638">
        <ele>1109.98</ele>
        <time>2015-05-11T12:46:44Z</time>
      </trkpt>
      <trkpt lat="44.37217" lon="5.98639">
        <ele>1112.86</ele>
        <time>2015-05-11T12:46:50Z</time>
      </trkpt>
      <trkpt lat="44.37217" lon="5.9864">
        <ele>1109.5</ele>
        <time>2015-05-11T12:46:53Z</time>
      </trkpt>
      <trkpt lat="44.37217" lon="5.98641">
        <ele>1111.42</ele>
        <time>2015-05-11T12:46:56Z</time>
      </trkpt>
      <trkpt lat="44.37218" lon="5.98641">
        <ele>1108.06</ele>
        <time>2015-05-11T12:47:00Z</time>
      </trkpt>
      <trkpt lat="44.37218" lon="5.98641">
        <ele>1111.42</ele>
        <time>2015-05-11T12:47:01Z</time>
      </trkpt>
      <trkpt lat="44.3722" lon="5.98642">
        <ele>1107.58</ele>
        <time>2015-05-11T12:47:08Z</time>
      </trkpt>
      <trkpt lat="44.3722" lon="5.98642">
        <ele>1111.9</ele>
        <time>2015-05-11T12:47:09Z</time>
      </trkpt>
      <trkpt lat="44.37223" lon="5.98643">
        <ele>1107.58</ele>
        <time>2015-05-11T12:47:16Z</time>
      </trkpt>
      <trkpt lat="44.37223" lon="5.98643">
        <ele>1113.82</ele>
        <time>2015-05-11T12:47:17Z</time>
      </trkpt>
      <trkpt lat="44.37223" lon="5.98642">
        <ele>1113.82</ele>
        <time>2015-05-11T12:47:18Z</time>
      </trkpt>
      <trkpt lat="44.37226" lon="5.98641">
        <ele>1115.27</ele>
        <time>2015-05-11T12:47:30Z</time>
      </trkpt>
      <trkpt lat="44.37228" lon="5.9864">
        <ele>1114.31</ele>
        <time>2015-05-11T12:47:32Z</time>
      </trkpt>
      <trkpt lat="44.3723" lon="5.9864">
        <ele>1115.27</ele>
        <time>2015-05-11T12:47:35Z</time>
      </trkpt>
      <trkpt lat="44.37232" lon="5.9864">
        <ele>1112.86</ele>
        <time>2015-05-11T12:47:38Z</time>
      </trkpt>
      <trkpt lat="44.37232" lon="5.9864">
        <ele>1115.75</ele>
        <time>2015-05-11T12:47:39Z</time>
      </trkpt>
      <trkpt lat="44.37237" lon="5.98636">
        <ele>1118.63</ele>
        <time>2015-05-11T12:47:48Z</time>
      </trkpt>
      <trkpt lat="44.37238" lon="5.98636">
        <ele>1115.27</ele>
        <time>2015-05-11T12:47:49Z</time>
      </trkpt>
      <trkpt lat="44.37238" lon="5.98635">
        <ele>1118.63</ele>
        <time>2015-05-11T12:47:50Z</time>
      </trkpt>
      <trkpt lat="44.37242" lon="5.98634">
        <ele>1119.59</ele>
        <time>2015-05-11T12:48:02Z</time>
      </trkpt>
      <trkpt lat="44.37243" lon="5.98635">
        <ele>1120.55</ele>
        <time>2015-05-11T12:48:23Z</time>
      </trkpt>
      <trkpt lat="44.37243" lon="5.98635">
        <ele>1119.59</ele>
        <time>2015-05-11T12:48:25Z</time>
      </trkpt>
      <trkpt lat="44.37244" lon="5.98635">
        <ele>1120.07</ele>
        <time>2015-05-11T12:49:01Z</time>
      </trkpt>
      <trkpt lat="44.37244" lon="5.98635">
        <ele>1121.52</ele>
        <time>2015-05-11T12:49:04Z</time>
      </trkpt>
      <trkpt lat="44.37245" lon="5.98635">
        <ele>1120.07</ele>
        <time>2015-05-11T12:50:39Z</time>
      </trkpt>
      <trkpt lat="44.37246" lon="5.98634">
        <ele>1122.96</ele>
        <time>2015-05-11T12:51:32Z</time>
      </trkpt>
      <trkpt lat="44.37246" lon="5.98634">
        <ele>1121.52</ele>
        <time>2015-05-11T12:51:35Z</time>
      </trkpt>
      <trkpt lat="44.37246" lon="5.98634">
        <ele>1121.52</ele>
        <time>2015-05-11T12:53:24Z</time>
      </trkpt>
      <trkpt lat="44.37246" lon="5.98634">
        <ele>1121.52</ele>
        <time>2015-05-11T12:55:06Z</time>
      </trkpt>
      <trkpt lat="44.37248" lon="5.98635">
        <ele>1125.84</ele>
        <time>2015-05-11T12:55:24Z</time>
      </trkpt>
      <trkpt lat="44.37252" lon="5.98632">
        <ele>1127.28</ele>
        <time>2015-05-11T12:55:39Z</time>
      </trkpt>
      <trkpt lat="44.37255" lon="5.9863">
        <ele>1128.24</ele>
        <time>2015-05-11T12:55:49Z</time>
      </trkpt>
      <trkpt lat="44.37261" lon="5.98627">
        <ele>1131.13</ele>
        <time>2015-05-11T12:56:02Z</time>
      </trkpt>
      <trkpt lat="44.37266" lon="5.98621">
        <ele>1129.21</ele>
        <time>2015-05-11T12:56:11Z</time>
      </trkpt>
      <trkpt lat="44.37267" lon="5.98616">
        <ele>1130.65</ele>
        <time>2015-05-11T12:56:15Z</time>
      </trkpt>
      <trkpt lat="44.3727" lon="5.98608">
        <ele>1131.61</ele>
        <time>2015-05-11T12:56:25Z</time>
      </trkpt>
      <trkpt lat="44.37271" lon="5.98603">
        <ele>1132.09</ele>
        <time>2015-05-11T12:56:32Z</time>
      </trkpt>
      <trkpt lat="44.37274" lon="5.98598">
        <ele>1129.21</ele>
        <time>2015-05-11T12:56:38Z</time>
      </trkpt>
      <trkpt lat="44.37275" lon="5.98598">
        <ele>1133.05</ele>
        <time>2015-05-11T12:56:39Z</time>
      </trkpt>
      <trkpt lat="44.37284" lon="5.98595">
        <ele>1134.97</ele>
        <time>2015-05-11T12:56:51Z</time>
      </trkpt>
      <trkpt lat="44.3729" lon="5.98595">
        <ele>1134.97</ele>
        <time>2015-05-11T12:57:00Z</time>
      </trkpt>
      <trkpt lat="44.37293" lon="5.98587">
        <ele>1135.45</ele>
        <time>2015-05-11T12:57:11Z</time>
      </trkpt>
      <trkpt lat="44.37293" lon="5.98584">
        <ele>1136.42</ele>
        <time>2015-05-11T12:57:13Z</time>
      </trkpt>
      <trkpt lat="44.37295" lon="5.98573">
        <ele>1136.42</ele>
        <time>2015-05-11T12:57:24Z</time>
      </trkpt>
      <trkpt lat="44.37296" lon="5.98562">
        <ele>1137.86</ele>
        <time>2015-05-11T12:57:34Z</time>
      </trkpt>
      <trkpt lat="44.37296" lon="5.9856">
        <ele>1137.38</ele>
        <time>2015-05-11T12:57:35Z</time>
      </trkpt>
      <trkpt lat="44.373" lon="5.9855">
        <ele>1138.82</ele>
        <time>2015-05-11T12:57:47Z</time>
      </trkpt>
      <trkpt lat="44.37304" lon="5.98544">
        <ele>1141.7</ele>
        <time>2015-05-11T12:57:55Z</time>
      </trkpt>
      <trkpt lat="44.37304" lon="5.98543">
        <ele>1137.86</ele>
        <time>2015-05-11T12:57:56Z</time>
      </trkpt>
      <trkpt lat="44.37305" lon="5.98543">
        <ele>1141.22</ele>
        <time>2015-05-11T12:57:58Z</time>
      </trkpt>
      <trkpt lat="44.37311" lon="5.98537">
        <ele>1140.74</ele>
        <time>2015-05-11T12:58:09Z</time>
      </trkpt>
      <trkpt lat="44.37313" lon="5.98533">
        <ele>1142.18</ele>
        <time>2015-05-11T12:58:14Z</time>
      </trkpt>
      <trkpt lat="44.37316" lon="5.98532">
        <ele>1142.18</ele>
        <time>2015-05-11T12:58:20Z</time>
      </trkpt>
      <trkpt lat="44.3732" lon="5.98525">
        <ele>1143.63</ele>
        <time>2015-05-11T12:58:31Z</time>
      </trkpt>
      <trkpt lat="44.37325" lon="5.9852">
        <ele>1144.59</ele>
        <time>2015-05-11T12:58:42Z</time>
      </trkpt>
      <trkpt lat="44.37332" lon="5.98515">
        <ele>1146.51</ele>
        <time>2015-05-11T12:58:53Z</time>
      </trkpt>
      <trkpt lat="44.37339" lon="5.98508">
        <ele>1147.95</ele>
        <time>2015-05-11T12:59:05Z</time>
      </trkpt>
      <trkpt lat="44.37343" lon="5.98503">
        <ele>1147.95</ele>
        <time>2015-05-11T12:59:15Z</time>
      </trkpt>
      <trkpt lat="44.37347" lon="5.98497">
        <ele>1149.87</ele>
        <time>2015-05-11T12:59:25Z</time>
      </trkpt>
      <trkpt lat="44.37348" lon="5.98493">
        <ele>1149.87</ele>
        <time>2015-05-11T12:59:29Z</time>
      </trkpt>
      <trkpt lat="44.37349" lon="5.98492">
        <ele>1148.43</ele>
        <time>2015-05-11T12:59:32Z</time>
      </trkpt>
      <trkpt lat="44.37351" lon="5.98488">
        <ele>1150.84</ele>
        <time>2015-05-11T12:59:44Z</time>
      </trkpt>
      <trkpt lat="44.37352" lon="5.98488">
        <ele>1151.32</ele>
        <time>2015-05-11T12:59:45Z</time>
      </trkpt>
      <trkpt lat="44.37357" lon="5.98482">
        <ele>1152.28</ele>
        <time>2015-05-11T12:59:58Z</time>
      </trkpt>
      <trkpt lat="44.3736" lon="5.9848">
        <ele>1155.16</ele>
        <time>2015-05-11T13:00:08Z</time>
      </trkpt>
      <trkpt lat="44.37361" lon="5.98479">
        <ele>1152.28</ele>
        <time>2015-05-11T13:00:11Z</time>
      </trkpt>
      <trkpt lat="44.37363" lon="5.98475">
        <ele>1155.16</ele>
        <time>2015-05-11T13:00:17Z</time>
      </trkpt>
      <trkpt lat="44.37368" lon="5.98469">
        <ele>1156.6</ele>
        <time>2015-05-11T13:00:31Z</time>
      </trkpt>
      <trkpt lat="44.37369" lon="5.98468">
        <ele>1158.53</ele>
        <time>2015-05-11T13:00:34Z</time>
      </trkpt>
      <trkpt lat="44.37373" lon="5.98465">
        <ele>1159.01</ele>
        <time>2015-05-11T13:00:47Z</time>
      </trkpt>
      <trkpt lat="44.37374" lon="5.98464">
        <ele>1154.2</ele>
        <time>2015-05-11T13:00:51Z</time>
      </trkpt>
      <trkpt lat="44.37374" lon="5.98464">
        <ele>1159.97</ele>
        <time>2015-05-11T13:00:52Z</time>
      </trkpt>
      <trkpt lat="44.37376" lon="5.9846">
        <ele>1161.41</ele>
        <time>2015-05-11T13:01:09Z</time>
      </trkpt>
      <trkpt lat="44.37382" lon="5.98454">
        <ele>1162.85</ele>
        <time>2015-05-11T13:01:24Z</time>
      </trkpt>
      <trkpt lat="44.37385" lon="5.98453">
        <ele>1164.77</ele>
        <time>2015-05-11T13:01:35Z</time>
      </trkpt>
      <trkpt lat="44.37388" lon="5.98452">
        <ele>1164.77</ele>
        <time>2015-05-11T13:01:43Z</time>
      </trkpt>
      <trkpt lat="44.37389" lon="5.98452">
        <ele>1165.26</ele>
        <time>2015-05-11T13:01:44Z</time>
      </trkpt>
      <trkpt lat="44.37394" lon="5.98448">
        <ele>1167.66</ele>
        <time>2015-05-11T13:01:54Z</time>
      </trkpt>
      <trkpt lat="44.37398" lon="5.98447">
        <ele>1168.62</ele>
        <time>2015-05-11T13:02:05Z</time>
      </trkpt>
      <trkpt lat="44.37401" lon="5.98446">
        <ele>1171.98</ele>
        <time>2015-05-11T13:02:18Z</time>
      </trkpt>
      <trkpt lat="44.37402" lon="5.98445">
        <ele>1168.62</ele>
        <time>2015-05-11T13:02:19Z</time>
      </trkpt>
      <trkpt lat="44.37402" lon="5.98445">
        <ele>1171.5</ele>
        <time>2015-05-11T13:02:20Z</time>
      </trkpt>
      <trkpt lat="44.37403" lon="5.98445">
        <ele>1169.1</ele>
        <time>2015-05-11T13:02:22Z</time>
      </trkpt>
      <trkpt lat="44.37404" lon="5.98443">
        <ele>1168.62</ele>
        <time>2015-05-11T13:02:24Z</time>
      </trkpt>
      <trkpt lat="44.37405" lon="5.98442">
        <ele>1173.43</ele>
        <time>2015-05-11T13:02:26Z</time>
      </trkpt>
      <trkpt lat="44.37409" lon="5.98439">
        <ele>1170.54</ele>
        <time>2015-05-11T13:02:34Z</time>
      </trkpt>
      <trkpt lat="44.3741" lon="5.98439">
        <ele>1174.39</ele>
        <time>2015-05-11T13:02:37Z</time>
      </trkpt>
      <trkpt lat="44.3741" lon="5.98439">
        <ele>1174.39</ele>
        <time>2015-05-11T13:02:38Z</time>
      </trkpt>
      <trkpt lat="44.37411" lon="5.98438">
        <ele>1171.5</ele>
        <time>2015-05-11T13:02:44Z</time>
      </trkpt>
      <trkpt lat="44.37411" lon="5.98437">
        <ele>1175.83</ele>
        <time>2015-05-11T13:02:45Z</time>
      </trkpt>
      <trkpt lat="44.37412" lon="5.98437">
        <ele>1171.98</ele>
        <time>2015-05-11T13:02:46Z</time>
      </trkpt>
      <trkpt lat="44.37413" lon="5.98435">
        <ele>1175.35</ele>
        <time>2015-05-11T13:02:51Z</time>
      </trkpt>
      <trkpt lat="44.37418" lon="5.98431">
        <ele>1178.71</ele>
        <time>2015-05-11T13:03:02Z</time>
      </trkpt>
      <trkpt lat="44.37418" lon="5.98431">
        <ele>1174.39</ele>
        <time>2015-05-11T13:03:03Z</time>
      </trkpt>
      <trkpt lat="44.37419" lon="5.98431">
        <ele>1178.23</ele>
        <time>2015-05-11T13:03:05Z</time>
      </trkpt>
      <trkpt lat="44.37422" lon="5.98428">
        <ele>1179.19</ele>
        <time>2015-05-11T13:03:16Z</time>
      </trkpt>
      <trkpt lat="44.37424" lon="5.98423">
        <ele>1179.19</ele>
        <time>2015-05-11T13:03:26Z</time>
      </trkpt>
      <trkpt lat="44.37427" lon="5.98417">
        <ele>1183.52</ele>
        <time>2015-05-11T13:03:34Z</time>
      </trkpt>
      <trkpt lat="44.37427" lon="5.98416">
        <ele>1180.16</ele>
        <time>2015-05-11T13:03:35Z</time>
      </trkpt>
      <trkpt lat="44.37428" lon="5.98415">
        <ele>1183.52</ele>
        <time>2015-05-11T13:03:36Z</time>
      </trkpt>
      <trkpt lat="44.37432" lon="5.98405">
        <ele>1183.04</ele>
        <time>2015-05-11T13:03:46Z</time>
      </trkpt>
      <trkpt lat="44.37437" lon="5.98398">
        <ele>1185.44</ele>
        <time>2015-05-11T13:03:58Z</time>
      </trkpt>
      <trkpt lat="44.37438" lon="5.98397">
        <ele>1182.08</ele>
        <time>2015-05-11T13:03:59Z</time>
      </trkpt>
      <trkpt lat="44.37439" lon="5.98396">
        <ele>1185.44</ele>
        <time>2015-05-11T13:04:01Z</time>
      </trkpt>
      <trkpt lat="44.37443" lon="5.98388">
        <ele>1186.88</ele>
        <time>2015-05-11T13:04:11Z</time>
      </trkpt>
      <trkpt lat="44.37443" lon="5.98387">
        <ele>1184</ele>
        <time>2015-05-11T13:04:12Z</time>
      </trkpt>
      <trkpt lat="44.37443" lon="5.98386">
        <ele>1185.44</ele>
        <time>2015-05-11T13:04:13Z</time>
      </trkpt>
      <trkpt lat="44.37444" lon="5.98384">
        <ele>1186.4</ele>
        <time>2015-05-11T13:04:15Z</time>
      </trkpt>
      <trkpt lat="44.37444" lon="5.98384">
        <ele>1188.33</ele>
        <time>2015-05-11T13:04:22Z</time>
      </trkpt>
      <trkpt lat="44.3745" lon="5.98375">
        <ele>1190.73</ele>
        <time>2015-05-11T13:04:34Z</time>
      </trkpt>
      <trkpt lat="44.3745" lon="5.98375">
        <ele>1187.85</ele>
        <time>2015-05-11T13:04:37Z</time>
      </trkpt>
      <trkpt lat="44.3745" lon="5.98375">
        <ele>1190.73</ele>
        <time>2015-05-11T13:04:39Z</time>
      </trkpt>
      <trkpt lat="44.3745" lon="5.98375">
        <ele>1191.69</ele>
        <time>2015-05-11T13:05:01Z</time>
      </trkpt>
      <trkpt lat="44.3745" lon="5.98375">
        <ele>1191.69</ele>
        <time>2015-05-11T13:05:07Z</time>
      </trkpt>
      <trkpt lat="44.3745" lon="5.98375">
        <ele>1192.65</ele>
        <time>2015-05-11T13:05:41Z</time>
      </trkpt>
      <trkpt lat="44.3745" lon="5.98374">
        <ele>1194.09</ele>
        <time>2015-05-11T13:05:57Z</time>
      </trkpt>
      <trkpt lat="44.3745" lon="5.98374">
        <ele>1195.06</ele>
        <time>2015-05-11T13:06:15Z</time>
      </trkpt>
      <trkpt lat="44.3745" lon="5.98374">
        <ele>1196.98</ele>
        <time>2015-05-11T13:06:29Z</time>
      </trkpt>
      <trkpt lat="44.37451" lon="5.98375">
        <ele>1196.02</ele>
        <time>2015-05-11T13:07:06Z</time>
      </trkpt>
      <trkpt lat="44.37451" lon="5.98375">
        <ele>1198.42</ele>
        <time>2015-05-11T13:07:39Z</time>
      </trkpt>
      <trkpt lat="44.37451" lon="5.98375">
        <ele>1194.09</ele>
        <time>2015-05-11T13:07:40Z</time>
      </trkpt>
      <trkpt lat="44.37451" lon="5.98375">
        <ele>1197.46</ele>
        <time>2015-05-11T13:07:41Z</time>
      </trkpt>
      <trkpt lat="44.37453" lon="5.98377">
        <ele>1199.86</ele>
        <time>2015-05-11T13:08:00Z</time>
      </trkpt>
      <trkpt lat="44.37463" lon="5.98383">
        <ele>1201.79</ele>
        <time>2015-05-11T13:08:14Z</time>
      </trkpt>
      <trkpt lat="44.3747" lon="5.98386">
        <ele>1197.46</ele>
        <time>2015-05-11T13:08:22Z</time>
      </trkpt>
      <trkpt lat="44.37471" lon="5.98386">
        <ele>1201.79</ele>
        <time>2015-05-11T13:08:23Z</time>
      </trkpt>
      <trkpt lat="44.3748" lon="5.9839">
        <ele>1203.23</ele>
        <time>2015-05-11T13:08:35Z</time>
      </trkpt>
      <trkpt lat="44.37492" lon="5.98388">
        <ele>1203.71</ele>
        <time>2015-05-11T13:08:46Z</time>
      </trkpt>
      <trkpt lat="44.37504" lon="5.9839">
        <ele>1203.71</ele>
        <time>2015-05-11T13:08:59Z</time>
      </trkpt>
      <trkpt lat="44.37508" lon="5.98389">
        <ele>1204.19</ele>
        <time>2015-05-11T13:09:17Z</time>
      </trkpt>
      <trkpt lat="44.37515" lon="5.98387">
        <ele>1203.23</ele>
        <time>2015-05-11T13:09:25Z</time>
      </trkpt>
      <trkpt lat="44.37517" lon="5.98387">
        <ele>1204.67</ele>
        <time>2015-05-11T13:09:27Z</time>
      </trkpt>
      <trkpt lat="44.37527" lon="5.98384">
        <ele>1204.67</ele>
        <time>2015-05-11T13:09:41Z</time>
      </trkpt>
      <trkpt lat="44.3754" lon="5.98373">
        <ele>1203.71</ele>
        <time>2015-05-11T13:09:54Z</time>
      </trkpt>
      <trkpt lat="44.37541" lon="5.98373">
        <ele>1205.15</ele>
        <time>2015-05-11T13:10:14Z</time>
      </trkpt>
      <trkpt lat="44.37541" lon="5.98373">
        <ele>1204.67</ele>
        <time>2015-05-11T13:10:46Z</time>
      </trkpt>
      <trkpt lat="44.37545" lon="5.98373">
        <ele>1203.71</ele>
        <time>2015-05-11T13:11:04Z</time>
      </trkpt>
      <trkpt lat="44.37551" lon="5.98372">
        <ele>1205.15</ele>
        <time>2015-05-11T13:11:53Z</time>
      </trkpt>
      <trkpt lat="44.3756" lon="5.98369">
        <ele>1206.11</ele>
        <time>2015-05-11T13:12:16Z</time>
      </trkpt>
      <trkpt lat="44.3756" lon="5.98369">
        <ele>1207.55</ele>
        <time>2015-05-11T13:12:18Z</time>
      </trkpt>
      <trkpt lat="44.3756" lon="5.98369">
        <ele>1204.19</ele>
        <time>2015-05-11T13:12:20Z</time>
      </trkpt>
      <trkpt lat="44.3756" lon="5.98369">
        <ele>1207.55</ele>
        <time>2015-05-11T13:12:21Z</time>
      </trkpt>
      <trkpt lat="44.37565" lon="5.98368">
        <ele>1207.07</ele>
        <time>2015-05-11T13:12:26Z</time>
      </trkpt>
      <trkpt lat="44.37573" lon="5.98368">
        <ele>1208.03</ele>
        <time>2015-05-11T13:12:40Z</time>
      </trkpt>
      <trkpt lat="44.37574" lon="5.98368">
        <ele>1209</ele>
        <time>2015-05-11T13:13:14Z</time>
      </trkpt>
      <trkpt lat="44.37578" lon="5.98369">
        <ele>1208.03</ele>
        <time>2015-05-11T13:13:31Z</time>
      </trkpt>
      <trkpt lat="44.37585" lon="5.98369">
        <ele>1211.4</ele>
        <time>2015-05-11T13:13:42Z</time>
      </trkpt>
      <trkpt lat="44.3759" lon="5.98369">
        <ele>1212.36</ele>
        <time>2015-05-11T13:13:52Z</time>
      </trkpt>
      <trkpt lat="44.37597" lon="5.98369">
        <ele>1214.28</ele>
        <time>2015-05-11T13:14:03Z</time>
      </trkpt>
      <trkpt lat="44.37597" lon="5.98369">
        <ele>1214.76</ele>
        <time>2015-05-11T13:14:04Z</time>
      </trkpt>
      <trkpt lat="44.376" lon="5.98368">
        <ele>1211.4</ele>
        <time>2015-05-11T13:14:15Z</time>
      </trkpt>
      <trkpt lat="44.37601" lon="5.98368">
        <ele>1215.24</ele>
        <time>2015-05-11T13:14:16Z</time>
      </trkpt>
      <trkpt lat="44.37604" lon="5.98368">
        <ele>1215.24</ele>
        <time>2015-05-11T13:14:22Z</time>
      </trkpt>
      <trkpt lat="44.3761" lon="5.98366">
        <ele>1217.65</ele>
        <time>2015-05-11T13:14:34Z</time>
      </trkpt>
      <trkpt lat="44.37612" lon="5.98365">
        <ele>1218.13</ele>
        <time>2015-05-11T13:14:44Z</time>
      </trkpt>
      <trkpt lat="44.37618" lon="5.98362">
        <ele>1218.61</ele>
        <time>2015-05-11T13:14:56Z</time>
      </trkpt>
      <trkpt lat="44.37623" lon="5.98361">
        <ele>1220.05</ele>
        <time>2015-05-11T13:15:06Z</time>
      </trkpt>
      <trkpt lat="44.37625" lon="5.98366">
        <ele>1221.97</ele>
        <time>2015-05-11T13:15:19Z</time>
      </trkpt>
      <trkpt lat="44.37625" lon="5.98371">
        <ele>1221.01</ele>
        <time>2015-05-11T13:15:33Z</time>
      </trkpt>
      <trkpt lat="44.37624" lon="5.98377">
        <ele>1222.93</ele>
        <time>2015-05-11T13:15:46Z</time>
      </trkpt>
      <trkpt lat="44.37624" lon="5.98377">
        <ele>1219.09</ele>
        <time>2015-05-11T13:15:48Z</time>
      </trkpt>
      <trkpt lat="44.37624" lon="5.98377">
        <ele>1225.34</ele>
        <time>2015-05-11T13:15:49Z</time>
      </trkpt>
      <trkpt lat="44.37624" lon="5.98378">
        <ele>1221.49</ele>
        <time>2015-05-11T13:15:52Z</time>
      </trkpt>
      <trkpt lat="44.37624" lon="5.98378">
        <ele>1224.86</ele>
        <time>2015-05-11T13:16:01Z</time>
      </trkpt>
      <trkpt lat="44.37624" lon="5.98379">
        <ele>1224.86</ele>
        <time>2015-05-11T13:16:09Z</time>
      </trkpt>
      <trkpt lat="44.37623" lon="5.98381">
        <ele>1218.13</ele>
        <time>2015-05-11T13:16:11Z</time>
      </trkpt>
      <trkpt lat="44.37623" lon="5.98381">
        <ele>1231.59</ele>
        <time>2015-05-11T13:16:12Z</time>
      </trkpt>
      <trkpt lat="44.37623" lon="5.98381">
        <ele>1225.34</ele>
        <time>2015-05-11T13:16:14Z</time>
      </trkpt>
      <trkpt lat="44.37624" lon="5.98381">
        <ele>1212.84</ele>
        <time>2015-05-11T13:16:15Z</time>
      </trkpt>
      <trkpt lat="44.37625" lon="5.98381">
        <ele>1228.7</ele>
        <time>2015-05-11T13:16:16Z</time>
      </trkpt>
      <trkpt lat="44.37625" lon="5.98381">
        <ele>1225.34</ele>
        <time>2015-05-11T13:16:17Z</time>
      </trkpt>
      <trkpt lat="44.37625" lon="5.98381">
        <ele>1224.86</ele>
        <time>2015-05-11T13:16:19Z</time>
      </trkpt>
      <trkpt lat="44.37625" lon="5.98382">
        <ele>1227.74</ele>
        <time>2015-05-11T13:16:30Z</time>
      </trkpt>
      <trkpt lat="44.37625" lon="5.98382">
        <ele>1225.34</ele>
        <time>2015-05-11T13:16:58Z</time>
      </trkpt>
      <trkpt lat="44.37629" lon="5.98379">
        <ele>1225.34</ele>
        <time>2015-05-11T13:17:34Z</time>
      </trkpt>
      <trkpt lat="44.37632" lon="5.98378">
        <ele>1227.26</ele>
        <time>2015-05-11T13:17:46Z</time>
      </trkpt>
      <trkpt lat="44.37634" lon="5.98379">
        <ele>1222.93</ele>
        <time>2015-05-11T13:17:50Z</time>
      </trkpt>
      <trkpt lat="44.37634" lon="5.98379">
        <ele>1228.7</ele>
        <time>2015-05-11T13:17:51Z</time>
      </trkpt>
      <trkpt lat="44.37636" lon="5.98378">
        <ele>1228.7</ele>
        <time>2015-05-11T13:17:55Z</time>
      </trkpt>
      <trkpt lat="44.37645" lon="5.9837">
        <ele>1230.14</ele>
        <time>2015-05-11T13:18:10Z</time>
      </trkpt>
      <trkpt lat="44.37647" lon="5.98368">
        <ele>1230.14</ele>
        <time>2015-05-11T13:18:19Z</time>
      </trkpt>
      <trkpt lat="44.37651" lon="5.98361">
        <ele>1231.59</ele>
        <time>2015-05-11T13:18:30Z</time>
      </trkpt>
      <trkpt lat="44.37655" lon="5.98358">
        <ele>1232.55</ele>
        <time>2015-05-11T13:18:47Z</time>
      </trkpt>
      <trkpt lat="44.37661" lon="5.98355">
        <ele>1233.51</ele>
        <time>2015-05-11T13:18:58Z</time>
      </trkpt>
      <trkpt lat="44.37662" lon="5.98354">
        <ele>1234.47</ele>
        <time>2015-05-11T13:19:02Z</time>
      </trkpt>
      <trkpt lat="44.37667" lon="5.98347">
        <ele>1233.99</ele>
        <time>2015-05-11T13:19:15Z</time>
      </trkpt>
      <trkpt lat="44.37675" lon="5.98338">
        <ele>1233.51</ele>
        <time>2015-05-11T13:19:25Z</time>
      </trkpt>
      <trkpt lat="44.3768" lon="5.98334">
        <ele>1232.55</ele>
        <time>2015-05-11T13:19:33Z</time>
      </trkpt>
      <trkpt lat="44.37682" lon="5.98333">
        <ele>1233.99</ele>
        <time>2015-05-11T13:19:35Z</time>
      </trkpt>
      <trkpt lat="44.37687" lon="5.98328">
        <ele>1233.03</ele>
        <time>2015-05-11T13:19:52Z</time>
      </trkpt>
      <trkpt lat="44.37687" lon="5.98328">
        <ele>1232.55</ele>
        <time>2015-05-11T13:19:58Z</time>
      </trkpt>
      <trkpt lat="44.37689" lon="5.98327">
        <ele>1233.51</ele>
        <time>2015-05-11T13:20:19Z</time>
      </trkpt>
      <trkpt lat="44.3769" lon="5.98327">
        <ele>1233.03</ele>
        <time>2015-05-11T13:21:00Z</time>
      </trkpt>
      <trkpt lat="44.3769" lon="5.98327">
        <ele>1233.03</ele>
        <time>2015-05-11T13:21:01Z</time>
      </trkpt>
      <trkpt lat="44.3769" lon="5.98327">
        <ele>1233.03</ele>
        <time>2015-05-11T13:21:34Z</time>
      </trkpt>
      <trkpt lat="44.3769" lon="5.98327">
        <ele>1234.47</ele>
        <time>2015-05-11T13:21:44Z</time>
      </trkpt>
      <trkpt lat="44.3769" lon="5.98327">
        <ele>1234.47</ele>
        <time>2015-05-11T13:22:52Z</time>
      </trkpt>
      <trkpt lat="44.37691" lon="5.98326">
        <ele>1234.47</ele>
        <time>2015-05-11T13:22:57Z</time>
      </trkpt>
      <trkpt lat="44.37698" lon="5.9832">
        <ele>1234.95</ele>
        <time>2015-05-11T13:23:09Z</time>
      </trkpt>
      <trkpt lat="44.37704" lon="5.98312">
        <ele>1233.99</ele>
        <time>2015-05-11T13:23:20Z</time>
      </trkpt>
      <trkpt lat="44.37704" lon="5.98311">
        <ele>1234.95</ele>
        <time>2015-05-11T13:23:21Z</time>
      </trkpt>
      <trkpt lat="44.37708" lon="5.98307">
        <ele>1235.91</ele>
        <time>2015-05-11T13:23:28Z</time>
      </trkpt>
      <trkpt lat="44.37714" lon="5.98297">
        <ele>1236.39</ele>
        <time>2015-05-11T13:23:40Z</time>
      </trkpt>
      <trkpt lat="44.37715" lon="5.98295">
        <ele>1236.87</ele>
        <time>2015-05-11T13:23:47Z</time>
      </trkpt>
      <trkpt lat="44.3772" lon="5.98283">
        <ele>1239.28</ele>
        <time>2015-05-11T13:23:59Z</time>
      </trkpt>
      <trkpt lat="44.3772" lon="5.98281">
        <ele>1240.72</ele>
        <time>2015-05-11T13:24:08Z</time>
      </trkpt>
      <trkpt lat="44.3772" lon="5.98281">
        <ele>1236.87</ele>
        <time>2015-05-11T13:24:10Z</time>
      </trkpt>
      <trkpt lat="44.3772" lon="5.98281">
        <ele>1239.76</ele>
        <time>2015-05-11T13:24:11Z</time>
      </trkpt>
      <trkpt lat="44.3772" lon="5.98281">
        <ele>1234.95</ele>
        <time>2015-05-11T13:24:12Z</time>
      </trkpt>
      <trkpt lat="44.3772" lon="5.98281">
        <ele>1241.68</ele>
        <time>2015-05-11T13:24:13Z</time>
      </trkpt>
      <trkpt lat="44.3772" lon="5.98281">
        <ele>1240.24</ele>
        <time>2015-05-11T13:24:34Z</time>
      </trkpt>
      <trkpt lat="44.37721" lon="5.98281">
        <ele>1240.72</ele>
        <time>2015-05-11T13:24:49Z</time>
      </trkpt>
      <trkpt lat="44.37722" lon="5.98279">
        <ele>1241.2</ele>
        <time>2015-05-11T13:25:05Z</time>
      </trkpt>
      <trkpt lat="44.37723" lon="5.98275">
        <ele>1240.72</ele>
        <time>2015-05-11T13:25:11Z</time>
      </trkpt>
      <trkpt lat="44.37727" lon="5.98264">
        <ele>1239.76</ele>
        <time>2015-05-11T13:25:18Z</time>
      </trkpt>
      <trkpt lat="44.37728" lon="5.98259">
        <ele>1239.76</ele>
        <time>2015-05-11T13:25:25Z</time>
      </trkpt>
      <trkpt lat="44.37729" lon="5.98253">
        <ele>1243.6</ele>
        <time>2015-05-11T13:25:34Z</time>
      </trkpt>
      <trkpt lat="44.37729" lon="5.98253">
        <ele>1240.24</ele>
        <time>2015-05-11T13:25:35Z</time>
      </trkpt>
      <trkpt lat="44.37729" lon="5.98253">
        <ele>1240.24</ele>
        <time>2015-05-11T13:25:48Z</time>
      </trkpt>
      <trkpt lat="44.37731" lon="5.98243">
        <ele>1241.2</ele>
        <time>2015-05-11T13:25:58Z</time>
      </trkpt>
      <trkpt lat="44.37735" lon="5.98232">
        <ele>1237.35</ele>
        <time>2015-05-11T13:26:05Z</time>
      </trkpt>
      <trkpt lat="44.37735" lon="5.98232">
        <ele>1241.68</ele>
        <time>2015-05-11T13:26:06Z</time>
      </trkpt>
      <trkpt lat="44.37738" lon="5.98222">
        <ele>1239.76</ele>
        <time>2015-05-11T13:26:11Z</time>
      </trkpt>
      <trkpt lat="44.37739" lon="5.98217">
        <ele>1238.8</ele>
        <time>2015-05-11T13:26:24Z</time>
      </trkpt>
      <trkpt lat="44.37739" lon="5.9821">
        <ele>1241.2</ele>
        <time>2015-05-11T13:27:47Z</time>
      </trkpt>
      <trkpt lat="44.37739" lon="5.98209">
        <ele>1239.76</ele>
        <time>2015-05-11T13:28:28Z</time>
      </trkpt>
      <trkpt lat="44.37745" lon="5.98201">
        <ele>1240.72</ele>
        <time>2015-05-11T13:28:41Z</time>
      </trkpt>
      <trkpt lat="44.37745" lon="5.98201">
        <ele>1237.83</ele>
        <time>2015-05-11T13:28:50Z</time>
      </trkpt>
      <trkpt lat="44.37745" lon="5.98201">
        <ele>1240.72</ele>
        <time>2015-05-11T13:28:51Z</time>
      </trkpt>
      <trkpt lat="44.37748" lon="5.98193">
        <ele>1241.2</ele>
        <time>2015-05-11T13:29:02Z</time>
      </trkpt>
      <trkpt lat="44.37753" lon="5.98186">
        <ele>1241.68</ele>
        <time>2015-05-11T13:29:15Z</time>
      </trkpt>
      <trkpt lat="44.37756" lon="5.9818">
        <ele>1234.95</ele>
        <time>2015-05-11T13:29:18Z</time>
      </trkpt>
      <trkpt lat="44.37757" lon="5.98179">
        <ele>1242.64</ele>
        <time>2015-05-11T13:29:19Z</time>
      </trkpt>
      <trkpt lat="44.3776" lon="5.9817">
        <ele>1242.16</ele>
        <time>2015-05-11T13:29:32Z</time>
      </trkpt>
      <trkpt lat="44.3776" lon="5.9817">
        <ele>1241.2</ele>
        <time>2015-05-11T13:29:43Z</time>
      </trkpt>
      <trkpt lat="44.3777" lon="5.98155">
        <ele>1239.28</ele>
        <time>2015-05-11T13:29:56Z</time>
      </trkpt>
      <trkpt lat="44.37773" lon="5.98153">
        <ele>1241.68</ele>
        <time>2015-05-11T13:30:08Z</time>
      </trkpt>
      <trkpt lat="44.37773" lon="5.98153">
        <ele>1241.2</ele>
        <time>2015-05-11T13:30:10Z</time>
      </trkpt>
      <trkpt lat="44.3778" lon="5.98145">
        <ele>1241.68</ele>
        <time>2015-05-11T13:30:23Z</time>
      </trkpt>
      <trkpt lat="44.3778" lon="5.98145">
        <ele>1241.68</ele>
        <time>2015-05-11T13:30:36Z</time>
      </trkpt>
      <trkpt lat="44.37785" lon="5.98141">
        <ele>1242.16</ele>
        <time>2015-05-11T13:30:51Z</time>
      </trkpt>
      <trkpt lat="44.37795" lon="5.98132">
        <ele>1241.68</ele>
        <time>2015-05-11T13:31:06Z</time>
      </trkpt>
      <trkpt lat="44.37808" lon="5.98126">
        <ele>1240.72</ele>
        <time>2015-05-11T13:31:18Z</time>
      </trkpt>
      <trkpt lat="44.37809" lon="5.98126">
        <ele>1238.32</ele>
        <time>2015-05-11T13:31:24Z</time>
      </trkpt>
      <trkpt lat="44.37809" lon="5.98126">
        <ele>1241.68</ele>
        <time>2015-05-11T13:31:26Z</time>
      </trkpt>
      <trkpt lat="44.37816" lon="5.98121">
        <ele>1243.6</ele>
        <time>2015-05-11T13:31:35Z</time>
      </trkpt>
      <trkpt lat="44.3782" lon="5.98119">
        <ele>1242.16</ele>
        <time>2015-05-11T13:31:38Z</time>
      </trkpt>
      <trkpt lat="44.37824" lon="5.98116">
        <ele>1242.64</ele>
        <time>2015-05-11T13:31:44Z</time>
      </trkpt>
      <trkpt lat="44.37837" lon="5.98109">
        <ele>1243.12</ele>
        <time>2015-05-11T13:31:54Z</time>
      </trkpt>
      <trkpt lat="44.37842" lon="5.98109">
        <ele>1245.53</ele>
        <time>2015-05-11T13:32:09Z</time>
      </trkpt>
      <trkpt lat="44.37846" lon="5.9811">
        <ele>1246.97</ele>
        <time>2015-05-11T13:32:26Z</time>
      </trkpt>
      <trkpt lat="44.37846" lon="5.9811">
        <ele>1246.97</ele>
        <time>2015-05-11T13:32:27Z</time>
      </trkpt>
      <trkpt lat="44.37846" lon="5.9811">
        <ele>1242.64</ele>
        <time>2015-05-11T13:32:28Z</time>
      </trkpt>
      <trkpt lat="44.37846" lon="5.9811">
        <ele>1246.49</ele>
        <time>2015-05-11T13:32:29Z</time>
      </trkpt>
      <trkpt lat="44.37847" lon="5.98109">
        <ele>1242.64</ele>
        <time>2015-05-11T13:32:36Z</time>
      </trkpt>
      <trkpt lat="44.37847" lon="5.98109">
        <ele>1248.89</ele>
        <time>2015-05-11T13:32:37Z</time>
      </trkpt>
      <trkpt lat="44.37848" lon="5.98109">
        <ele>1245.53</ele>
        <time>2015-05-11T13:32:39Z</time>
      </trkpt>
      <trkpt lat="44.37849" lon="5.98109">
        <ele>1246.01</ele>
        <time>2015-05-11T13:32:40Z</time>
      </trkpt>
      <trkpt lat="44.3785" lon="5.98109">
        <ele>1253.22</ele>
        <time>2015-05-11T13:32:41Z</time>
      </trkpt>
      <trkpt lat="44.37851" lon="5.98108">
        <ele>1249.85</ele>
        <time>2015-05-11T13:32:42Z</time>
      </trkpt>
      <trkpt lat="44.37852" lon="5.98107">
        <ele>1244.56</ele>
        <time>2015-05-11T13:32:44Z</time>
      </trkpt>
      <trkpt lat="44.37852" lon="5.98107">
        <ele>1247.45</ele>
        <time>2015-05-11T13:32:45Z</time>
      </trkpt>
      <trkpt lat="44.37856" lon="5.98103">
        <ele>1247.45</ele>
        <time>2015-05-11T13:33:02Z</time>
      </trkpt>
      <trkpt lat="44.37857" lon="5.98103">
        <ele>1248.41</ele>
        <time>2015-05-11T13:33:33Z</time>
      </trkpt>
      <trkpt lat="44.37858" lon="5.98103">
        <ele>1248.41</ele>
        <time>2015-05-11T13:33:34Z</time>
      </trkpt>
      <trkpt lat="44.37858" lon="5.98103">
        <ele>1245.53</ele>
        <time>2015-05-11T13:33:35Z</time>
      </trkpt>
      <trkpt lat="44.37859" lon="5.98103">
        <ele>1249.37</ele>
        <time>2015-05-11T13:33:36Z</time>
      </trkpt>
      <trkpt lat="44.3786" lon="5.98103">
        <ele>1249.37</ele>
        <time>2015-05-11T13:33:56Z</time>
      </trkpt>
      <trkpt lat="44.3786" lon="5.98103">
        <ele>1249.85</ele>
        <time>2015-05-11T13:34:02Z</time>
      </trkpt>
      <trkpt lat="44.3786" lon="5.98103">
        <ele>1249.37</ele>
        <time>2015-05-11T13:34:47Z</time>
      </trkpt>
      <trkpt lat="44.3786" lon="5.98102">
        <ele>1250.33</ele>
        <time>2015-05-11T13:36:18Z</time>
      </trkpt>
      <trkpt lat="44.3786" lon="5.98103">
        <ele>1249.37</ele>
        <time>2015-05-11T13:38:17Z</time>
      </trkpt>
      <trkpt lat="44.3786" lon="5.98103">
        <ele>1249.37</ele>
        <time>2015-05-11T13:39:39Z</time>
      </trkpt>
      <trkpt lat="44.37859" lon="5.98103">
        <ele>1249.37</ele>
        <time>2015-05-11T13:41:20Z</time>
      </trkpt>
      <trkpt lat="44.37859" lon="5.98103">
        <ele>1249.37</ele>
        <time>2015-05-11T13:41:30Z</time>
      </trkpt>
      <trkpt lat="44.3786" lon="5.98102">
        <ele>1250.33</ele>
        <time>2015-05-11T13:41:51Z</time>
      </trkpt>
      <trkpt lat="44.3786" lon="5.98103">
        <ele>1246.01</ele>
        <time>2015-05-11T13:41:57Z</time>
      </trkpt>
      <trkpt lat="44.3786" lon="5.98103">
        <ele>1251.77</ele>
        <time>2015-05-11T13:41:58Z</time>
      </trkpt>
      <trkpt lat="44.3786" lon="5.98103">
        <ele>1248.41</ele>
        <time>2015-05-11T13:42:06Z</time>
      </trkpt>
      <trkpt lat="44.3786" lon="5.98103">
        <ele>1243.12</ele>
        <time>2015-05-11T13:42:07Z</time>
      </trkpt>
      <trkpt lat="44.3786" lon="5.98103">
        <ele>1258.98</ele>
        <time>2015-05-11T13:42:08Z</time>
      </trkpt>
      <trkpt lat="44.3786" lon="5.98103">
        <ele>1252.74</ele>
        <time>2015-05-11T13:42:09Z</time>
      </trkpt>
      <trkpt lat="44.37859" lon="5.98103">
        <ele>1249.37</ele>
        <time>2015-05-11T13:42:11Z</time>
      </trkpt>
      <trkpt lat="44.37856" lon="5.98106">
        <ele>1249.37</ele>
        <time>2015-05-11T13:42:31Z</time>
      </trkpt>
      <trkpt lat="44.37855" lon="5.98108">
        <ele>1248.41</ele>
        <time>2015-05-11T13:42:44Z</time>
      </trkpt>
      <trkpt lat="44.37852" lon="5.98108">
        <ele>1247.93</ele>
        <time>2015-05-11T13:42:58Z</time>
      </trkpt>
      <trkpt lat="44.37852" lon="5.98108">
        <ele>1246.49</ele>
        <time>2015-05-11T13:43:08Z</time>
      </trkpt>
      <trkpt lat="44.37845" lon="5.98107">
        <ele>1246.49</ele>
        <time>2015-05-11T13:43:22Z</time>
      </trkpt>
      <trkpt lat="44.37843" lon="5.98107">
        <ele>1244.08</ele>
        <time>2015-05-11T13:43:36Z</time>
      </trkpt>
      <trkpt lat="44.37838" lon="5.98111">
        <ele>1244.08</ele>
        <time>2015-05-11T13:43:48Z</time>
      </trkpt>
      <trkpt lat="44.37832" lon="5.98113">
        <ele>1243.6</ele>
        <time>2015-05-11T13:44:01Z</time>
      </trkpt>
      <trkpt lat="44.37824" lon="5.98114">
        <ele>1244.08</ele>
        <time>2015-05-11T13:44:15Z</time>
      </trkpt>
      <trkpt lat="44.37821" lon="5.98116">
        <ele>1244.08</ele>
        <time>2015-05-11T13:44:20Z</time>
      </trkpt>
      <trkpt lat="44.37812" lon="5.9812">
        <ele>1244.08</ele>
        <time>2015-05-11T13:44:33Z</time>
      </trkpt>
      <trkpt lat="44.37809" lon="5.9812">
        <ele>1238.32</ele>
        <time>2015-05-11T13:44:41Z</time>
      </trkpt>
      <trkpt lat="44.37809" lon="5.9812">
        <ele>1245.53</ele>
        <time>2015-05-11T13:44:42Z</time>
      </trkpt>
      <trkpt lat="44.37809" lon="5.9812">
        <ele>1242.16</ele>
        <time>2015-05-11T13:44:43Z</time>
      </trkpt>
      <trkpt lat="44.37809" lon="5.9812">
        <ele>1245.53</ele>
        <time>2015-05-11T13:44:44Z</time>
      </trkpt>
      <trkpt lat="44.37809" lon="5.9812">
        <ele>1245.04</ele>
        <time>2015-05-11T13:44:57Z</time>
      </trkpt>
      <trkpt lat="44.37807" lon="5.98121">
        <ele>1243.6</ele>
        <time>2015-05-11T13:45:09Z</time>
      </trkpt>
      <trkpt lat="44.37803" lon="5.98126">
        <ele>1241.68</ele>
        <time>2015-05-11T13:45:21Z</time>
      </trkpt>
      <trkpt lat="44.37803" lon="5.98126">
        <ele>1246.49</ele>
        <time>2015-05-11T13:45:22Z</time>
      </trkpt>
      <trkpt lat="44.37803" lon="5.98126">
        <ele>1245.04</ele>
        <time>2015-05-11T13:45:23Z</time>
      </trkpt>
      <trkpt lat="44.37797" lon="5.98131">
        <ele>1246.01</ele>
        <time>2015-05-11T13:45:32Z</time>
      </trkpt>
      <trkpt lat="44.37793" lon="5.98136">
        <ele>1245.53</ele>
        <time>2015-05-11T13:45:42Z</time>
      </trkpt>
      <trkpt lat="44.37791" lon="5.98136">
        <ele>1246.01</ele>
        <time>2015-05-11T13:45:48Z</time>
      </trkpt>
      <trkpt lat="44.37789" lon="5.98137">
        <ele>1246.49</ele>
        <time>2015-05-11T13:45:52Z</time>
      </trkpt>
      <trkpt lat="44.37786" lon="5.98144">
        <ele>1245.53</ele>
        <time>2015-05-11T13:45:58Z</time>
      </trkpt>
      <trkpt lat="44.37785" lon="5.98145">
        <ele>1245.53</ele>
        <time>2015-05-11T13:46:10Z</time>
      </trkpt>
      <trkpt lat="44.37785" lon="5.98145">
        <ele>1245.04</ele>
        <time>2015-05-11T13:46:12Z</time>
      </trkpt>
      <trkpt lat="44.37779" lon="5.98149">
        <ele>1246.97</ele>
        <time>2015-05-11T13:46:20Z</time>
      </trkpt>
      <trkpt lat="44.37775" lon="5.98155">
        <ele>1246.49</ele>
        <time>2015-05-11T13:46:24Z</time>
      </trkpt>
      <trkpt lat="44.37772" lon="5.98159">
        <ele>1244.56</ele>
        <time>2015-05-11T13:46:34Z</time>
      </trkpt>
      <trkpt lat="44.37768" lon="5.98166">
        <ele>1244.56</ele>
        <time>2015-05-11T13:46:39Z</time>
      </trkpt>
      <trkpt lat="44.3776" lon="5.98173">
        <ele>1245.04</ele>
        <time>2015-05-11T13:46:50Z</time>
      </trkpt>
      <trkpt lat="44.37757" lon="5.98179">
        <ele>1246.49</ele>
        <time>2015-05-11T13:47:02Z</time>
      </trkpt>
      <trkpt lat="44.37756" lon="5.98183">
        <ele>1246.49</ele>
        <time>2015-05-11T13:47:14Z</time>
      </trkpt>
      <trkpt lat="44.37751" lon="5.98191">
        <ele>1246.49</ele>
        <time>2015-05-11T13:47:26Z</time>
      </trkpt>
      <trkpt lat="44.37748" lon="5.98195">
        <ele>1246.49</ele>
        <time>2015-05-11T13:47:37Z</time>
      </trkpt>
      <trkpt lat="44.37745" lon="5.98202">
        <ele>1246.97</ele>
        <time>2015-05-11T13:47:41Z</time>
      </trkpt>
      <trkpt lat="44.37739" lon="5.98223">
        <ele>1247.45</ele>
        <time>2015-05-11T13:47:55Z</time>
      </trkpt>
      <trkpt lat="44.37738" lon="5.98225">
        <ele>1247.45</ele>
        <time>2015-05-11T13:48:11Z</time>
      </trkpt>
      <trkpt lat="44.37733" lon="5.98247">
        <ele>1246.01</ele>
        <time>2015-05-11T13:48:26Z</time>
      </trkpt>
      <trkpt lat="44.37726" lon="5.98265">
        <ele>1245.53</ele>
        <time>2015-05-11T13:48:41Z</time>
      </trkpt>
      <trkpt lat="44.37724" lon="5.98271">
        <ele>1244.56</ele>
        <time>2015-05-11T13:48:47Z</time>
      </trkpt>
      <trkpt lat="44.37716" lon="5.98291">
        <ele>1243.6</ele>
        <time>2015-05-11T13:49:00Z</time>
      </trkpt>
      <trkpt lat="44.37714" lon="5.98295">
        <ele>1241.68</ele>
        <time>2015-05-11T13:49:05Z</time>
      </trkpt>
      <trkpt lat="44.3771" lon="5.98304">
        <ele>1243.12</ele>
        <time>2015-05-11T13:49:15Z</time>
      </trkpt>
      <trkpt lat="44.37705" lon="5.98312">
        <ele>1242.64</ele>
        <time>2015-05-11T13:49:26Z</time>
      </trkpt>
      <trkpt lat="44.37703" lon="5.98313">
        <ele>1241.2</ele>
        <time>2015-05-11T13:49:29Z</time>
      </trkpt>
      <trkpt lat="44.37696" lon="5.98322">
        <ele>1240.24</ele>
        <time>2015-05-11T13:49:41Z</time>
      </trkpt>
      <trkpt lat="44.37688" lon="5.98331">
        <ele>1240.24</ele>
        <time>2015-05-11T13:49:59Z</time>
      </trkpt>
      <trkpt lat="44.37677" lon="5.9834">
        <ele>1241.2</ele>
        <time>2015-05-11T13:50:10Z</time>
      </trkpt>
      <trkpt lat="44.37674" lon="5.98343">
        <ele>1241.68</ele>
        <time>2015-05-11T13:50:15Z</time>
      </trkpt>
      <trkpt lat="44.3767" lon="5.98348">
        <ele>1242.64</ele>
        <time>2015-05-11T13:50:22Z</time>
      </trkpt>
      <trkpt lat="44.37668" lon="5.98351">
        <ele>1242.64</ele>
        <time>2015-05-11T13:50:25Z</time>
      </trkpt>
      <trkpt lat="44.37661" lon="5.98354">
        <ele>1241.68</ele>
        <time>2015-05-11T13:50:31Z</time>
      </trkpt>
      <trkpt lat="44.37659" lon="5.98356">
        <ele>1240.72</ele>
        <time>2015-05-11T13:50:33Z</time>
      </trkpt>
      <trkpt lat="44.37656" lon="5.9836">
        <ele>1239.76</ele>
        <time>2015-05-11T13:50:39Z</time>
      </trkpt>
      <trkpt lat="44.3765" lon="5.98366">
        <ele>1238.32</ele>
        <time>2015-05-11T13:50:51Z</time>
      </trkpt>
      <trkpt lat="44.37648" lon="5.98367">
        <ele>1237.83</ele>
        <time>2015-05-11T13:50:53Z</time>
      </trkpt>
      <trkpt lat="44.37645" lon="5.98371">
        <ele>1237.83</ele>
        <time>2015-05-11T13:51:04Z</time>
      </trkpt>
      <trkpt lat="44.37644" lon="5.98373">
        <ele>1237.35</ele>
        <time>2015-05-11T13:51:07Z</time>
      </trkpt>
      <trkpt lat="44.37641" lon="5.98377">
        <ele>1236.39</ele>
        <time>2015-05-11T13:51:11Z</time>
      </trkpt>
      <trkpt lat="44.37636" lon="5.98377">
        <ele>1235.43</ele>
        <time>2015-05-11T13:51:17Z</time>
      </trkpt>
      <trkpt lat="44.37634" lon="5.98377">
        <ele>1234.47</ele>
        <time>2015-05-11T13:51:24Z</time>
      </trkpt>
      <trkpt lat="44.3763" lon="5.9838">
        <ele>1229.18</ele>
        <time>2015-05-11T13:51:44Z</time>
      </trkpt>
      <trkpt lat="44.3763" lon="5.9838">
        <ele>1236.39</ele>
        <time>2015-05-11T13:51:45Z</time>
      </trkpt>
      <trkpt lat="44.37628" lon="5.98385">
        <ele>1235.91</ele>
        <time>2015-05-11T13:51:51Z</time>
      </trkpt>
      <trkpt lat="44.37625" lon="5.98388">
        <ele>1236.39</ele>
        <time>2015-05-11T13:51:57Z</time>
      </trkpt>
      <trkpt lat="44.37625" lon="5.98383">
        <ele>1234.47</ele>
        <time>2015-05-11T13:52:00Z</time>
      </trkpt>
      <trkpt lat="44.37622" lon="5.98381">
        <ele>1232.07</ele>
        <time>2015-05-11T13:52:12Z</time>
      </trkpt>
      <trkpt lat="44.37622" lon="5.98382">
        <ele>1231.59</ele>
        <time>2015-05-11T13:52:25Z</time>
      </trkpt>
      <trkpt lat="44.37622" lon="5.9838">
        <ele>1231.59</ele>
        <time>2015-05-11T13:52:26Z</time>
      </trkpt>
      <trkpt lat="44.37621" lon="5.98369">
        <ele>1229.66</ele>
        <time>2015-05-11T13:52:35Z</time>
      </trkpt>
      <trkpt lat="44.37623" lon="5.98363">
        <ele>1228.22</ele>
        <time>2015-05-11T13:52:45Z</time>
      </trkpt>
      <trkpt lat="44.37616" lon="5.98366">
        <ele>1226.3</ele>
        <time>2015-05-11T13:52:55Z</time>
      </trkpt>
      <trkpt lat="44.3761" lon="5.9837">
        <ele>1224.86</ele>
        <time>2015-05-11T13:53:02Z</time>
      </trkpt>
      <trkpt lat="44.37602" lon="5.98373">
        <ele>1224.38</ele>
        <time>2015-05-11T13:53:12Z</time>
      </trkpt>
      <trkpt lat="44.37594" lon="5.98375">
        <ele>1222.45</ele>
        <time>2015-05-11T13:53:22Z</time>
      </trkpt>
      <trkpt lat="44.37581" lon="5.9837">
        <ele>1219.09</ele>
        <time>2015-05-11T13:53:33Z</time>
      </trkpt>
      <trkpt lat="44.37579" lon="5.98371">
        <ele>1218.61</ele>
        <time>2015-05-11T13:53:35Z</time>
      </trkpt>
      <trkpt lat="44.37578" lon="5.98372">
        <ele>1218.61</ele>
        <time>2015-05-11T13:53:37Z</time>
      </trkpt>
      <trkpt lat="44.37575" lon="5.98371">
        <ele>1217.65</ele>
        <time>2015-05-11T13:53:39Z</time>
      </trkpt>
      <trkpt lat="44.3756" lon="5.98367">
        <ele>1215.24</ele>
        <time>2015-05-11T13:53:54Z</time>
      </trkpt>
      <trkpt lat="44.37557" lon="5.98366">
        <ele>1214.28</ele>
        <time>2015-05-11T13:53:57Z</time>
      </trkpt>
      <trkpt lat="44.37553" lon="5.98367">
        <ele>1210.44</ele>
        <time>2015-05-11T13:54:00Z</time>
      </trkpt>
      <trkpt lat="44.37551" lon="5.98368">
        <ele>1212.36</ele>
        <time>2015-05-11T13:54:01Z</time>
      </trkpt>
      <trkpt lat="44.37548" lon="5.98368">
        <ele>1214.76</ele>
        <time>2015-05-11T13:54:04Z</time>
      </trkpt>
      <trkpt lat="44.37533" lon="5.98369">
        <ele>1212.84</ele>
        <time>2015-05-11T13:54:17Z</time>
      </trkpt>
      <trkpt lat="44.37531" lon="5.98369">
        <ele>1211.4</ele>
        <time>2015-05-11T13:54:20Z</time>
      </trkpt>
      <trkpt lat="44.37527" lon="5.98369">
        <ele>1213.32</ele>
        <time>2015-05-11T13:54:25Z</time>
      </trkpt>
      <trkpt lat="44.37513" lon="5.98371">
        <ele>1213.32</ele>
        <time>2015-05-11T13:54:37Z</time>
      </trkpt>
      <trkpt lat="44.37505" lon="5.9837">
        <ele>1213.32</ele>
        <time>2015-05-11T13:54:43Z</time>
      </trkpt>
      <trkpt lat="44.37496" lon="5.98368">
        <ele>1211.4</ele>
        <time>2015-05-11T13:54:51Z</time>
      </trkpt>
      <trkpt lat="44.37489" lon="5.98368">
        <ele>1209.96</ele>
        <time>2015-05-11T13:55:02Z</time>
      </trkpt>
      <trkpt lat="44.37485" lon="5.98367">
        <ele>1208.03</ele>
        <time>2015-05-11T13:55:06Z</time>
      </trkpt>
      <trkpt lat="44.37476" lon="5.98366">
        <ele>1207.07</ele>
        <time>2015-05-11T13:55:18Z</time>
      </trkpt>
      <trkpt lat="44.37474" lon="5.98367">
        <ele>1204.67</ele>
        <time>2015-05-11T13:55:31Z</time>
      </trkpt>
      <trkpt lat="44.37467" lon="5.98364">
        <ele>1203.23</ele>
        <time>2015-05-11T13:55:42Z</time>
      </trkpt>
      <trkpt lat="44.3746" lon="5.98364">
        <ele>1202.27</ele>
        <time>2015-05-11T13:55:59Z</time>
      </trkpt>
      <trkpt lat="44.37452" lon="5.98364">
        <ele>1200.82</ele>
        <time>2015-05-11T13:56:13Z</time>
      </trkpt>
      <trkpt lat="44.37449" lon="5.98368">
        <ele>1198.9</ele>
        <time>2015-05-11T13:56:28Z</time>
      </trkpt>
      <trkpt lat="44.37447" lon="5.98374">
        <ele>1197.94</ele>
        <time>2015-05-11T13:56:35Z</time>
      </trkpt>
      <trkpt lat="44.37446" lon="5.98379">
        <ele>1196.5</ele>
        <time>2015-05-11T13:56:40Z</time>
      </trkpt>
      <trkpt lat="44.37443" lon="5.98385">
        <ele>1195.06</ele>
        <time>2015-05-11T13:56:51Z</time>
      </trkpt>
      <trkpt lat="44.37438" lon="5.98394">
        <ele>1193.61</ele>
        <time>2015-05-11T13:57:03Z</time>
      </trkpt>
      <trkpt lat="44.37434" lon="5.984">
        <ele>1192.65</ele>
        <time>2015-05-11T13:57:11Z</time>
      </trkpt>
      <trkpt lat="44.37429" lon="5.98412">
        <ele>1188.81</ele>
        <time>2015-05-11T13:57:23Z</time>
      </trkpt>
      <trkpt lat="44.37425" lon="5.98419">
        <ele>1188.33</ele>
        <time>2015-05-11T13:57:35Z</time>
      </trkpt>
      <trkpt lat="44.37422" lon="5.98426">
        <ele>1186.4</ele>
        <time>2015-05-11T13:57:46Z</time>
      </trkpt>
      <trkpt lat="44.37418" lon="5.9843">
        <ele>1185.92</ele>
        <time>2015-05-11T13:57:59Z</time>
      </trkpt>
      <trkpt lat="44.37415" lon="5.98433">
        <ele>1183.04</ele>
        <time>2015-05-11T13:58:19Z</time>
      </trkpt>
      <trkpt lat="44.3741" lon="5.98438">
        <ele>1181.6</ele>
        <time>2015-05-11T13:58:32Z</time>
      </trkpt>
      <trkpt lat="44.37408" lon="5.98439">
        <ele>1180.64</ele>
        <time>2015-05-11T13:58:34Z</time>
      </trkpt>
      <trkpt lat="44.37407" lon="5.98443">
        <ele>1179.67</ele>
        <time>2015-05-11T13:58:39Z</time>
      </trkpt>
      <trkpt lat="44.37402" lon="5.98444">
        <ele>1178.71</ele>
        <time>2015-05-11T13:58:49Z</time>
      </trkpt>
      <trkpt lat="44.374" lon="5.98445">
        <ele>1177.75</ele>
        <time>2015-05-11T13:58:51Z</time>
      </trkpt>
      <trkpt lat="44.37391" lon="5.9845">
        <ele>1175.83</ele>
        <time>2015-05-11T13:59:04Z</time>
      </trkpt>
      <trkpt lat="44.37386" lon="5.98452">
        <ele>1173.91</ele>
        <time>2015-05-11T13:59:14Z</time>
      </trkpt>
      <trkpt lat="44.37384" lon="5.98453">
        <ele>1172.95</ele>
        <time>2015-05-11T13:59:18Z</time>
      </trkpt>
      <trkpt lat="44.37378" lon="5.98457">
        <ele>1171.98</ele>
        <time>2015-05-11T13:59:28Z</time>
      </trkpt>
      <trkpt lat="44.37373" lon="5.98463">
        <ele>1170.06</ele>
        <time>2015-05-11T13:59:41Z</time>
      </trkpt>
      <trkpt lat="44.37369" lon="5.98467">
        <ele>1168.14</ele>
        <time>2015-05-11T13:59:55Z</time>
      </trkpt>
      <trkpt lat="44.37363" lon="5.98472">
        <ele>1165.26</ele>
        <time>2015-05-11T14:00:10Z</time>
      </trkpt>
      <trkpt lat="44.37358" lon="5.9848">
        <ele>1162.85</ele>
        <time>2015-05-11T14:00:23Z</time>
      </trkpt>
      <trkpt lat="44.37354" lon="5.98487">
        <ele>1161.89</ele>
        <time>2015-05-11T14:00:33Z</time>
      </trkpt>
      <trkpt lat="44.37352" lon="5.98491">
        <ele>1159.97</ele>
        <time>2015-05-11T14:00:44Z</time>
      </trkpt>
      <trkpt lat="44.3735" lon="5.98494">
        <ele>1159.01</ele>
        <time>2015-05-11T14:00:48Z</time>
      </trkpt>
      <trkpt lat="44.37345" lon="5.98502">
        <ele>1163.33</ele>
        <time>2015-05-11T14:00:58Z</time>
      </trkpt>
      <trkpt lat="44.37345" lon="5.98502">
        <ele>1160.93</ele>
        <time>2015-05-11T14:00:59Z</time>
      </trkpt>
      <trkpt lat="44.37343" lon="5.98505">
        <ele>1157.56</ele>
        <time>2015-05-11T14:01:02Z</time>
      </trkpt>
      <trkpt lat="44.37333" lon="5.98513">
        <ele>1156.12</ele>
        <time>2015-05-11T14:01:14Z</time>
      </trkpt>
      <trkpt lat="44.37331" lon="5.98514">
        <ele>1157.56</ele>
        <time>2015-05-11T14:01:16Z</time>
      </trkpt>
      <trkpt lat="44.37326" lon="5.9852">
        <ele>1156.12</ele>
        <time>2015-05-11T14:01:22Z</time>
      </trkpt>
      <trkpt lat="44.37323" lon="5.98521">
        <ele>1154.68</ele>
        <time>2015-05-11T14:01:25Z</time>
      </trkpt>
      <trkpt lat="44.3732" lon="5.98524">
        <ele>1154.68</ele>
        <time>2015-05-11T14:01:30Z</time>
      </trkpt>
      <trkpt lat="44.37314" lon="5.98533">
        <ele>1153.24</ele>
        <time>2015-05-11T14:01:45Z</time>
      </trkpt>
      <trkpt lat="44.37312" lon="5.98535">
        <ele>1151.8</ele>
        <time>2015-05-11T14:01:51Z</time>
      </trkpt>
      <trkpt lat="44.37309" lon="5.98538">
        <ele>1150.84</ele>
        <time>2015-05-11T14:02:04Z</time>
      </trkpt>
      <trkpt lat="44.37309" lon="5.98538">
        <ele>1152.28</ele>
        <time>2015-05-11T14:02:11Z</time>
      </trkpt>
      <trkpt lat="44.37306" lon="5.98544">
        <ele>1150.84</ele>
        <time>2015-05-11T14:02:27Z</time>
      </trkpt>
      <trkpt lat="44.37305" lon="5.98545">
        <ele>1146.03</ele>
        <time>2015-05-11T14:02:37Z</time>
      </trkpt>
      <trkpt lat="44.37305" lon="5.98545">
        <ele>1147.47</ele>
        <time>2015-05-11T14:02:38Z</time>
      </trkpt>
      <trkpt lat="44.37305" lon="5.98545">
        <ele>1151.32</ele>
        <time>2015-05-11T14:02:40Z</time>
      </trkpt>
      <trkpt lat="44.37305" lon="5.98545">
        <ele>1139.78</ele>
        <time>2015-05-11T14:02:52Z</time>
      </trkpt>
      <trkpt lat="44.37305" lon="5.98545">
        <ele>1151.32</ele>
        <time>2015-05-11T14:02:53Z</time>
      </trkpt>
      <trkpt lat="44.37305" lon="5.98545">
        <ele>1156.6</ele>
        <time>2015-05-11T14:02:54Z</time>
      </trkpt>
      <trkpt lat="44.37305" lon="5.98545">
        <ele>1146.99</ele>
        <time>2015-05-11T14:02:55Z</time>
      </trkpt>
      <trkpt lat="44.37305" lon="5.98545">
        <ele>1150.35</ele>
        <time>2015-05-11T14:02:57Z</time>
      </trkpt>
      <trkpt lat="44.37305" lon="5.98545">
        <ele>1154.2</ele>
        <time>2015-05-11T14:02:59Z</time>
      </trkpt>
      <trkpt lat="44.37305" lon="5.98545">
        <ele>1147.95</ele>
        <time>2015-05-11T14:03:00Z</time>
      </trkpt>
      <trkpt lat="44.37305" lon="5.98545">
        <ele>1149.39</ele>
        <time>2015-05-11T14:03:01Z</time>
      </trkpt>
      <trkpt lat="44.37305" lon="5.98545">
        <ele>1153.72</ele>
        <time>2015-05-11T14:03:03Z</time>
      </trkpt>
      <trkpt lat="44.37305" lon="5.98545">
        <ele>1151.32</ele>
        <time>2015-05-11T14:03:04Z</time>
      </trkpt>
      <trkpt lat="44.37305" lon="5.98545">
        <ele>1158.05</ele>
        <time>2015-05-11T14:03:10Z</time>
      </trkpt>
      <trkpt lat="44.37305" lon="5.98545">
        <ele>1150.35</ele>
        <time>2015-05-11T14:03:11Z</time>
      </trkpt>
      <trkpt lat="44.37305" lon="5.98545">
        <ele>1149.87</ele>
        <time>2015-05-11T14:03:13Z</time>
      </trkpt>
      <trkpt lat="44.37305" lon="5.98545">
        <ele>1152.76</ele>
        <time>2015-05-11T14:03:20Z</time>
      </trkpt>
      <trkpt lat="44.37305" lon="5.98545">
        <ele>1151.8</ele>
        <time>2015-05-11T14:03:28Z</time>
      </trkpt>
      <trkpt lat="44.37305" lon="5.98546">
        <ele>1134.97</ele>
        <time>2015-05-11T14:04:28Z</time>
      </trkpt>
      <trkpt lat="44.37305" lon="5.98546">
        <ele>1148.43</ele>
        <time>2015-05-11T14:04:29Z</time>
      </trkpt>
      <trkpt lat="44.37305" lon="5.98546">
        <ele>1154.2</ele>
        <time>2015-05-11T14:04:30Z</time>
      </trkpt>
      <trkpt lat="44.37305" lon="5.98546">
        <ele>1148.43</ele>
        <time>2015-05-11T14:04:31Z</time>
      </trkpt>
      <trkpt lat="44.37305" lon="5.98546">
        <ele>1152.28</ele>
        <time>2015-05-11T14:04:33Z</time>
      </trkpt>
      <trkpt lat="44.37305" lon="5.98546">
        <ele>1158.05</ele>
        <time>2015-05-11T14:04:34Z</time>
      </trkpt>
      <trkpt lat="44.37305" lon="5.98546">
        <ele>1153.72</ele>
        <time>2015-05-11T14:04:35Z</time>
      </trkpt>
      <trkpt lat="44.37305" lon="5.98546">
        <ele>1150.84</ele>
        <time>2015-05-11T14:04:38Z</time>
      </trkpt>
      <trkpt lat="44.37305" lon="5.98546">
        <ele>1148.43</ele>
        <time>2015-05-11T14:04:48Z</time>
      </trkpt>
      <trkpt lat="44.37305" lon="5.98546">
        <ele>1151.8</ele>
        <time>2015-05-11T14:04:55Z</time>
      </trkpt>
      <trkpt lat="44.37305" lon="5.98546">
        <ele>1150.84</ele>
        <time>2015-05-11T14:05:03Z</time>
      </trkpt>
      <trkpt lat="44.37305" lon="5.98547">
        <ele>1151.8</ele>
        <time>2015-05-11T14:05:51Z</time>
      </trkpt>
      <trkpt lat="44.37304" lon="5.98548">
        <ele>1150.35</ele>
        <time>2015-05-11T14:05:53Z</time>
      </trkpt>
      <trkpt lat="44.37304" lon="5.9855">
        <ele>1150.35</ele>
        <time>2015-05-11T14:05:55Z</time>
      </trkpt>
      <trkpt lat="44.37299" lon="5.98561">
        <ele>1148.91</ele>
        <time>2015-05-11T14:06:06Z</time>
      </trkpt>
      <trkpt lat="44.37293" lon="5.98575">
        <ele>1148.91</ele>
        <time>2015-05-11T14:06:18Z</time>
      </trkpt>
      <trkpt lat="44.37292" lon="5.98578">
        <ele>1147.47</ele>
        <time>2015-05-11T14:06:22Z</time>
      </trkpt>
      <trkpt lat="44.3729" lon="5.98589">
        <ele>1147.47</ele>
        <time>2015-05-11T14:06:31Z</time>
      </trkpt>
      <trkpt lat="44.37278" lon="5.98596">
        <ele>1146.51</ele>
        <time>2015-05-11T14:06:43Z</time>
      </trkpt>
      <trkpt lat="44.37272" lon="5.98599">
        <ele>1144.59</ele>
        <time>2015-05-11T14:06:51Z</time>
      </trkpt>
      <trkpt lat="44.37268" lon="5.98607">
        <ele>1143.14</ele>
        <time>2015-05-11T14:06:58Z</time>
      </trkpt>
      <trkpt lat="44.37264" lon="5.98619">
        <ele>1140.74</ele>
        <time>2015-05-11T14:07:08Z</time>
      </trkpt>
      <trkpt lat="44.37256" lon="5.98628">
        <ele>1139.78</ele>
        <time>2015-05-11T14:07:22Z</time>
      </trkpt>
      <trkpt lat="44.37254" lon="5.9863">
        <ele>1138.34</ele>
        <time>2015-05-11T14:07:36Z</time>
      </trkpt>
      <trkpt lat="44.37254" lon="5.98631">
        <ele>1135.94</ele>
        <time>2015-05-11T14:08:21Z</time>
      </trkpt>
      <trkpt lat="44.37253" lon="5.98631">
        <ele>1134.49</ele>
        <time>2015-05-11T14:08:29Z</time>
      </trkpt>
      <trkpt lat="44.37241" lon="5.98635">
        <ele>1132.09</ele>
        <time>2015-05-11T14:08:40Z</time>
      </trkpt>
      <trkpt lat="44.37236" lon="5.9864">
        <ele>1130.65</ele>
        <time>2015-05-11T14:08:46Z</time>
      </trkpt>
      <trkpt lat="44.37228" lon="5.98645">
        <ele>1129.69</ele>
        <time>2015-05-11T14:08:59Z</time>
      </trkpt>
      <trkpt lat="44.37226" lon="5.98646">
        <ele>1128.24</ele>
        <time>2015-05-11T14:09:11Z</time>
      </trkpt>
      <trkpt lat="44.37226" lon="5.98646">
        <ele>1127.28</ele>
        <time>2015-05-11T14:09:13Z</time>
      </trkpt>
      <trkpt lat="44.37226" lon="5.98646">
        <ele>1126.8</ele>
        <time>2015-05-11T14:09:30Z</time>
      </trkpt>
      <trkpt lat="44.37226" lon="5.98646">
        <ele>1126.8</ele>
        <time>2015-05-11T14:09:41Z</time>
      </trkpt>
      <trkpt lat="44.37225" lon="5.98646">
        <ele>1124.88</ele>
        <time>2015-05-11T14:09:59Z</time>
      </trkpt>
      <trkpt lat="44.37223" lon="5.98644">
        <ele>1124.4</ele>
        <time>2015-05-11T14:10:13Z</time>
      </trkpt>
      <trkpt lat="44.37222" lon="5.98643">
        <ele>1121.52</ele>
        <time>2015-05-11T14:10:29Z</time>
      </trkpt>
      <trkpt lat="44.37214" lon="5.98645">
        <ele>1121.52</ele>
        <time>2015-05-11T14:10:52Z</time>
      </trkpt>
      <trkpt lat="44.3721" lon="5.98647">
        <ele>1119.59</ele>
        <time>2015-05-11T14:11:05Z</time>
      </trkpt>
      <trkpt lat="44.37207" lon="5.98645">
        <ele>1118.15</ele>
        <time>2015-05-11T14:11:19Z</time>
      </trkpt>
      <trkpt lat="44.37204" lon="5.9864">
        <ele>1116.71</ele>
        <time>2015-05-11T14:11:35Z</time>
      </trkpt>
      <trkpt lat="44.37202" lon="5.98642">
        <ele>1115.27</ele>
        <time>2015-05-11T14:11:48Z</time>
      </trkpt>
      <trkpt lat="44.37201" lon="5.98641">
        <ele>1112.86</ele>
        <time>2015-05-11T14:11:53Z</time>
      </trkpt>
      <trkpt lat="44.37201" lon="5.9864">
        <ele>1112.38</ele>
        <time>2015-05-11T14:12:12Z</time>
      </trkpt>
      <trkpt lat="44.37201" lon="5.98638">
        <ele>1110.46</ele>
        <time>2015-05-11T14:12:44Z</time>
      </trkpt>
      <trkpt lat="44.37199" lon="5.98631">
        <ele>1109.02</ele>
        <time>2015-05-11T14:13:09Z</time>
      </trkpt>
      <trkpt lat="44.37199" lon="5.98631">
        <ele>1106.13</ele>
        <time>2015-05-11T14:13:38Z</time>
      </trkpt>
      <trkpt lat="44.37199" lon="5.98628">
        <ele>1105.17</ele>
        <time>2015-05-11T14:13:52Z</time>
      </trkpt>
      <trkpt lat="44.37198" lon="5.98626">
        <ele>1103.73</ele>
        <time>2015-05-11T14:13:56Z</time>
      </trkpt>
      <trkpt lat="44.37198" lon="5.98622">
        <ele>1103.25</ele>
        <time>2015-05-11T14:14:00Z</time>
      </trkpt>
      <trkpt lat="44.37192" lon="5.98613">
        <ele>1100.85</ele>
        <time>2015-05-11T14:14:13Z</time>
      </trkpt>
      <trkpt lat="44.37185" lon="5.9861">
        <ele>1099.4</ele>
        <time>2015-05-11T14:14:27Z</time>
      </trkpt>
      <trkpt lat="44.37181" lon="5.98607">
        <ele>1097.48</ele>
        <time>2015-05-11T14:14:45Z</time>
      </trkpt>
      <trkpt lat="44.37174" lon="5.98605">
        <ele>1094.12</ele>
        <time>2015-05-11T14:14:56Z</time>
      </trkpt>
      <trkpt lat="44.37166" lon="5.98606">
        <ele>1092.68</ele>
        <time>2015-05-11T14:15:08Z</time>
      </trkpt>
      <trkpt lat="44.37164" lon="5.98608">
        <ele>1091.23</ele>
        <time>2015-05-11T14:15:11Z</time>
      </trkpt>
      <trkpt lat="44.37161" lon="5.98609">
        <ele>1090.27</ele>
        <time>2015-05-11T14:15:15Z</time>
      </trkpt>
      <trkpt lat="44.37158" lon="5.98611">
        <ele>1088.35</ele>
        <time>2015-05-11T14:15:21Z</time>
      </trkpt>
      <trkpt lat="44.37153" lon="5.98615">
        <ele>1086.91</ele>
        <time>2015-05-11T14:15:32Z</time>
      </trkpt>
      <trkpt lat="44.37145" lon="5.98612">
        <ele>1084.5</ele>
        <time>2015-05-11T14:15:45Z</time>
      </trkpt>
      <trkpt lat="44.37139" lon="5.98613">
        <ele>1082.58</ele>
        <time>2015-05-11T14:15:55Z</time>
      </trkpt>
      <trkpt lat="44.37135" lon="5.98613">
        <ele>1081.14</ele>
        <time>2015-05-11T14:16:04Z</time>
      </trkpt>
      <trkpt lat="44.37132" lon="5.98613">
        <ele>1080.18</ele>
        <time>2015-05-11T14:16:09Z</time>
      </trkpt>
      <trkpt lat="44.37126" lon="5.98613">
        <ele>1078.26</ele>
        <time>2015-05-11T14:16:21Z</time>
      </trkpt>
      <trkpt lat="44.3712" lon="5.98617">
        <ele>1077.29</ele>
        <time>2015-05-11T14:16:32Z</time>
      </trkpt>
      <trkpt lat="44.37114" lon="5.98616">
        <ele>1073.93</ele>
        <time>2015-05-11T14:16:44Z</time>
      </trkpt>
      <trkpt lat="44.37106" lon="5.98621">
        <ele>1073.45</ele>
        <time>2015-05-11T14:16:55Z</time>
      </trkpt>
      <trkpt lat="44.37102" lon="5.98625">
        <ele>1071.53</ele>
        <time>2015-05-11T14:17:05Z</time>
      </trkpt>
      <trkpt lat="44.37095" lon="5.98629">
        <ele>1071.05</ele>
        <time>2015-05-11T14:17:16Z</time>
      </trkpt>
      <trkpt lat="44.37087" lon="5.98633">
        <ele>1069.12</ele>
        <time>2015-05-11T14:17:29Z</time>
      </trkpt>
      <trkpt lat="44.37079" lon="5.98634">
        <ele>1068.16</ele>
        <time>2015-05-11T14:17:38Z</time>
      </trkpt>
      <trkpt lat="44.37077" lon="5.98634">
        <ele>1067.2</ele>
        <time>2015-05-11T14:17:40Z</time>
      </trkpt>
      <trkpt lat="44.37068" lon="5.98636">
        <ele>1065.28</ele>
        <time>2015-05-11T14:17:51Z</time>
      </trkpt>
      <trkpt lat="44.37067" lon="5.98635">
        <ele>1065.28</ele>
        <time>2015-05-11T14:17:52Z</time>
      </trkpt>
      <trkpt lat="44.37063" lon="5.98633">
        <ele>1064.32</ele>
        <time>2015-05-11T14:17:58Z</time>
      </trkpt>
      <trkpt lat="44.37058" lon="5.98633">
        <ele>1062.87</ele>
        <time>2015-05-11T14:18:04Z</time>
      </trkpt>
      <trkpt lat="44.37053" lon="5.98633">
        <ele>1062.39</ele>
        <time>2015-05-11T14:18:15Z</time>
      </trkpt>
      <trkpt lat="44.3705" lon="5.98632">
        <ele>1061.43</ele>
        <time>2015-05-11T14:18:18Z</time>
      </trkpt>
      <trkpt lat="44.37047" lon="5.98627">
        <ele>1059.51</ele>
        <time>2015-05-11T14:18:25Z</time>
      </trkpt>
      <trkpt lat="44.37042" lon="5.9862">
        <ele>1058.07</ele>
        <time>2015-05-11T14:18:37Z</time>
      </trkpt>
      <trkpt lat="44.37037" lon="5.98614">
        <ele>1056.15</ele>
        <time>2015-05-11T14:18:49Z</time>
      </trkpt>
      <trkpt lat="44.37037" lon="5.98614">
        <ele>1055.67</ele>
        <time>2015-05-11T14:18:57Z</time>
      </trkpt>
      <trkpt lat="44.37031" lon="5.98614">
        <ele>1054.22</ele>
        <time>2015-05-11T14:19:09Z</time>
      </trkpt>
      <trkpt lat="44.37031" lon="5.98614">
        <ele>1054.7</ele>
        <time>2015-05-11T14:19:49Z</time>
      </trkpt>
      <trkpt lat="44.37032" lon="5.98613">
        <ele>1055.67</ele>
        <time>2015-05-11T14:20:46Z</time>
      </trkpt>
      <trkpt lat="44.37031" lon="5.98615">
        <ele>1055.18</ele>
        <time>2015-05-11T14:21:22Z</time>
      </trkpt>
      <trkpt lat="44.37031" lon="5.98614">
        <ele>1054.7</ele>
        <time>2015-05-11T14:21:53Z</time>
      </trkpt>
      <trkpt lat="44.37031" lon="5.98613">
        <ele>1055.67</ele>
        <time>2015-05-11T14:23:50Z</time>
      </trkpt>
      <trkpt lat="44.37031" lon="5.98613">
        <ele>1056.15</ele>
        <time>2015-05-11T14:23:56Z</time>
      </trkpt>
      <trkpt lat="44.37031" lon="5.98613">
        <ele>1054.22</ele>
        <time>2015-05-11T14:23:59Z</time>
      </trkpt>
      <trkpt lat="44.37031" lon="5.98613">
        <ele>1054.7</ele>
        <time>2015-05-11T14:24:29Z</time>
      </trkpt>
      <trkpt lat="44.37031" lon="5.98613">
        <ele>1052.3</ele>
        <time>2015-05-11T14:24:32Z</time>
      </trkpt>
      <trkpt lat="44.37031" lon="5.98613">
        <ele>1055.67</ele>
        <time>2015-05-11T14:24:36Z</time>
      </trkpt>
      <trkpt lat="44.37031" lon="5.98613">
        <ele>1054.7</ele>
        <time>2015-05-11T14:24:37Z</time>
      </trkpt>
      <trkpt lat="44.37031" lon="5.98613">
        <ele>1057.59</ele>
        <time>2015-05-11T14:24:38Z</time>
      </trkpt>
      <trkpt lat="44.37031" lon="5.98613">
        <ele>1053.74</ele>
        <time>2015-05-11T14:24:41Z</time>
      </trkpt>
      <trkpt lat="44.37032" lon="5.98612">
        <ele>1054.22</ele>
        <time>2015-05-11T14:25:09Z</time>
      </trkpt>
      <trkpt lat="44.37032" lon="5.98612">
        <ele>1054.7</ele>
        <time>2015-05-11T14:28:49Z</time>
      </trkpt>
      <trkpt lat="44.37032" lon="5.98612">
        <ele>1053.26</ele>
        <time>2015-05-11T14:30:01Z</time>
      </trkpt>
      <trkpt lat="44.37032" lon="5.98611">
        <ele>1054.22</ele>
        <time>2015-05-11T14:30:43Z</time>
      </trkpt>
      <trkpt lat="44.37032" lon="5.98611">
        <ele>1054.22</ele>
        <time>2015-05-11T14:32:58Z</time>
      </trkpt>
      <trkpt lat="44.37033" lon="5.98611">
        <ele>1052.78</ele>
        <time>2015-05-11T14:34:02Z</time>
      </trkpt>
      <trkpt lat="44.37033" lon="5.98611">
        <ele>1054.22</ele>
        <time>2015-05-11T14:34:35Z</time>
      </trkpt>
      <trkpt lat="44.37033" lon="5.98611">
        <ele>1053.74</ele>
        <time>2015-05-11T14:34:45Z</time>
      </trkpt>
      <trkpt lat="44.37033" lon="5.98609">
        <ele>1053.26</ele>
        <time>2015-05-11T14:42:01Z</time>
      </trkpt>
      <trkpt lat="44.37034" lon="5.98609">
        <ele>1036.44</ele>
        <time>2015-05-11T14:44:44Z</time>
      </trkpt>
      <trkpt lat="44.37034" lon="5.98609">
        <ele>1048.45</ele>
        <time>2015-05-11T14:44:45Z</time>
      </trkpt>
      <trkpt lat="44.37034" lon="5.98609">
        <ele>1064.32</ele>
        <time>2015-05-11T14:44:46Z</time>
      </trkpt>
      <trkpt lat="44.37034" lon="5.98609">
        <ele>1054.7</ele>
        <time>2015-05-11T14:44:47Z</time>
      </trkpt>
      <trkpt lat="44.37034" lon="5.98609">
        <ele>1052.78</ele>
        <time>2015-05-11T14:44:49Z</time>
      </trkpt>
      <trkpt lat="44.37034" lon="5.98609">
        <ele>1050.86</ele>
        <time>2015-05-11T14:44:58Z</time>
      </trkpt>
      <trkpt lat="44.37034" lon="5.98609">
        <ele>1054.7</ele>
        <time>2015-05-11T14:45:00Z</time>
      </trkpt>
      <trkpt lat="44.37034" lon="5.98609">
        <ele>1052.78</ele>
        <time>2015-05-11T14:45:01Z</time>
      </trkpt>
      <trkpt lat="44.37033" lon="5.9861">
        <ele>1053.26</ele>
        <time>2015-05-11T14:45:34Z</time>
      </trkpt>
      <trkpt lat="44.37026" lon="5.98617">
        <ele>1051.34</ele>
        <time>2015-05-11T14:46:54Z</time>
      </trkpt>
      <trkpt lat="44.37022" lon="5.98619">
        <ele>1050.38</ele>
        <time>2015-05-11T14:47:07Z</time>
      </trkpt>
      <trkpt lat="44.37018" lon="5.9862">
        <ele>1048.45</ele>
        <time>2015-05-11T14:47:13Z</time>
      </trkpt>
      <trkpt lat="44.37013" lon="5.98621">
        <ele>1047.49</ele>
        <time>2015-05-11T14:47:23Z</time>
      </trkpt>
      <trkpt lat="44.3701" lon="5.98623">
        <ele>1046.53</ele>
        <time>2015-05-11T14:47:42Z</time>
      </trkpt>
      <trkpt lat="44.37005" lon="5.98625">
        <ele>1045.57</ele>
        <time>2015-05-11T14:47:50Z</time>
      </trkpt>
      <trkpt lat="44.36995" lon="5.98629">
        <ele>1044.61</ele>
        <time>2015-05-11T14:48:01Z</time>
      </trkpt>
      <trkpt lat="44.36995" lon="5.9863">
        <ele>1043.17</ele>
        <time>2015-05-11T14:48:03Z</time>
      </trkpt>
      <trkpt lat="44.36987" lon="5.98633">
        <ele>1042.21</ele>
        <time>2015-05-11T14:48:14Z</time>
      </trkpt>
      <trkpt lat="44.36986" lon="5.98636">
        <ele>1039.8</ele>
        <time>2015-05-11T14:48:17Z</time>
      </trkpt>
      <trkpt lat="44.36981" lon="5.98641">
        <ele>1039.32</ele>
        <time>2015-05-11T14:48:27Z</time>
      </trkpt>
      <trkpt lat="44.36976" lon="5.98642">
        <ele>1038.36</ele>
        <time>2015-05-11T14:48:37Z</time>
      </trkpt>
      <trkpt lat="44.36974" lon="5.98644">
        <ele>1036.44</ele>
        <time>2015-05-11T14:48:42Z</time>
      </trkpt>
      <trkpt lat="44.36974" lon="5.98644">
        <ele>1037.4</ele>
        <time>2015-05-11T14:48:44Z</time>
      </trkpt>
      <trkpt lat="44.3697" lon="5.98649">
        <ele>1034.52</ele>
        <time>2015-05-11T14:48:57Z</time>
      </trkpt>
      <trkpt lat="44.36964" lon="5.9865">
        <ele>1032.59</ele>
        <time>2015-05-11T14:49:12Z</time>
      </trkpt>
      <trkpt lat="44.36965" lon="5.98649">
        <ele>1032.59</ele>
        <time>2015-05-11T14:49:28Z</time>
      </trkpt>
      <trkpt lat="44.3697" lon="5.98647">
        <ele>1037.4</ele>
        <time>2015-05-11T14:49:36Z</time>
      </trkpt>
      <trkpt lat="44.36971" lon="5.98648">
        <ele>1035.96</ele>
        <time>2015-05-11T14:49:48Z</time>
      </trkpt>
      <trkpt lat="44.36969" lon="5.98651">
        <ele>1034.04</ele>
        <time>2015-05-11T14:49:59Z</time>
      </trkpt>
      <trkpt lat="44.36963" lon="5.9865">
        <ele>1032.59</ele>
        <time>2015-05-11T14:50:10Z</time>
      </trkpt>
      <trkpt lat="44.36957" lon="5.98649">
        <ele>1030.19</ele>
        <time>2015-05-11T14:50:23Z</time>
      </trkpt>
      <trkpt lat="44.36953" lon="5.98641">
        <ele>1027.79</ele>
        <time>2015-05-11T14:50:34Z</time>
      </trkpt>
      <trkpt lat="44.36953" lon="5.98641">
        <ele>1027.31</ele>
        <time>2015-05-11T14:50:36Z</time>
      </trkpt>
      <trkpt lat="44.3695" lon="5.98638">
        <ele>1027.79</ele>
        <time>2015-05-11T14:50:40Z</time>
      </trkpt>
      <trkpt lat="44.36943" lon="5.98633">
        <ele>1026.34</ele>
        <time>2015-05-11T14:50:51Z</time>
      </trkpt>
      <trkpt lat="44.36939" lon="5.98631">
        <ele>1025.38</ele>
        <time>2015-05-11T14:50:57Z</time>
      </trkpt>
      <trkpt lat="44.36936" lon="5.98622">
        <ele>1024.42</ele>
        <time>2015-05-11T14:51:08Z</time>
      </trkpt>
      <trkpt lat="44.36935" lon="5.98616">
        <ele>1023.46</ele>
        <time>2015-05-11T14:51:13Z</time>
      </trkpt>
      <trkpt lat="44.36933" lon="5.98614">
        <ele>1022.5</ele>
        <time>2015-05-11T14:51:22Z</time>
      </trkpt>
      <trkpt lat="44.36929" lon="5.98617">
        <ele>1019.62</ele>
        <time>2015-05-11T14:51:34Z</time>
      </trkpt>
      <trkpt lat="44.36927" lon="5.98625">
        <ele>1018.17</ele>
        <time>2015-05-11T14:51:46Z</time>
      </trkpt>
      <trkpt lat="44.36924" lon="5.98626">
        <ele>1016.25</ele>
        <time>2015-05-11T14:51:57Z</time>
      </trkpt>
      <trkpt lat="44.36919" lon="5.9862">
        <ele>1015.77</ele>
        <time>2015-05-11T14:52:08Z</time>
      </trkpt>
      <trkpt lat="44.3692" lon="5.98619">
        <ele>1015.77</ele>
        <time>2015-05-11T14:52:09Z</time>
      </trkpt>
      <trkpt lat="44.36919" lon="5.98617">
        <ele>1014.81</ele>
        <time>2015-05-11T14:52:11Z</time>
      </trkpt>
      <trkpt lat="44.36915" lon="5.9861">
        <ele>1012.89</ele>
        <time>2015-05-11T14:52:24Z</time>
      </trkpt>
      <trkpt lat="44.36913" lon="5.98604">
        <ele>1011.44</ele>
        <time>2015-05-11T14:52:36Z</time>
      </trkpt>
      <trkpt lat="44.36912" lon="5.98597">
        <ele>1009.04</ele>
        <time>2015-05-11T14:52:48Z</time>
      </trkpt>
      <trkpt lat="44.36909" lon="5.98595">
        <ele>1009.04</ele>
        <time>2015-05-11T14:52:56Z</time>
      </trkpt>
      <trkpt lat="44.36904" lon="5.98596">
        <ele>1006.64</ele>
        <time>2015-05-11T14:53:07Z</time>
      </trkpt>
      <trkpt lat="44.36902" lon="5.986">
        <ele>1005.2</ele>
        <time>2015-05-11T14:53:18Z</time>
      </trkpt>
      <trkpt lat="44.369" lon="5.98605">
        <ele>1002.79</ele>
        <time>2015-05-11T14:53:32Z</time>
      </trkpt>
      <trkpt lat="44.369" lon="5.98606">
        <ele>1002.31</ele>
        <time>2015-05-11T14:53:33Z</time>
      </trkpt>
      <trkpt lat="44.36898" lon="5.9861">
        <ele>1001.83</ele>
        <time>2015-05-11T14:53:38Z</time>
      </trkpt>
      <trkpt lat="44.36894" lon="5.98617">
        <ele>999.91</ele>
        <time>2015-05-11T14:53:49Z</time>
      </trkpt>
      <trkpt lat="44.36891" lon="5.98624">
        <ele>997.99</ele>
        <time>2015-05-11T14:54:01Z</time>
      </trkpt>
      <trkpt lat="44.36887" lon="5.98622">
        <ele>997.51</ele>
        <time>2015-05-11T14:54:14Z</time>
      </trkpt>
      <trkpt lat="44.36887" lon="5.98622">
        <ele>996.54</ele>
        <time>2015-05-11T14:54:15Z</time>
      </trkpt>
      <trkpt lat="44.36884" lon="5.98617">
        <ele>996.06</ele>
        <time>2015-05-11T14:54:22Z</time>
      </trkpt>
      <trkpt lat="44.36879" lon="5.98607">
        <ele>993.18</ele>
        <time>2015-05-11T14:54:35Z</time>
      </trkpt>
      <trkpt lat="44.36876" lon="5.98599">
        <ele>991.74</ele>
        <time>2015-05-11T14:54:45Z</time>
      </trkpt>
      <trkpt lat="44.36873" lon="5.98595">
        <ele>990.3</ele>
        <time>2015-05-11T14:54:53Z</time>
      </trkpt>
      <trkpt lat="44.36872" lon="5.98586">
        <ele>990.3</ele>
        <time>2015-05-11T14:55:02Z</time>
      </trkpt>
      <trkpt lat="44.36873" lon="5.98577">
        <ele>987.89</ele>
        <time>2015-05-11T14:55:12Z</time>
      </trkpt>
      <trkpt lat="44.36871" lon="5.9857">
        <ele>986.45</ele>
        <time>2015-05-11T14:55:24Z</time>
      </trkpt>
      <trkpt lat="44.36869" lon="5.98567">
        <ele>985.01</ele>
        <time>2015-05-11T14:55:29Z</time>
      </trkpt>
      <trkpt lat="44.36862" lon="5.98569">
        <ele>982.6</ele>
        <time>2015-05-11T14:55:42Z</time>
      </trkpt>
      <trkpt lat="44.36857" lon="5.98571">
        <ele>981.64</ele>
        <time>2015-05-11T14:55:54Z</time>
      </trkpt>
      <trkpt lat="44.36854" lon="5.98573">
        <ele>979.72</ele>
        <time>2015-05-11T14:56:01Z</time>
      </trkpt>
      <trkpt lat="44.3685" lon="5.98579">
        <ele>978.28</ele>
        <time>2015-05-11T14:56:06Z</time>
      </trkpt>
      <trkpt lat="44.36843" lon="5.98584">
        <ele>977.8</ele>
        <time>2015-05-11T14:56:16Z</time>
      </trkpt>
      <trkpt lat="44.36838" lon="5.98588">
        <ele>976.36</ele>
        <time>2015-05-11T14:56:27Z</time>
      </trkpt>
      <trkpt lat="44.36833" lon="5.98583">
        <ele>973.95</ele>
        <time>2015-05-11T14:56:41Z</time>
      </trkpt>
      <trkpt lat="44.36832" lon="5.98583">
        <ele>973.95</ele>
        <time>2015-05-11T14:56:44Z</time>
      </trkpt>
      <trkpt lat="44.36826" lon="5.98579">
        <ele>972.03</ele>
        <time>2015-05-11T14:56:55Z</time>
      </trkpt>
      <trkpt lat="44.36823" lon="5.98577">
        <ele>971.07</ele>
        <time>2015-05-11T14:57:06Z</time>
      </trkpt>
      <trkpt lat="44.3682" lon="5.98575">
        <ele>970.11</ele>
        <time>2015-05-11T14:57:11Z</time>
      </trkpt>
      <trkpt lat="44.36817" lon="5.98571">
        <ele>969.15</ele>
        <time>2015-05-11T14:57:23Z</time>
      </trkpt>
      <trkpt lat="44.36815" lon="5.9857">
        <ele>967.7</ele>
        <time>2015-05-11T14:57:32Z</time>
      </trkpt>
      <trkpt lat="44.36814" lon="5.98571">
        <ele>967.7</ele>
        <time>2015-05-11T14:57:35Z</time>
      </trkpt>
      <trkpt lat="44.36813" lon="5.98579">
        <ele>965.78</ele>
        <time>2015-05-11T14:57:46Z</time>
      </trkpt>
      <trkpt lat="44.36812" lon="5.98587">
        <ele>963.38</ele>
        <time>2015-05-11T14:57:57Z</time>
      </trkpt>
      <trkpt lat="44.36807" lon="5.98594">
        <ele>961.94</ele>
        <time>2015-05-11T14:58:07Z</time>
      </trkpt>
      <trkpt lat="44.36804" lon="5.98593">
        <ele>961.46</ele>
        <time>2015-05-11T14:58:20Z</time>
      </trkpt>
      <trkpt lat="44.36801" lon="5.98598">
        <ele>959.05</ele>
        <time>2015-05-11T14:58:31Z</time>
      </trkpt>
      <trkpt lat="44.36798" lon="5.98605">
        <ele>957.61</ele>
        <time>2015-05-11T14:58:38Z</time>
      </trkpt>
      <trkpt lat="44.36793" lon="5.9861">
        <ele>957.61</ele>
        <time>2015-05-11T14:58:48Z</time>
      </trkpt>
      <trkpt lat="44.36784" lon="5.98612">
        <ele>955.21</ele>
        <time>2015-05-11T14:59:02Z</time>
      </trkpt>
      <trkpt lat="44.36775" lon="5.98615">
        <ele>953.77</ele>
        <time>2015-05-11T14:59:12Z</time>
      </trkpt>
      <trkpt lat="44.36775" lon="5.98615">
        <ele>953.28</ele>
        <time>2015-05-11T14:59:13Z</time>
      </trkpt>
      <trkpt lat="44.36769" lon="5.98615">
        <ele>953.28</ele>
        <time>2015-05-11T14:59:18Z</time>
      </trkpt>
      <trkpt lat="44.36766" lon="5.98615">
        <ele>952.32</ele>
        <time>2015-05-11T14:59:22Z</time>
      </trkpt>
      <trkpt lat="44.3676" lon="5.98617">
        <ele>952.32</ele>
        <time>2015-05-11T14:59:33Z</time>
      </trkpt>
      <trkpt lat="44.36758" lon="5.98621">
        <ele>949.92</ele>
        <time>2015-05-11T14:59:46Z</time>
      </trkpt>
      <trkpt lat="44.36758" lon="5.98623">
        <ele>949.44</ele>
        <time>2015-05-11T14:59:50Z</time>
      </trkpt>
      <trkpt lat="44.36758" lon="5.9863">
        <ele>948.96</ele>
        <time>2015-05-11T15:00:02Z</time>
      </trkpt>
      <trkpt lat="44.36755" lon="5.98633">
        <ele>947.04</ele>
        <time>2015-05-11T15:00:18Z</time>
      </trkpt>
      <trkpt lat="44.36755" lon="5.98633">
        <ele>945.59</ele>
        <time>2015-05-11T15:00:20Z</time>
      </trkpt>
      <trkpt lat="44.36753" lon="5.98636">
        <ele>945.11</ele>
        <time>2015-05-11T15:00:36Z</time>
      </trkpt>
      <trkpt lat="44.3675" lon="5.98641">
        <ele>943.67</ele>
        <time>2015-05-11T15:00:48Z</time>
      </trkpt>
      <trkpt lat="44.36749" lon="5.98643">
        <ele>943.19</ele>
        <time>2015-05-11T15:00:52Z</time>
      </trkpt>
      <trkpt lat="44.36743" lon="5.98652">
        <ele>940.79</ele>
        <time>2015-05-11T15:01:05Z</time>
      </trkpt>
      <trkpt lat="44.3674" lon="5.9866">
        <ele>938.38</ele>
        <time>2015-05-11T15:01:17Z</time>
      </trkpt>
      <trkpt lat="44.3674" lon="5.98664">
        <ele>937.42</ele>
        <time>2015-05-11T15:01:21Z</time>
      </trkpt>
      <trkpt lat="44.36745" lon="5.98668">
        <ele>936.46</ele>
        <time>2015-05-11T15:01:32Z</time>
      </trkpt>
      <trkpt lat="44.36748" lon="5.98675">
        <ele>935.02</ele>
        <time>2015-05-11T15:01:45Z</time>
      </trkpt>
      <trkpt lat="44.36747" lon="5.98681">
        <ele>933.58</ele>
        <time>2015-05-11T15:01:52Z</time>
      </trkpt>
      <trkpt lat="44.36747" lon="5.98686">
        <ele>932.14</ele>
        <time>2015-05-11T15:02:04Z</time>
      </trkpt>
      <trkpt lat="44.36745" lon="5.9869">
        <ele>930.21</ele>
        <time>2015-05-11T15:02:11Z</time>
      </trkpt>
      <trkpt lat="44.36745" lon="5.98691">
        <ele>930.69</ele>
        <time>2015-05-11T15:02:15Z</time>
      </trkpt>
      <trkpt lat="44.36744" lon="5.98698">
        <ele>929.25</ele>
        <time>2015-05-11T15:02:27Z</time>
      </trkpt>
      <trkpt lat="44.36745" lon="5.98701">
        <ele>926.37</ele>
        <time>2015-05-11T15:02:32Z</time>
      </trkpt>
      <trkpt lat="44.36741" lon="5.98707">
        <ele>925.89</ele>
        <time>2015-05-11T15:02:46Z</time>
      </trkpt>
      <trkpt lat="44.36738" lon="5.98712">
        <ele>923</ele>
        <time>2015-05-11T15:02:56Z</time>
      </trkpt>
      <trkpt lat="44.36738" lon="5.98713">
        <ele>922.52</ele>
        <time>2015-05-11T15:02:57Z</time>
      </trkpt>
      <trkpt lat="44.36732" lon="5.98715">
        <ele>922.04</ele>
        <time>2015-05-11T15:03:08Z</time>
      </trkpt>
      <trkpt lat="44.36728" lon="5.9871">
        <ele>920.6</ele>
        <time>2015-05-11T15:03:15Z</time>
      </trkpt>
      <trkpt lat="44.3672" lon="5.98705">
        <ele>919.16</ele>
        <time>2015-05-11T15:03:27Z</time>
      </trkpt>
      <trkpt lat="44.36717" lon="5.98699">
        <ele>917.24</ele>
        <time>2015-05-11T15:03:36Z</time>
      </trkpt>
      <trkpt lat="44.36711" lon="5.98696">
        <ele>916.27</ele>
        <time>2015-05-11T15:03:48Z</time>
      </trkpt>
      <trkpt lat="44.36705" lon="5.98695">
        <ele>914.83</ele>
        <time>2015-05-11T15:03:58Z</time>
      </trkpt>
      <trkpt lat="44.367" lon="5.98692">
        <ele>911.95</ele>
        <time>2015-05-11T15:04:06Z</time>
      </trkpt>
      <trkpt lat="44.36696" lon="5.98689">
        <ele>910.99</ele>
        <time>2015-05-11T15:04:13Z</time>
      </trkpt>
      <trkpt lat="44.36692" lon="5.98688">
        <ele>910.99</ele>
        <time>2015-05-11T15:04:18Z</time>
      </trkpt>
      <trkpt lat="44.36689" lon="5.98683">
        <ele>910.03</ele>
        <time>2015-05-11T15:04:23Z</time>
      </trkpt>
      <trkpt lat="44.36689" lon="5.98682">
        <ele>909.54</ele>
        <time>2015-05-11T15:04:24Z</time>
      </trkpt>
      <trkpt lat="44.36682" lon="5.98667">
        <ele>909.06</ele>
        <time>2015-05-11T15:04:36Z</time>
      </trkpt>
      <trkpt lat="44.3668" lon="5.98663">
        <ele>908.1</ele>
        <time>2015-05-11T15:04:41Z</time>
      </trkpt>
      <trkpt lat="44.36678" lon="5.98649">
        <ele>906.18</ele>
        <time>2015-05-11T15:04:52Z</time>
      </trkpt>
      <trkpt lat="44.36678" lon="5.98647">
        <ele>906.66</ele>
        <time>2015-05-11T15:04:54Z</time>
      </trkpt>
      <trkpt lat="44.36677" lon="5.98643">
        <ele>905.7</ele>
        <time>2015-05-11T15:04:58Z</time>
      </trkpt>
      <trkpt lat="44.36678" lon="5.98639">
        <ele>905.7</ele>
        <time>2015-05-11T15:05:02Z</time>
      </trkpt>
      <trkpt lat="44.36676" lon="5.9863">
        <ele>903.78</ele>
        <time>2015-05-11T15:05:13Z</time>
      </trkpt>
      <trkpt lat="44.36675" lon="5.9863">
        <ele>904.74</ele>
        <time>2015-05-11T15:05:15Z</time>
      </trkpt>
      <trkpt lat="44.36674" lon="5.98628">
        <ele>903.78</ele>
        <time>2015-05-11T15:05:17Z</time>
      </trkpt>
      <trkpt lat="44.36669" lon="5.98617">
        <ele>902.33</ele>
        <time>2015-05-11T15:05:28Z</time>
      </trkpt>
      <trkpt lat="44.36668" lon="5.98613">
        <ele>902.33</ele>
        <time>2015-05-11T15:05:31Z</time>
      </trkpt>
      <trkpt lat="44.36663" lon="5.986">
        <ele>903.3</ele>
        <time>2015-05-11T15:05:43Z</time>
      </trkpt>
      <trkpt lat="44.36658" lon="5.98593">
        <ele>899.93</ele>
        <time>2015-05-11T15:05:52Z</time>
      </trkpt>
      <trkpt lat="44.36651" lon="5.98586">
        <ele>899.45</ele>
        <time>2015-05-11T15:06:04Z</time>
      </trkpt>
      <trkpt lat="44.36642" lon="5.98581">
        <ele>896.57</ele>
        <time>2015-05-11T15:06:18Z</time>
      </trkpt>
      <trkpt lat="44.36639" lon="5.98578">
        <ele>896.57</ele>
        <time>2015-05-11T15:06:22Z</time>
      </trkpt>
      <trkpt lat="44.36639" lon="5.98577">
        <ele>895.61</ele>
        <time>2015-05-11T15:06:23Z</time>
      </trkpt>
      <trkpt lat="44.36632" lon="5.98566">
        <ele>894.64</ele>
        <time>2015-05-11T15:06:35Z</time>
      </trkpt>
      <trkpt lat="44.36628" lon="5.98564">
        <ele>894.64</ele>
        <time>2015-05-11T15:06:40Z</time>
      </trkpt>
      <trkpt lat="44.36626" lon="5.98563">
        <ele>893.2</ele>
        <time>2015-05-11T15:06:43Z</time>
      </trkpt>
      <trkpt lat="44.36618" lon="5.98561">
        <ele>893.2</ele>
        <time>2015-05-11T15:06:53Z</time>
      </trkpt>
      <trkpt lat="44.36613" lon="5.98556">
        <ele>892.24</ele>
        <time>2015-05-11T15:07:03Z</time>
      </trkpt>
      <trkpt lat="44.3661" lon="5.98553">
        <ele>891.28</ele>
        <time>2015-05-11T15:07:06Z</time>
      </trkpt>
      <trkpt lat="44.36606" lon="5.98546">
        <ele>891.76</ele>
        <time>2015-05-11T15:07:13Z</time>
      </trkpt>
      <trkpt lat="44.36602" lon="5.98545">
        <ele>890.32</ele>
        <time>2015-05-11T15:07:16Z</time>
      </trkpt>
      <trkpt lat="44.36599" lon="5.9854">
        <ele>889.84</ele>
        <time>2015-05-11T15:07:20Z</time>
      </trkpt>
      <trkpt lat="44.36596" lon="5.98538">
        <ele>889.36</ele>
        <time>2015-05-11T15:07:23Z</time>
      </trkpt>
      <trkpt lat="44.3659" lon="5.98532">
        <ele>888.88</ele>
        <time>2015-05-11T15:07:31Z</time>
      </trkpt>
      <trkpt lat="44.36586" lon="5.9853">
        <ele>887.91</ele>
        <time>2015-05-11T15:07:36Z</time>
      </trkpt>
      <trkpt lat="44.36579" lon="5.98523">
        <ele>885.51</ele>
        <time>2015-05-11T15:07:46Z</time>
      </trkpt>
      <trkpt lat="44.36577" lon="5.98523">
        <ele>885.99</ele>
        <time>2015-05-11T15:07:48Z</time>
      </trkpt>
      <trkpt lat="44.36572" lon="5.98521">
        <ele>885.99</ele>
        <time>2015-05-11T15:07:54Z</time>
      </trkpt>
      <trkpt lat="44.36566" lon="5.98511">
        <ele>885.03</ele>
        <time>2015-05-11T15:08:02Z</time>
      </trkpt>
      <trkpt lat="44.36563" lon="5.98503">
        <ele>884.07</ele>
        <time>2015-05-11T15:08:09Z</time>
      </trkpt>
      <trkpt lat="44.3656" lon="5.98501">
        <ele>883.59</ele>
        <time>2015-05-11T15:08:15Z</time>
      </trkpt>
      <trkpt lat="44.36551" lon="5.98492">
        <ele>882.63</ele>
        <time>2015-05-11T15:08:27Z</time>
      </trkpt>
      <trkpt lat="44.36543" lon="5.98485">
        <ele>881.19</ele>
        <time>2015-05-11T15:08:40Z</time>
      </trkpt>
      <trkpt lat="44.36541" lon="5.98485">
        <ele>881.67</ele>
        <time>2015-05-11T15:08:43Z</time>
      </trkpt>
      <trkpt lat="44.36533" lon="5.98482">
        <ele>880.22</ele>
        <time>2015-05-11T15:08:51Z</time>
      </trkpt>
      <trkpt lat="44.36529" lon="5.9848">
        <ele>880.22</ele>
        <time>2015-05-11T15:08:54Z</time>
      </trkpt>
      <trkpt lat="44.36527" lon="5.98478">
        <ele>881.67</ele>
        <time>2015-05-11T15:08:56Z</time>
      </trkpt>
      <trkpt lat="44.36526" lon="5.98478">
        <ele>880.22</ele>
        <time>2015-05-11T15:08:58Z</time>
      </trkpt>
      <trkpt lat="44.36523" lon="5.98478">
        <ele>880.22</ele>
        <time>2015-05-11T15:09:01Z</time>
      </trkpt>
      <trkpt lat="44.36519" lon="5.98477">
        <ele>878.3</ele>
        <time>2015-05-11T15:09:05Z</time>
      </trkpt>
      <trkpt lat="44.36516" lon="5.98474">
        <ele>878.78</ele>
        <time>2015-05-11T15:09:09Z</time>
      </trkpt>
      <trkpt lat="44.36515" lon="5.98469">
        <ele>877.82</ele>
        <time>2015-05-11T15:09:14Z</time>
      </trkpt>
      <trkpt lat="44.36515" lon="5.98467">
        <ele>878.3</ele>
        <time>2015-05-11T15:09:16Z</time>
      </trkpt>
      <trkpt lat="44.36514" lon="5.98463">
        <ele>877.82</ele>
        <time>2015-05-11T15:09:19Z</time>
      </trkpt>
      <trkpt lat="44.36514" lon="5.9846">
        <ele>877.34</ele>
        <time>2015-05-11T15:09:22Z</time>
      </trkpt>
      <trkpt lat="44.36513" lon="5.98458">
        <ele>878.3</ele>
        <time>2015-05-11T15:09:24Z</time>
      </trkpt>
      <trkpt lat="44.36512" lon="5.98451">
        <ele>867.25</ele>
        <time>2015-05-11T15:09:37Z</time>
      </trkpt>
      <trkpt lat="44.36512" lon="5.98451">
        <ele>883.59</ele>
        <time>2015-05-11T15:09:38Z</time>
      </trkpt>
      <trkpt lat="44.36512" lon="5.98451">
        <ele>881.19</ele>
        <time>2015-05-11T15:09:39Z</time>
      </trkpt>
      <trkpt lat="44.36512" lon="5.98451">
        <ele>876.86</ele>
        <time>2015-05-11T15:09:40Z</time>
      </trkpt>
      <trkpt lat="44.36513" lon="5.98448">
        <ele>873.98</ele>
        <time>2015-05-11T15:09:56Z</time>
      </trkpt>
      <trkpt lat="44.36514" lon="5.98446">
        <ele>873.5</ele>
        <time>2015-05-11T15:10:10Z</time>
      </trkpt>
      <trkpt lat="44.36514" lon="5.98445">
        <ele>872.53</ele>
        <time>2015-05-11T15:10:14Z</time>
      </trkpt>
      <trkpt lat="44.36514" lon="5.98445">
        <ele>867.73</ele>
        <time>2015-05-11T15:10:23Z</time>
      </trkpt>
      <trkpt lat="44.36514" lon="5.98445">
        <ele>873.98</ele>
        <time>2015-05-11T15:10:24Z</time>
      </trkpt>
      <trkpt lat="44.36514" lon="5.98445">
        <ele>869.65</ele>
        <time>2015-05-11T15:10:31Z</time>
      </trkpt>
      <trkpt lat="44.36514" lon="5.98445">
        <ele>865.8</ele>
        <time>2015-05-11T15:10:33Z</time>
      </trkpt>
      <trkpt lat="44.36514" lon="5.98445">
        <ele>872.53</ele>
        <time>2015-05-11T15:10:34Z</time>
      </trkpt>
      <trkpt lat="44.36514" lon="5.98445">
        <ele>873.01</ele>
        <time>2015-05-11T15:10:35Z</time>
      </trkpt>
      <trkpt lat="44.36514" lon="5.98445">
        <ele>871.09</ele>
        <time>2015-05-11T15:10:37Z</time>
      </trkpt>
      <trkpt lat="44.36514" lon="5.98444">
        <ele>863.88</ele>
        <time>2015-05-11T15:10:43Z</time>
      </trkpt>
      <trkpt lat="44.36514" lon="5.98444">
        <ele>871.09</ele>
        <time>2015-05-11T15:10:44Z</time>
      </trkpt>
      <trkpt lat="44.36514" lon="5.98439">
        <ele>870.13</ele>
        <time>2015-05-11T15:10:49Z</time>
      </trkpt>
      <trkpt lat="44.36505" lon="5.98441">
        <ele>868.21</ele>
        <time>2015-05-11T15:10:58Z</time>
      </trkpt>
      <trkpt lat="44.365" lon="5.98444">
        <ele>868.21</ele>
        <time>2015-05-11T15:11:04Z</time>
      </trkpt>
      <trkpt lat="44.36495" lon="5.98451">
        <ele>867.73</ele>
        <time>2015-05-11T15:11:15Z</time>
      </trkpt>
      <trkpt lat="44.36495" lon="5.98455">
        <ele>867.25</ele>
        <time>2015-05-11T15:11:20Z</time>
      </trkpt>
      <trkpt lat="44.36496" lon="5.98461">
        <ele>866.29</ele>
        <time>2015-05-11T15:11:31Z</time>
      </trkpt>
      <trkpt lat="44.36496" lon="5.98461">
        <ele>864.84</ele>
        <time>2015-05-11T15:11:33Z</time>
      </trkpt>
      <trkpt lat="44.36496" lon="5.98459">
        <ele>866.29</ele>
        <time>2015-05-11T15:12:07Z</time>
      </trkpt>
      <trkpt lat="44.36496" lon="5.98459">
        <ele>864.84</ele>
        <time>2015-05-11T15:12:21Z</time>
      </trkpt>
    </trkseg>
  </trk>
</gpx>